[[{"header":{"parameterUnit":"m.s-1","parameterCategory":1,"la1":31.0,"la2":29.5877,"lo1":-88.7671,"lo2":-86.6584,"dx":0.0162,"dy":0.0185,"nx":115,"ny":88,"refTime":"2023-01-10T06:00:00:Z","depth":0,"parameterNumber":2,"parameterNumberName":"U-component_of_WINDS"},"data":[0.0,0.0,0.0,0.0,0.0,0.0,0.0,0.0,0.0,0.0,0.0,0.0,0.0,0.0,0.0,0.0,0.0,0.0,0.0,0.0,0.0,0.0,0.0,0.0,0.0,0.0,0.0,0.0,0.0,0.0,0.0,0.0,0.0,0.0,0.0,0.0,0.0,0.0,0.0,0.0,0.0,0.0,0.0,0.0,0.0,0.0,0.0,0.0,0.0,0.0,0.0,0.0,0.0,0.0,0.0,0.0,0.0,0.0,0.0,0.0,0.0,0.0,0.0,0.0,0.0,0.0,0.0,0.0,0.0,0.0,0.0,0.0,0.0,0.0,0.0,0.0,0.0,0.0,0.0,0.0,0.0,0.0,0.0,0.0,0.0,0.0,0.0,0.0,0.0,0.0,0.0,0.0,0.0,0.0,0.0,0.0,0.0,0.0,0.0,0.0,0.0,0.0,0.0,0.0,0.0,0.0,0.0,0.0,0.0,0.0,0.0,0.0,0.0,0.0,0.0,0.0,0.0,0.0,0.0,0.0,0.0,0.0,0.0,0.0,0.0,0.0,0.0,0.0,0.0,0.0,0.0,0.0,0.0,0.0,0.0,0.0,0.0,0.0,0.0,0.0,0.0,0.0,0.0,0.0,0.0,0.0,0.0,0.0,0.0,0.0,0.0,0.0,0.0,0.0,0.0,0.0,0.0,0.0,0.0,0.0,0.0,0.0,0.0,0.0,0.0,0.0,0.0,0.0,0.0,0.0,0.0,0.0,0.0,0.0,0.0,0.0,0.0,0.0,0.0,0.0,0.0,0.0,0.0,0.0,0.0,0.0,0.0,0.0,0.0,0.0,0.0,0.0,0.0,0.0,0.0,0.0,0.0,0.0,0.0,0.0,0.0,0.0,0.0,0.0,0.0,0.0,0.0,0.0,0.0,0.0,0.0,0.0,0.0,0.0,0.0,0.0,0.0,0.0,0.0,0.0,0.0,0.0,0.0,0.0,0.0,0.0,0.0,0.0,0.0,0.0,0.0,0.0,0.0,0.0,0.0,0.0,0.0,0.0,0.0,0.0,0.0,0.0,0.0,0.0,0.0,0.0,0.0,0.0,0.0,0.0,0.0,0.0,0.0,0.0,0.0,0.0,0.0,0.0,0.0,0.0,0.0,0.0,0.0,0.0,0.0,0.0,0.0,0.0,0.0,0.0,0.0,0.0,0.0,0.0,0.0,0.0,0.0,0.0,0.0,0.0,0.0,0.0,0.0,0.0,0.0,0.0,0.0,0.0,0.0,0.0,0.0,0.0,0.0,0.0,0.0,0.0,0.0,0.0,0.0,0.0,0.0,0.0,0.0,0.0,0.0,0.0,0.0,0.0,0.0,0.0,0.0,0.0,0.0,0.0,0.0,0.0,0.0,0.0,0.0,0.0,0.0,0.0,0.0,0.0,0.0,0.0,0.0,0.0,0.0,0.0,0.0,0.0,0.0,0.0,0.0,0.0,0.0,0.0,0.0,0.0,0.0,0.0,0.0,0.0,0.0,0.0,0.0,0.0,0.0,0.0,0.0,0.0,0.0,0.0,0.0,0.0,0.0,0.0,0.0,0.0,0.0,0.0,0.0,0.0,0.0,0.0,0.0,0.0,0.0,0.0,0.0,0.0,0.0,0.0,0.0,0.0,0.0,0.0,0.0,0.0,0.0,0.0,0.0,0.0,0.0,0.0,0.0,0.0,0.0,0.0,0.0,0.0,0.0,0.0,0.0,0.0,0.0,0.0,0.0,0.0,0.0,0.0,0.0,0.0,0.0,0.0,0.0,0.0,0.0,0.0,0.0,0.0,0.0,0.0,0.0,0.0,0.0,0.0,0.0,0.0,0.0,0.0,0.0,0.0,0.0,0.0,0.0,0.0,0.0,0.0,0.0,0.0,0.0,0.0,0.0,0.0,0.0,0.0,0.0,0.0,0.0,0.0,0.0,0.0,0.0,0.0,0.0,0.0,0.0,0.0,0.0,0.0,0.0,0.0,0.0,0.0,0.0,0.0,0.0,0.0,0.0,0.0,0.0,0.0,0.0,0.0,0.0,0.0,0.0,0.0,0.0,0.0,0.0,0.0,0.0,0.0,0.0,0.0,0.0,0.0,0.0,0.0,0.0,0.0,0.0,0.0,0.0,0.0,0.0,0.0,0.0,0.0,0.0,0.0,0.0,0.0,0.0,0.0,0.0,0.0,0.0,0.0,0.0,0.0,0.0,0.0,0.0,0.0,0.0,0.0,0.0,0.0,0.0,0.0,0.0,0.0,0.0,0.0,0.0,0.0,0.0,0.0,0.0,0.0,0.0,0.0,0.0,0.0,0.0,0.0,0.0,0.0,0.0,0.0,0.0,0.0,0.0,0.0,0.0,0.0,0.0,0.0,0.0,0.0,0.0,0.0,0.0,0.0,0.0,0.0,0.0,0.0,0.0,0.0,0.0,0.0,0.0,0.0,0.0,0.0,0.0,0.0,0.0,0.0,0.0,0.0,0.0,0.0,0.0,0.0,0.0,0.0,0.0,0.0,0.0,0.0,0.0,0.0,0.0,0.0,0.0,0.0,0.0,0.0,0.0,0.0,0.0,0.0,0.0,0.0,0.0,0.0,0.0,0.0,0.0,0.0,0.0,0.0,0.0,0.0,0.0,0.0,0.0,0.0,0.0,0.0,0.0,0.0,0.0,0.0,0.0,0.0,0.0,0.0,0.0,0.0,0.0,0.0,0.0,0.0,0.0,0.0,0.0,0.0,0.0,0.0,0.0,0.0,0.0,0.0,0.0,0.0,0.0,0.0,0.0,0.0,0.0,0.0,0.0,0.0,0.0,0.0,0.0,0.0,0.0,0.0,0.0,0.0,0.0,0.0,0.0,0.0,0.0,0.0,0.0,0.0,0.0,0.0,0.0,0.0,0.0,0.0,0.0,0.0,0.0,0.0,0.0,0.0,0.0,0.0,0.0,0.0,0.0,0.0,0.0,0.0,0.0,0.0,0.0,0.0,0.0,0.0,0.0,0.0,0.0,0.0,0.0,0.0,0.0,0.0,0.0,0.0,0.0,0.0,0.0,0.0,0.0,0.0,0.0,0.0,0.0,0.0,0.0,0.0,0.0,0.0,0.0,0.0,0.0,0.0,0.0,0.0,0.0,0.0,0.0,0.0,0.0,0.0,0.0,0.0,0.0,0.0,0.0,0.0,0.0,0.0,0.0,0.0,0.0,0.0,0.0,0.0,0.0,0.0,0.0,0.0,0.0,0.0,0.0,0.0,0.0,0.0,0.0,0.0,0.0,0.0,0.0,0.0,0.0,0.0,0.0,0.0,0.0,0.0,0.0,0.0,0.0,0.0,0.0,0.0,0.0,0.0,0.0,0.0,0.0,0.0,0.0,0.0,0.0,0.0,0.0,0.0,0.0,0.0,0.0,0.0,0.0,0.0,0.0,0.0,0.0,0.0,0.0,0.0,0.0,0.0,0.0,0.0,0.0,0.0,0.0,0.0,0.0,0.0,0.0,0.0,0.0,0.0,0.0,0.0,0.0,0.0,0.0,0.0,0.0,0.0,0.0,0.0,0.0,0.0,0.0,0.0,0.0,0.0,0.0,0.0,0.0,0.0,0.0,0.0,0.0,0.0,0.0,0.0,0.0,0.0,0.0,0.0,0.0,0.0,0.0,0.0,0.0,0.0,0.0,0.0,0.0,0.0,0.0,0.0,0.0,0.0,0.0,0.0,0.0,0.0,0.0,0.0,0.0,0.0,0.0,0.0,0.0,0.0,0.0,0.0,0.0,0.0,0.0,0.0,0.0,0.0,0.0,0.0,0.0,0.0,0.0,0.0,0.0,0.0,0.0,0.0,0.0,0.0,0.0,0.0,0.0,0.0,0.0,0.0,0.0,0.0,0.0,0.0,0.0,0.0,0.0,0.0,0.0,0.0,0.0,0.0,0.0,0.0,0.0,0.0,0.0,0.0,0.0,0.0,0.0,0.0,0.0,0.0,0.0,0.0,0.0,0.0,0.0,0.0,0.0,0.0,0.0,0.0,0.0,0.0,0.0,0.0,0.0,0.0,0.0,0.0,0.0,0.0,0.0,0.0,0.0,0.0,0.0,0.0,0.0,0.0,0.0,0.0,0.0,0.0,0.0,0.0,0.0,0.0,0.0,0.0,0.0,0.0,0.0,0.0,0.0,0.0,0.0,0.0,0.0,0.0,0.0,0.0,0.0,0.0,0.0,0.0,0.0,0.0,0.0,0.0,3.0987,0.0,0.0,0.0,2.8083,0.0,0.0,0.0,0.0,0.0,0.0,0.0,0.0,0.0,0.0,0.0,0.0,0.0,0.0,0.0,0.0,0.0,0.0,0.0,0.0,0.0,0.0,0.0,0.0,0.0,0.0,0.0,0.0,0.0,0.0,0.0,0.0,0.0,0.0,0.0,0.0,0.0,0.0,0.0,0.0,0.0,0.0,0.0,0.0,0.0,0.0,0.0,0.0,0.0,0.0,0.0,0.0,0.0,0.0,0.0,0.0,0.0,0.0,0.0,0.0,0.0,0.0,0.0,0.0,0.0,0.0,0.0,0.0,0.0,0.0,0.0,0.0,0.0,0.0,0.0,0.0,0.0,0.0,0.0,0.0,0.0,0.0,0.0,0.0,0.0,0.0,0.0,0.0,0.0,0.0,0.0,0.0,0.0,0.0,0.0,0.0,0.0,0.0,0.0,0.0,0.0,0.0,0.0,0.0,0.0,0.0,0.0,0.0,0.0,0.0,3.1442,3.1173,3.0688,2.9896,2.8766,0.0,0.0,0.0,0.0,0.0,0.0,0.0,0.0,0.0,0.0,0.0,0.0,0.0,0.0,0.0,0.0,0.0,0.0,0.0,0.0,0.0,0.0,0.0,0.0,0.0,0.0,0.0,0.0,0.0,0.0,0.0,0.0,0.0,0.0,0.0,0.0,0.0,0.0,0.0,0.0,0.0,0.0,0.0,0.0,0.0,0.0,0.0,0.0,0.0,0.0,0.0,0.0,0.0,0.0,0.0,0.0,0.0,0.0,0.0,0.0,0.0,0.0,0.0,0.0,0.0,0.0,0.0,0.0,0.0,0.0,0.0,0.0,0.0,0.0,0.0,0.0,0.0,0.0,0.0,0.0,0.0,0.0,0.0,0.0,0.0,0.0,0.0,0.0,0.0,0.0,0.0,0.0,0.0,0.0,0.0,0.0,0.0,0.0,0.0,0.0,0.0,0.0,0.0,0.0,0.0,0.0,0.0,0.0,0.0,0.0,0.0,0.0,3.1104,3.0274,2.9279,0.0,0.0,0.0,0.0,0.0,0.0,0.0,0.0,0.0,0.0,0.0,0.0,0.0,0.0,0.0,0.0,0.0,0.0,0.0,0.0,0.0,0.0,0.0,0.0,0.0,0.0,0.0,0.0,0.0,0.0,0.0,0.0,0.0,0.0,0.0,0.0,0.0,0.0,0.0,0.0,0.0,0.0,0.0,0.0,0.0,0.0,0.0,0.0,0.0,0.0,0.0,0.0,0.0,0.0,0.0,0.0,0.0,0.0,0.0,0.0,0.0,0.0,0.0,0.0,0.0,0.0,0.0,0.0,0.0,0.0,0.0,0.0,0.0,0.0,0.0,0.0,0.0,0.0,0.0,0.0,0.0,0.0,0.0,0.0,0.0,0.0,0.0,0.0,0.0,0.0,0.0,0.0,0.0,0.0,0.0,0.0,0.0,0.0,0.0,0.0,0.0,0.0,0.0,0.0,0.0,0.0,0.0,0.0,0.0,0.0,3.18,3.18,3.1585,0.0,2.9138,0.0,0.0,0.0,0.0,0.0,0.0,0.0,0.0,0.0,0.0,0.0,0.0,0.0,0.0,0.0,0.0,0.0,0.0,0.0,0.0,0.0,0.0,0.0,0.0,0.0,0.0,0.0,0.0,0.0,0.0,0.0,0.0,0.0,0.0,0.0,0.0,0.0,0.0,0.0,0.0,0.0,0.0,0.0,0.0,0.0,0.0,0.0,0.0,0.0,0.0,0.0,0.0,0.0,0.0,0.0,0.0,0.0,0.0,0.0,0.0,0.0,0.0,0.0,0.0,0.0,0.0,0.0,0.0,0.0,0.0,0.0,0.0,0.0,0.0,0.0,0.0,0.0,0.0,0.0,0.0,0.0,0.0,0.0,0.0,0.0,0.0,0.0,0.0,0.0,0.0,0.0,0.0,0.0,0.0,0.0,0.0,0.0,0.0,0.0,0.0,0.0,0.0,0.0,0.0,0.0,0.0,0.0,0.0,0.0,0.0,3.18,3.18,3.0793,2.986,0.0,0.0,0.0,0.0,0.0,0.0,0.0,0.0,0.0,0.0,0.0,0.0,0.0,0.0,0.0,0.0,0.0,0.0,0.0,0.0,0.0,0.0,0.0,0.0,0.0,0.0,0.0,0.0,0.0,0.0,0.0,0.0,0.0,0.0,0.0,0.0,0.0,0.0,0.0,0.0,0.0,0.0,0.0,0.0,0.0,0.0,0.0,0.0,0.0,0.0,0.0,0.0,0.0,0.0,0.0,0.0,0.0,0.0,0.0,0.0,0.0,0.0,0.0,0.0,0.0,0.0,0.0,0.0,0.0,0.0,0.0,0.0,0.0,0.0,0.0,0.0,0.0,0.0,0.0,0.0,0.0,0.0,0.0,0.0,0.0,0.0,0.0,0.0,0.0,0.0,0.0,0.0,0.0,0.0,0.0,0.0,0.0,0.0,0.0,0.0,0.0,0.0,0.0,0.0,0.0,0.0,0.0,0.0,0.0,0.0,3.1007,3.18,3.1694,3.0379,2.9448,2.9104,0.0,0.0,0.0,0.0,0.0,0.0,0.0,0.0,0.0,0.0,0.0,0.0,0.0,0.0,0.0,0.0,0.0,0.0,0.0,0.0,0.0,0.0,0.0,0.0,0.0,0.0,0.0,0.0,0.0,0.0,0.0,0.0,0.0,0.0,0.0,0.0,0.0,0.0,0.0,0.0,0.0,0.0,0.0,0.0,0.0,0.0,0.0,0.0,0.0,0.0,0.0,0.0,0.0,0.0,0.0,0.0,0.0,0.0,0.0,0.0,0.0,0.0,0.0,0.0,0.0,0.0,0.0,0.0,0.0,0.0,0.0,0.0,0.0,0.0,0.0,0.0,0.0,0.0,0.0,0.0,0.0,0.0,0.0,0.0,0.0,0.0,0.0,0.0,0.0,0.0,0.0,0.0,0.0,0.0,0.0,0.0,0.0,0.0,0.0,0.0,0.0,0.0,0.0,0.0,0.0,0.0,0.0,0.0,2.9558,3.1007,3.1763,3.1617,3.0788,2.996,0.0,0.0,0.0,0.0,0.0,0.0,0.0,0.0,0.0,0.0,0.0,0.0,0.0,0.0,0.0,0.0,0.0,0.0,0.0,0.0,0.0,0.0,0.0,0.0,0.0,0.0,0.0,0.0,0.0,0.0,0.0,0.0,0.0,0.0,0.0,0.0,0.0,0.0,0.0,0.0,0.0,0.0,0.0,0.0,0.0,0.0,0.0,0.0,0.0,0.0,0.0,0.0,0.0,0.0,0.0,0.0,0.0,0.0,0.0,0.0,0.0,0.0,0.0,0.0,0.0,0.0,0.0,0.0,0.0,0.0,0.0,0.0,0.0,0.0,0.0,0.0,0.0,0.0,0.0,0.0,0.0,0.0,0.0,0.0,0.0,0.0,0.0,0.0,0.0,0.0,0.0,0.0,0.0,0.0,0.0,0.0,0.0,0.0,0.0,0.0,0.0,0.0,0.0,0.0,0.0,0.0,0.0,0.0,0.0,2.9558,3.1007,3.1763,3.1691,3.0896,3.0309,0.0,0.0,0.0,0.0,0.0,0.0,0.0,0.0,0.0,0.0,0.0,0.0,0.0,0.0,0.0,0.0,0.0,0.0,0.0,0.0,0.0,0.0,0.0,0.0,0.0,0.0,0.0,0.0,0.0,0.0,0.0,0.0,0.0,0.0,0.0,0.0,0.0,0.0,0.0,0.0,0.0,0.0,0.0,0.0,0.0,0.0,0.0,0.0,0.0,0.0,0.0,0.0,0.0,0.0,0.0,0.0,0.0,0.0,0.0,0.0,0.0,0.0,0.0,0.0,0.0,0.0,0.0,0.0,0.0,0.0,0.0,0.0,0.0,0.0,0.0,0.0,0.0,0.0,0.0,0.0,0.0,0.0,0.0,0.0,0.0,0.0,0.0,0.0,0.0,0.0,0.0,0.0,0.0,0.0,0.0,0.0,0.0,0.0,0.0,0.0,0.0,0.0,0.0,0.0,0.0,0.0,0.0,0.0,0.0,3.0593,3.1869,3.2524,3.2524,3.1691,3.1065,0.0,0.0,0.0,0.0,0.0,0.0,0.0,0.0,0.0,0.0,0.0,0.0,0.0,0.0,0.0,0.0,0.0,0.0,0.0,0.0,0.0,0.0,0.0,0.0,0.0,0.0,0.0,0.0,0.0,0.0,0.0,0.0,0.0,0.0,0.0,0.0,0.0,0.0,0.0,0.0,0.0,0.0,0.0,0.0,0.0,0.0,0.0,0.0,0.0,0.0,0.0,0.0,0.0,0.0,0.0,0.0,0.0,0.0,0.0,0.0,0.0,0.0,0.0,0.0,0.0,0.0,0.0,0.0,0.0,0.0,0.0,0.0,0.0,0.0,0.0,0.0,0.0,0.0,0.0,0.0,0.0,0.0,0.0,0.0,0.0,0.0,0.0,0.0,0.0,0.0,0.0,0.0,0.0,0.0,0.0,0.0,0.0,0.0,0.0,0.0,0.0,0.0,0.0,0.0,0.0,0.0,0.0,0.0,3.0696,3.28,3.3628,3.4042,3.4076,3.3274,3.2402,0.0,0.0,0.0,0.0,0.0,0.0,0.0,0.0,0.0,0.0,0.0,0.0,0.0,0.0,0.0,0.0,0.0,0.0,0.0,0.0,0.0,0.0,0.0,0.0,0.0,0.0,0.0,0.0,0.0,0.0,0.0,0.0,0.0,0.0,0.0,0.0,0.0,0.0,0.0,0.0,0.0,0.0,0.0,0.0,0.0,0.0,0.0,0.0,0.0,0.0,0.0,0.0,0.0,0.0,0.0,0.0,0.0,0.0,0.0,0.0,0.0,0.0,0.0,0.0,0.0,0.0,0.0,0.0,0.0,0.0,0.0,0.0,0.0,0.0,0.0,0.0,0.0,0.0,0.0,0.0,0.0,0.0,0.0,0.0,0.0,0.0,0.0,0.0,0.0,0.0,0.0,0.0,0.0,0.0,0.0,0.0,0.0,0.0,0.0,0.0,0.0,0.0,0.0,0.0,0.0,0.0,0.0,0.0,0.0,3.3731,3.4456,3.4869,3.4835,3.4588,3.379,0.0,0.0,0.0,0.0,0.0,0.0,0.0,0.0,0.0,0.0,0.0,0.0,0.0,0.0,0.0,0.0,0.0,0.0,0.0,0.0,0.0,0.0,0.0,0.0,0.0,0.0,0.0,0.0,0.0,0.0,0.0,0.0,0.0,0.0,0.0,0.0,0.0,0.0,0.0,0.0,0.0,0.0,0.0,0.0,0.0,0.0,0.0,0.0,0.0,0.0,0.0,0.0,0.0,0.0,0.0,0.0,0.0,0.0,0.0,0.0,0.0,0.0,0.0,0.0,0.0,0.0,0.0,0.0,0.0,0.0,0.0,0.0,0.0,0.0,0.0,0.0,0.0,0.0,0.0,0.0,0.0,0.0,0.0,0.0,0.0,0.0,0.0,0.0,0.0,0.0,0.0,0.0,0.0,0.0,0.0,0.0,0.0,0.0,0.0,0.0,0.0,0.0,0.0,0.0,0.0,0.0,0.0,0.0,0.0,3.5766,3.6215,3.6456,3.6456,3.5904,3.5001,3.3676,0.0,0.0,0.0,0.0,0.0,0.0,0.0,0.0,0.0,0.0,0.0,0.0,0.0,0.0,0.0,0.0,0.0,0.0,0.0,0.0,0.0,0.0,0.0,0.0,0.0,0.0,0.0,0.0,0.0,0.0,0.0,0.0,0.0,0.0,0.0,0.0,0.0,0.0,0.0,0.0,0.0,0.0,0.0,0.0,0.0,0.0,0.0,0.0,0.0,0.0,0.0,0.0,0.0,0.0,0.0,0.0,0.0,0.0,0.0,0.0,0.0,0.0,0.0,0.0,0.0,0.0,0.0,0.0,0.0,0.0,0.0,0.0,0.0,0.0,0.0,0.0,0.0,0.0,0.0,0.0,0.0,0.0,0.0,0.0,0.0,0.0,0.0,0.0,0.0,0.0,0.0,0.0,0.0,0.0,0.0,0.0,0.0,0.0,0.0,0.0,0.0,0.0,0.0,0.0,0.0,0.0,0.0,0.0,3.8698,3.8767,3.8767,3.8698,3.7284,3.6035,0.0,0.0,0.0,0.0,0.0,0.0,0.0,0.0,0.0,0.0,0.0,0.0,0.0,0.0,0.0,0.0,0.0,0.0,0.0,0.0,0.0,0.0,0.0,0.0,0.0,0.0,0.0,0.0,0.0,0.0,0.0,0.0,0.0,0.0,0.0,0.0,0.0,0.0,0.0,0.0,0.0,0.0,0.0,0.0,0.0,0.0,0.0,0.0,0.0,0.0,0.0,0.0,0.0,0.0,0.0,0.0,0.0,0.0,0.0,0.0,0.0,0.0,0.0,0.0,0.0,0.0,0.0,0.0,0.0,0.0,0.0,0.0,0.0,0.0,0.0,0.0,0.0,0.0,0.0,0.0,0.0,0.0,0.0,0.0,0.0,0.0,0.0,0.0,0.0,0.0,0.0,0.0,0.0,0.0,0.0,0.0,0.0,0.0,0.0,0.0,0.0,0.0,0.0,0.0,0.0,0.0,0.0,0.0,0.0,4.0181,4.0802,4.0836,4.0284,3.9319,3.7663,0.0,0.0,0.0,0.0,0.0,0.0,0.0,0.0,0.0,0.0,0.0,0.0,0.0,0.0,0.0,0.0,0.0,0.0,0.0,0.0,0.0,0.0,0.0,0.0,0.0,0.0,0.0,0.0,0.0,0.0,0.0,0.0,0.0,0.0,0.0,0.0,0.0,0.0,0.0,0.0,0.0,0.0,0.0,0.0,0.0,0.0,0.0,0.0,0.0,0.0,0.0,0.0,0.0,0.0,0.0,0.0,0.0,0.0,0.0,0.0,0.0,0.0,0.0,0.0,0.0,0.0,0.0,0.0,0.0,0.0,0.0,0.0,0.0,0.0,0.0,0.0,0.0,0.0,0.0,0.0,0.0,0.0,0.0,0.0,0.0,0.0,0.0,0.0,0.0,0.0,0.0,0.0,0.0,0.0,0.0,0.0,0.0,0.0,0.0,0.0,0.0,0.0,0.0,0.0,0.0,0.0,0.0,0.0,3.9043,4.1319,4.2388,4.2595,4.1919,4.0457,3.8594,0.0,0.0,0.0,0.0,0.0,0.0,0.0,0.0,0.0,0.0,0.0,0.0,0.0,0.0,0.0,0.0,0.0,0.0,0.0,0.0,0.0,0.0,0.0,0.0,0.0,0.0,0.0,0.0,0.0,0.0,0.0,0.0,0.0,0.0,0.0,0.0,0.0,0.0,0.0,0.0,0.0,0.0,0.0,0.0,0.0,0.0,0.0,0.0,0.0,0.0,0.0,0.0,0.0,0.0,0.0,0.0,0.0,0.0,0.0,0.0,0.0,0.0,0.0,0.0,0.0,0.0,0.0,0.0,0.0,0.0,0.0,0.0,0.0,0.0,0.0,0.0,0.0,0.0,0.0,0.0,0.0,0.0,0.0,0.0,0.0,0.0,0.0,0.0,0.0,0.0,0.0,0.0,0.0,0.0,0.0,0.0,0.0,0.0,0.0,0.0,0.0,0.0,0.0,0.0,0.0,0.0,0.0,0.0,3.9802,4.2078,4.3526,4.3957,4.3197,4.1078,3.9146,0.0,0.0,0.0,0.0,0.0,0.0,0.0,0.0,0.0,0.0,0.0,0.0,0.0,0.0,0.0,0.0,0.0,0.0,0.0,0.0,0.0,0.0,0.0,0.0,0.0,0.0,0.0,0.0,0.0,0.0,0.0,0.0,0.0,0.0,0.0,0.0,0.0,0.0,0.0,0.0,0.0,0.0,0.0,0.0,0.0,0.0,0.0,0.0,0.0,0.0,0.0,0.0,0.0,0.0,0.0,0.0,0.0,0.0,0.0,0.0,0.0,0.0,0.0,0.0,0.0,0.0,0.0,0.0,0.0,0.0,0.0,0.0,0.0,0.0,0.0,0.0,0.0,0.0,0.0,0.0,0.0,0.0,0.0,0.0,0.0,0.0,0.0,0.0,0.0,0.0,0.0,0.0,0.0,0.0,0.0,0.0,0.0,0.0,0.0,0.0,0.0,0.0,0.0,0.0,0.0,0.0,0.0,0.0,4.0595,4.2886,4.3802,4.3957,4.3232,4.2078,4.025,0.0,0.0,0.0,0.0,0.0,0.0,0.0,0.0,0.0,0.0,0.0,0.0,0.0,0.0,0.0,0.0,0.0,0.0,0.0,0.0,0.0,0.0,0.0,0.0,0.0,0.0,0.0,0.0,0.0,0.0,0.0,0.0,0.0,0.0,0.0,0.0,0.0,0.0,0.0,0.0,0.0,0.0,0.0,0.0,0.0,0.0,0.0,0.0,3.9851,0.0,0.0,0.0,0.0,0.0,0.0,0.0,0.0,0.0,0.0,0.0,0.0,0.0,0.0,0.0,0.0,0.0,0.0,0.0,0.0,0.0,0.0,0.0,0.0,0.0,0.0,0.0,0.0,0.0,0.0,0.0,0.0,0.0,0.0,0.0,0.0,0.0,0.0,0.0,0.0,0.0,0.0,0.0,0.0,0.0,0.0,0.0,0.0,0.0,0.0,0.0,0.0,0.0,0.0,0.0,0.0,0.0,0.0,0.0,4.1216,4.3162,4.4251,4.4458,4.3699,4.294,4.1112,0.0,0.0,0.0,0.0,0.0,0.0,0.0,0.0,0.0,0.0,0.0,0.0,0.0,0.0,0.0,0.0,0.0,0.0,0.0,0.0,0.0,0.0,0.0,0.0,0.0,0.0,0.0,0.0,0.0,0.0,0.0,0.0,0.0,0.0,0.0,0.0,0.0,0.0,0.0,0.0,0.0,0.0,0.0,0.0,0.0,0.0,0.0,0.0,0.0,0.0,0.0,0.0,0.0,0.0,0.0,0.0,0.0,0.0,0.0,0.0,0.0,0.0,0.0,0.0,0.0,0.0,0.0,0.0,0.0,0.0,0.0,0.0,0.0,0.0,0.0,0.0,0.0,0.0,0.0,0.0,0.0,0.0,0.0,0.0,0.0,0.0,0.0,0.0,0.0,0.0,0.0,0.0,0.0,0.0,0.0,0.0,0.0,0.0,0.0,0.0,0.0,0.0,0.0,0.0,0.0,0.0,0.0,3.956,4.1802,4.337,4.4699,4.5044,4.4285,4.3611,4.1816,3.887,0.0,0.0,0.0,0.0,0.0,0.0,0.0,0.0,0.0,0.0,0.0,0.0,0.0,0.0,0.0,0.0,0.0,0.0,0.0,0.0,0.0,0.0,0.0,0.0,0.0,0.0,0.0,0.0,0.0,0.0,0.0,0.0,0.0,0.0,0.0,0.0,0.0,0.0,3.9039,3.9681,0.0,0.0,0.0,0.0,0.0,0.0,0.0,0.0,4.0426,0.0,0.0,0.0,0.0,0.0,0.0,0.0,0.0,0.0,0.0,0.0,0.0,0.0,0.0,0.0,0.0,0.0,0.0,0.0,0.0,0.0,0.0,0.0,0.0,0.0,0.0,0.0,0.0,0.0,0.0,0.0,0.0,0.0,0.0,0.0,0.0,0.0,0.0,0.0,0.0,0.0,0.0,0.0,0.0,0.0,0.0,0.0,0.0,0.0,0.0,0.0,0.0,0.0,0.0,0.0,0.0,3.818,4.0595,4.2561,4.4078,4.4975,4.5044,4.432,4.3561,4.2058,3.9595,0.0,0.0,0.0,0.0,0.0,0.0,0.0,0.0,0.0,0.0,0.0,0.0,0.0,0.0,0.0,0.0,0.0,0.0,0.0,0.0,0.0,0.0,0.0,0.0,0.0,0.0,0.0,0.0,0.0,0.0,0.0,0.0,0.0,0.0,0.0,0.0,0.0,0.0,0.0,3.9986,4.0087,0.0,0.0,0.0,0.0,0.0,0.0,0.0,0.0,4.1711,0.0,0.0,0.0,0.0,0.0,0.0,0.0,0.0,0.0,0.0,0.0,0.0,0.0,0.0,0.0,0.0,0.0,0.0,0.0,0.0,0.0,0.0,0.0,0.0,0.0,0.0,0.0,0.0,0.0,0.0,0.0,0.0,0.0,0.0,0.0,0.0,0.0,0.0,0.0,0.0,0.0,0.0,0.0,0.0,0.0,0.0,0.0,0.0,0.0,0.0,0.0,0.0,0.0,0.0,0.0,3.856,4.0836,4.2733,4.4251,4.501,4.5251,4.4872,4.3768,4.2285,0.0,0.0,0.0,0.0,0.0,0.0,0.0,0.0,0.0,0.0,0.0,0.0,0.0,0.0,0.0,0.0,0.0,0.0,0.0,0.0,0.0,0.0,0.0,0.0,0.0,0.0,0.0,0.0,0.0,0.0,0.0,0.0,0.0,0.0,0.0,0.0,0.0,0.0,0.0,0.0,4.0392,4.0663,4.0663,0.0,0.0,0.0,0.0,0.0,0.0,4.2286,4.2185,0.0,0.0,0.0,0.0,0.0,0.0,0.0,0.0,0.0,0.0,0.0,0.0,0.0,0.0,0.0,0.0,0.0,0.0,0.0,0.0,0.0,0.0,0.0,0.0,0.0,0.0,0.0,0.0,0.0,0.0,0.0,0.0,0.0,0.0,0.0,0.0,0.0,0.0,0.0,0.0,0.0,0.0,0.0,0.0,0.0,0.0,0.0,0.0,0.0,0.0,0.0,0.0,0.0,0.0,0.0,3.9008,4.1147,4.2975,4.4458,4.5113,4.5423,4.5389,4.394,4.2457,0.0,0.0,0.0,0.0,0.0,0.0,0.0,0.0,0.0,0.0,0.0,0.0,0.0,0.0,0.0,0.0,0.0,0.0,0.0,0.0,0.0,0.0,0.0,0.0,0.0,0.0,0.0,0.0,0.0,0.0,0.0,0.0,0.0,0.0,0.0,0.0,0.0,0.0,0.0,0.0,0.0,4.1323,4.1459,4.1967,0.0,0.0,0.0,0.0,4.3132,4.32,0.0,0.0,0.0,0.0,0.0,0.0,0.0,0.0,0.0,0.0,0.0,0.0,0.0,0.0,0.0,0.0,0.0,0.0,0.0,0.0,0.0,0.0,0.0,0.0,0.0,0.0,0.0,0.0,0.0,0.0,0.0,0.0,0.0,0.0,0.0,0.0,0.0,0.0,0.0,0.0,0.0,0.0,0.0,0.0,0.0,0.0,0.0,0.0,0.0,0.0,0.0,0.0,0.0,0.0,0.0,0.0,4.056,4.2216,4.3768,4.5216,4.5389,4.5423,4.5423,4.3975,4.2506,0.0,0.0,0.0,0.0,0.0,0.0,0.0,0.0,0.0,0.0,0.0,0.0,0.0,0.0,0.0,0.0,0.0,0.0,0.0,0.0,0.0,0.0,0.0,0.0,0.0,0.0,0.0,0.0,0.0,0.0,0.0,0.0,0.0,0.0,0.0,0.0,0.0,0.0,0.0,0.0,0.0,4.1614,4.226,4.243,4.294,0.0,0.0,4.4756,4.6075,4.6278,0.0,0.0,0.0,0.0,0.0,0.0,0.0,0.0,0.0,0.0,0.0,0.0,0.0,0.0,0.0,0.0,0.0,0.0,0.0,0.0,0.0,0.0,0.0,0.0,0.0,0.0,0.0,0.0,0.0,0.0,0.0,0.0,0.0,0.0,0.0,0.0,0.0,0.0,0.0,0.0,0.0,0.0,0.0,0.0,0.0,0.0,0.0,0.0,0.0,0.0,0.0,0.0,0.0,0.0,0.0,3.7801,4.0802,4.2388,4.3906,4.5354,4.5423,4.5423,4.5423,4.394,4.2679,0.0,0.0,0.0,0.0,0.0,0.0,0.0,0.0,0.0,0.0,0.0,0.0,0.0,0.0,0.0,0.0,0.0,0.0,0.0,0.0,0.0,0.0,0.0,0.0,0.0,0.0,0.0,0.0,0.0,0.0,0.0,0.0,0.0,0.0,0.0,0.0,0.0,0.0,0.0,0.0,0.0,0.0,4.3727,4.4184,0.0,0.0,0.0,4.6075,4.6684,0.0,0.0,0.0,0.0,0.0,0.0,0.0,0.0,0.0,0.0,0.0,0.0,0.0,0.0,0.0,0.0,0.0,0.0,0.0,0.0,0.0,0.0,0.0,0.0,0.0,0.0,0.0,0.0,0.0,0.0,0.0,0.0,0.0,0.0,0.0,0.0,0.0,0.0,0.0,0.0,0.0,0.0,0.0,0.0,0.0,0.0,0.0,0.0,0.0,0.0,0.0,0.0,0.0,0.0,0.0,0.0,0.0,4.0836,4.2437,4.3906,4.5354,4.5423,4.5423,4.5423,4.4147,0.0,0.0,0.0,0.0,0.0,0.0,0.0,0.0,0.0,0.0,0.0,0.0,0.0,0.0,0.0,0.0,0.0,0.0,0.0,0.0,0.0,0.0,0.0,0.0,0.0,0.0,0.0,3.3288,0.0,0.0,0.0,0.0,0.0,0.0,0.0,0.0,0.0,0.0,0.0,0.0,0.0,0.0,4.3659,4.5118,4.5862,4.6499,0.0,0.0,4.7327,4.7361,4.7496,4.7327,0.0,0.0,0.0,0.0,0.0,0.0,0.0,0.0,0.0,0.0,0.0,0.0,0.0,0.0,0.0,0.0,0.0,0.0,0.0,0.0,0.0,0.0,0.0,0.0,0.0,0.0,0.0,0.0,0.0,0.0,0.0,0.0,0.0,0.0,0.0,0.0,0.0,0.0,0.0,0.0,0.0,0.0,0.0,0.0,0.0,0.0,0.0,0.0,0.0,0.0,0.0,0.0,0.0,0.0,0.0,4.0802,4.2437,4.3906,4.5354,4.5423,4.5423,4.5423,4.463,4.3526,0.0,0.0,0.0,0.0,0.0,0.0,0.0,0.0,0.0,0.0,0.0,0.0,0.0,0.0,0.0,0.0,0.0,0.0,0.0,0.0,0.0,0.0,0.0,0.0,0.0,0.0,0.0,0.0,0.0,0.0,0.0,0.0,0.0,0.0,0.0,0.0,0.0,0.0,0.0,0.0,0.0,4.5152,4.6103,4.6691,4.7421,0.0,0.0,4.8849,4.8849,4.9424,4.939,4.8003,0.0,0.0,0.0,0.0,0.0,0.0,0.0,0.0,0.0,0.0,0.0,0.0,0.0,0.0,0.0,0.0,0.0,0.0,0.0,0.0,0.0,0.0,0.0,0.0,0.0,0.0,0.0,0.0,0.0,0.0,0.0,0.0,0.0,0.0,0.0,0.0,0.0,0.0,0.0,0.0,0.0,0.0,0.0,0.0,0.0,0.0,0.0,0.0,0.0,0.0,0.0,0.0,0.0,3.8318,4.0884,4.2437,4.4147,4.6044,4.6148,4.6148,4.6148,4.5389,4.4492,0.0,0.0,0.0,0.0,0.0,0.0,0.0,0.0,0.0,0.0,0.0,0.0,0.0,0.0,0.0,0.0,0.0,0.0,0.0,0.0,0.0,0.0,0.0,0.0,0.0,0.0,0.0,0.0,3.684,3.7483,3.7483,0.0,0.0,0.0,0.0,0.0,0.0,0.0,0.0,0.0,0.0,4.5603,4.6859,4.7569,0.0,0.0,4.9712,4.983,5.0304,5.0202,4.9729,4.8748,4.797,0.0,0.0,0.0,0.0,0.0,0.0,0.0,0.0,0.0,0.0,0.0,0.0,0.0,0.0,0.0,0.0,0.0,0.0,0.0,0.0,0.0,0.0,0.0,0.0,0.0,0.0,0.0,0.0,0.0,0.0,0.0,0.0,0.0,0.0,0.0,0.0,0.0,0.0,0.0,0.0,0.0,0.0,0.0,0.0,0.0,0.0,0.0,0.0,0.0,0.0,0.0,0.0,3.8939,4.1181,4.294,4.4734,4.6562,4.6837,4.6941,4.6906,4.6182,4.5423,0.0,0.0,0.0,0.0,0.0,0.0,0.0,0.0,0.0,0.0,0.0,0.0,0.0,0.0,0.0,0.0,0.0,0.0,0.0,0.0,0.0,0.0,0.0,0.0,0.0,0.0,0.0,0.0,3.7787,3.8328,3.8531,0.0,0.0,0.0,0.0,0.0,0.0,0.0,0.0,0.0,0.0,4.6289,4.7648,4.8504,4.9316,5.0249,5.0634,5.0879,5.1183,5.0947,5.0507,4.9763,0.0,0.0,0.0,0.0,0.0,0.0,0.0,0.0,0.0,0.0,0.0,0.0,0.0,0.0,0.0,0.0,0.0,0.0,0.0,0.0,0.0,0.0,0.0,0.0,0.0,0.0,0.0,0.0,0.0,0.0,2.8887,0.0,0.0,0.0,0.0,0.0,0.0,0.0,0.0,0.0,0.0,0.0,0.0,0.0,0.0,0.0,0.0,0.0,0.0,0.0,0.0,0.0,0.0,3.9698,4.194,4.4182,4.5768,4.6631,4.732,4.77,4.7665,4.6975,4.6217,4.5389,0.0,0.0,0.0,0.0,0.0,0.0,0.0,0.0,0.0,0.0,0.0,0.0,0.0,0.0,0.0,0.0,0.0,0.0,0.0,0.0,0.0,0.0,0.0,0.0,0.0,0.0,3.7922,3.8531,3.9242,0.0,0.0,0.0,0.0,0.0,0.0,0.0,0.0,0.0,0.0,4.6336,4.7512,4.8415,4.9581,5.0317,5.0419,5.1447,5.1995,5.1352,5.1792,5.2029,0.0,0.0,0.0,0.0,0.0,0.0,0.0,0.0,0.0,0.0,0.0,0.0,0.0,0.0,0.0,0.0,0.0,0.0,0.0,0.0,0.0,0.0,0.0,0.0,0.0,0.0,0.0,3.0408,3.0297,0.0,0.0,0.0,0.0,0.0,0.0,0.0,0.0,0.0,0.0,0.0,3.518,3.5456,0.0,0.0,0.0,0.0,0.0,0.0,0.0,0.0,0.0,0.0,0.0,0.0,4.0733,4.2009,4.4251,4.6044,4.732,4.8079,4.8459,4.8424,4.8217,4.7251,4.544,0.0,0.0,0.0,0.0,0.0,0.0,0.0,0.0,0.0,0.0,0.0,0.0,0.0,0.0,0.0,0.0,0.0,0.0,0.0,0.0,0.0,0.0,0.0,0.0,0.0,3.8787,0.0,0.0,0.0,0.0,0.0,0.0,0.0,0.0,0.0,0.0,0.0,4.4892,4.5699,4.7158,4.8333,4.8933,4.9801,5.0663,0.0,0.0,0.0,0.0,0.0,0.0,0.0,0.0,0.0,0.0,0.0,0.0,0.0,0.0,5.0608,4.8646,4.8274,4.8409,4.8883,0.0,0.0,0.0,0.0,0.0,0.0,0.0,0.0,0.0,0.0,0.0,0.0,0.0,0.0,3.2293,0.0,3.2121,0.0,0.0,0.0,0.0,0.0,0.0,0.0,0.0,3.7016,3.7585,3.787,3.7905,3.7905,0.0,3.7905,3.687,0.0,0.0,0.0,0.0,0.0,0.0,0.0,0.0,4.1905,4.3216,4.5182,4.6837,4.8079,4.8838,4.9252,4.9252,4.8976,4.801,4.6286,4.5216,4.4009,0.0,0.0,0.0,0.0,0.0,0.0,0.0,0.0,0.0,0.0,0.0,0.0,0.0,0.0,0.0,0.0,0.0,0.0,0.0,0.0,0.0,0.0,0.0,4.0205,0.0,0.0,0.0,0.0,0.0,0.0,0.0,0.0,0.0,4.4062,4.4818,4.5794,4.7147,4.8138,4.9129,4.9875,0.0,0.0,0.0,0.0,0.0,0.0,0.0,5.3484,5.3484,5.3484,5.3585,5.3822,5.4296,5.4735,5.4972,0.0,0.0,5.1116,5.0574,5.0777,5.1522,5.1657,5.2097,5.3585,5.3856,5.4093,0.0,0.0,0.0,0.0,0.0,0.0,0.0,0.0,3.4871,3.4871,0.0,3.4693,0.0,0.0,0.0,0.0,0.0,3.6162,0.0,0.0,3.9179,4.0075,4.0905,4.0905,4.094,4.0974,4.0974,4.0974,4.0802,3.8043,0.0,0.0,0.0,0.0,0.0,0.0,4.3182,4.532,4.6906,4.8114,4.8803,4.9597,5.0011,4.9976,4.9286,4.8528,4.7734,4.632,4.5492,4.5354,4.263,0.0,0.0,0.0,0.0,0.0,0.0,0.0,0.0,0.0,0.0,0.0,0.0,0.0,0.0,0.0,0.0,0.0,0.0,0.0,0.0,4.1283,0.0,0.0,0.0,0.0,0.0,0.0,0.0,0.0,0.0,0.0,4.5082,4.5626,4.6873,4.9206,0.0,0.0,0.0,0.0,5.2401,5.2435,5.3653,5.4634,5.4634,5.5243,5.5716,5.5716,0.0,0.0,5.6765,5.69,5.7103,5.7814,5.7881,5.707,5.4262,5.3687,5.3856,5.4566,5.4735,5.5243,5.6528,5.6799,5.7036,3.8602,0.0,0.0,0.0,0.0,3.7394,3.7416,3.7502,3.7609,3.7662,3.7576,3.7469,0.0,0.0,0.0,0.0,0.0,0.0,3.9662,4.0172,4.1206,4.1886,4.2343,4.2309,4.2668,4.3285,4.332,4.3595,4.4078,4.3251,4.1733,3.9629,0.0,0.0,0.0,0.0,4.4768,4.544,4.7458,4.8596,4.8803,4.9597,5.0011,5.0011,4.9804,4.9321,4.8528,4.8079,4.7113,4.544,4.4596,0.0,0.0,0.0,0.0,0.0,0.0,0.0,0.0,0.0,0.0,0.0,0.0,0.0,0.0,0.0,0.0,0.0,0.0,0.0,4.113,4.1455,4.1577,0.0,0.0,0.0,0.0,0.0,0.0,0.0,0.0,0.0,4.8436,4.8421,4.8719,0.0,0.0,5.1919,5.2806,5.345,5.4126,5.4668,5.5108,0.0,5.5412,5.6021,5.6494,5.6494,5.7374,5.8321,5.9032,5.9167,5.9201,5.9438,5.9471,5.9167,5.8423,5.734,5.6968,5.7543,5.7746,5.8051,5.8896,5.9167,5.9235,4.201,4.1161,4.017,3.9787,3.9671,4.0021,4.0177,4.0177,4.0,3.987,3.987,3.952,3.9105,3.8715,3.908,0.0,0.0,0.0,4.1156,4.2055,4.2745,4.3579,4.4483,4.4536,4.4917,4.5524,4.5524,4.5818,4.6355,4.632,4.5423,4.363,0.0,0.0,4.3837,4.5216,4.6182,4.6803,4.8114,4.8976,4.9286,4.9769,5.0011,5.0011,5.0011,4.9804,4.9321,4.8976,4.8183,4.6837,4.6217,4.5061,0.0,0.0,0.0,0.0,0.0,0.0,0.0,0.0,0.0,0.0,0.0,3.6481,0.0,0.0,0.0,0.0,4.1554,4.2508,4.3215,4.3105,0.0,0.0,0.0,0.0,0.0,0.0,0.0,4.797,4.8748,4.9796,5.1251,5.1383,5.138,5.1549,5.2634,5.3652,5.4296,0.0,5.5615,5.6089,5.6664,5.7002,5.7036,5.7645,5.8118,5.8118,5.8829,5.981,6.0825,6.1028,6.1231,6.1738,6.1907,6.1873,6.1907,6.1129,6.0452,6.0385,6.0622,6.1028,6.1738,6.1873,6.1873,4.5017,4.4789,4.2778,4.1905,4.1873,4.252,4.2716,4.2747,4.2099,4.184,4.1776,4.1128,4.0836,4.0836,4.0772,0.0,4.1016,4.1161,4.2235,4.3939,4.4056,4.511,4.6893,4.6927,4.7169,4.7523,4.758,4.767,4.7817,4.7907,4.7907,4.7872,4.6493,4.6113,4.6665,4.6769,4.7458,4.8803,4.8872,4.9286,4.9976,5.008,5.008,5.0114,5.0149,5.0149,5.008,4.939,4.8941,4.8803,4.7527,4.637,4.5436,0.0,0.0,0.0,0.0,0.0,0.0,0.0,0.0,0.0,0.0,0.0,0.0,0.0,0.0,0.0,4.3812,0.0,4.5788,4.5728,0.0,0.0,0.0,4.7009,4.7521,4.8316,4.9181,5.0308,0.0,0.0,5.3585,5.4397,5.46,5.4025,5.4465,5.5141,5.5886,5.663,5.707,5.7137,5.822,5.9066,5.8998,5.9674,6.025,6.0351,6.0419,6.1095,6.2279,6.255,6.3125,6.4174,6.458,6.4512,6.458,6.4377,6.4275,6.2888,6.3091,6.3734,6.4241,6.4343,6.4309,4.4853,4.4853,4.4787,4.4496,4.4043,4.4204,4.4269,4.4269,4.4107,4.401,4.401,4.3848,4.3783,4.3751,4.3201,4.3233,4.3848,4.4007,4.436,4.4973,4.5098,4.5573,4.6394,4.6394,4.6937,4.7894,4.807,4.8494,4.9217,4.9401,4.9459,4.9424,4.9114,4.8424,4.7527,4.801,4.8459,4.8838,4.9424,4.9804,5.0011,5.0562,5.0873,5.0838,5.139,5.1425,5.0873,5.0666,5.0011,4.8872,4.8459,4.7885,4.7128,4.5539,0.0,0.0,0.0,0.0,0.0,0.0,0.0,0.0,0.0,3.8756,4.0554,0.0,4.219,0.0,4.4885,4.616,4.6747,4.6845,0.0,0.0,4.7501,4.8394,4.936,5.0359,5.1564,5.3179,5.3619,5.4363,5.5818,5.6664,5.7273,5.7645,5.734,5.7374,5.8118,5.8863,5.9336,5.9336,5.9607,5.9844,6.0013,6.0994,6.2042,6.2618,6.3125,6.3666,6.4005,6.4072,6.4208,6.4546,6.4613,6.4613,6.4647,6.5019,6.529,6.4952,6.4613,6.441,6.458,6.4613,6.4613,4.5726,4.5759,4.6115,4.605,4.5726,4.5726,4.5726,4.5694,4.537,4.5241,4.5208,4.4917,4.4787,4.4787,4.4366,4.4431,4.4787,4.4886,4.5212,4.5636,4.5701,4.6189,4.6869,4.6932,4.7646,4.8849,4.9093,4.9744,5.0704,5.0917,5.0976,5.0976,5.0976,5.0562,4.9769,4.9804,5.0011,5.0355,5.0769,5.1011,5.1011,5.139,5.1597,5.1597,5.2011,5.2011,5.1632,5.1597,5.1218,5.039,5.0011,4.9493,4.8769,4.7507,4.6378,0.0,0.0,0.0,0.0,0.0,0.0,0.0,0.0,0.0,0.0,0.0,4.4204,4.5921,4.7156,4.8167,4.9023,4.8907,4.8907,4.9017,4.974,5.0641,5.1938,5.2881,5.4066,5.5564,5.6145,5.6795,5.7712,5.8423,5.9167,5.9911,5.9674,5.9438,5.9539,6.0148,6.0622,6.0622,6.1197,6.1772,6.2042,6.2821,6.3497,6.3937,6.4343,6.4715,6.5019,6.5087,6.5189,6.5493,6.5595,6.5595,6.5595,6.5899,6.617,6.6136,6.5865,6.5628,6.5595,6.5595,6.5595,4.6892,4.6892,4.6892,4.6892,4.6892,4.6892,4.6892,4.6828,4.6212,4.5953,4.5921,4.5305,4.5046,4.5046,4.5046,4.5046,4.5079,4.5079,4.5502,4.6352,4.6318,4.6878,4.7901,4.8067,4.8795,4.985,5.0236,5.0924,5.1912,5.2096,5.2157,5.2218,5.2218,5.2252,5.2321,5.1735,5.1666,5.2183,5.2218,5.2218,5.2218,5.2321,5.2356,5.239,5.2459,5.2459,5.2356,5.2356,5.2321,5.2218,5.1597,5.0942,5.0321,4.9528,4.8414,0.0,4.651,0.0,0.0,0.0,0.0,0.0,0.0,0.0,0.0,4.5162,4.6389,4.9079,4.9844,5.0629,5.1642,5.1468,5.1456,5.1869,5.2365,5.3246,5.4557,5.5435,5.6435,5.7633,5.8387,5.8942,5.9227,5.9877,6.0554,6.1264,6.1467,6.1332,6.0791,6.1197,6.1637,6.1603,6.2753,6.3632,6.4208,6.4546,6.4715,6.4715,6.4918,6.5087,6.573,6.5933,6.6203,6.6779,6.7015,6.7117,6.7117,6.7117,6.7117,6.7151,6.7151,6.7083,6.6914,6.688,6.6981,4.6892,4.6892,4.6892,4.6892,4.6892,4.6892,4.6892,4.686,4.673,4.6698,4.6666,4.6536,4.6471,4.6504,4.6471,4.6504,4.6504,4.6471,4.6892,4.7675,4.7675,4.8102,4.8963,4.9066,4.9411,5.0058,5.0393,5.0919,5.16,5.1912,5.2096,5.2218,5.2218,5.2528,5.3149,0.0,0.0,0.0,5.2218,5.2218,5.2218,5.2839,5.3184,5.3184,5.377,0.0,5.3218,5.3184,5.2873,5.2252,5.208,0.0,0.0,0.0,0.0,0.0,0.0,0.0,0.0,0.0,0.0,0.0,4.8805,4.8382,4.7782,4.8552,4.9592,5.0753,5.1802,5.2667,5.3455,5.3954,5.4309,5.4422,5.492,5.5569,5.6059,5.7215,5.8144,5.8628,5.9231,5.9843,6.0459,6.084,6.1366,6.2076,6.2719,6.3024,6.2854,6.2922,6.3091,6.3159,6.3869,6.4444,6.458,6.5121,6.5493,6.5527,6.6034,6.6406,6.6609,6.7117,6.7455,6.7692,6.8233,6.8639,6.8639,6.8673,6.8571,6.8673,6.8639,6.847,6.7827,6.7692,6.7861,4.6892,0.0,4.6892,4.6892,0.0,4.6892,4.6892,4.6892,4.6892,4.6892,4.6892,4.6892,4.7087,4.7443,4.7443,4.7605,4.7929,4.7929,4.8123,4.8512,4.8512,4.8777,4.9174,4.9245,4.9725,5.0545,5.0993,5.1597,5.2431,5.2917,5.3135,5.3232,5.3294,5.3563,5.3942,5.3942,5.3736,5.3356,5.3356,5.3356,5.3356,5.3736,5.3942,5.3977,5.4287,0.0,0.0,0.0,0.0,0.0,0.0,0.0,0.0,0.0,0.0,5.2585,5.2118,5.1691,5.1248,5.1228,5.1493,5.1987,5.266,5.2313,5.0621,5.12,5.2086,5.3267,5.3879,5.4525,5.5313,5.5697,5.5805,5.5922,5.6125,5.6531,5.7345,5.8092,5.8871,5.9729,6.0284,6.0818,6.1391,6.2021,6.2516,6.2922,6.3599,6.4038,6.4038,6.4038,6.414,6.4512,6.485,6.5256,6.5628,6.5933,6.6237,6.6339,6.6846,6.7286,6.7354,6.7963,6.847,6.8538,6.8842,6.9079,6.9079,6.9079,6.9079,6.9079,6.9079,6.9316,6.9383,6.9011,6.8605,4.6892,4.6892,4.6892,4.6892,4.6892,4.6892,4.6957,4.7087,0.0,0.0,0.0,4.7216,4.7605,4.8188,4.8188,4.8479,4.903,4.903,4.9094,4.9224,4.9192,4.9289,4.9418,4.9563,5.0144,5.1059,5.1552,5.2369,5.3281,5.3815,5.4076,5.4239,5.4367,5.4465,5.4529,5.4494,5.4494,5.4494,5.4494,5.4494,5.4494,5.4494,5.4494,5.4494,5.4632,5.4701,5.4701,5.4839,5.4908,5.4908,5.4356,5.4287,5.4839,5.4322,5.4259,5.4853,5.4922,5.473,5.4364,5.4226,5.4372,5.481,5.5586,5.5197,5.3341,5.3386,5.4103,5.5415,5.5693,5.6098,5.6878,5.6917,5.6981,5.7189,5.6981,5.7204,5.8189,5.8549,5.9177,6.0332,6.0986,6.1532,6.2119,6.2818,6.3518,6.3768,6.4343,6.4884,6.4918,6.4884,6.5053,6.5662,6.5865,6.6102,6.6609,6.6948,6.6981,6.7015,6.7624,6.8098,6.8199,6.8774,6.9248,6.9282,6.9451,6.9755,6.9755,6.9992,6.9857,6.9857,6.9891,7.0229,7.1244,7.077,7.0026,4.6892,4.6892,4.6892,4.6892,4.6892,4.6892,4.7249,4.7831,4.7864,4.7864,4.7896,4.8447,4.8771,4.8868,4.8868,4.8933,4.903,4.903,4.9354,4.9969,4.9936,5.0293,5.0876,5.095,5.109,5.141,5.1816,5.2279,5.2972,5.3382,5.3749,5.4175,5.4239,5.4338,5.4529,5.4494,5.4494,5.4494,5.4494,5.4494,5.4494,5.4494,5.4494,5.4529,5.515,5.546,5.546,5.6115,5.6495,5.646,5.6391,5.6357,5.646,5.6391,5.6667,5.729,5.7259,5.7398,5.7737,5.7881,5.7763,5.7364,5.7001,5.6349,5.5485,5.5423,5.5543,5.5763,5.6478,5.6947,5.7195,5.782,5.8228,5.826,5.8142,5.8205,5.851,5.887,5.9346,6.0033,6.0717,6.1518,6.2464,6.306,6.3708,6.4329,6.5087,6.573,6.6136,6.5967,6.5899,6.644,6.6643,6.6711,6.6914,6.7387,6.7692,6.776,6.8402,6.891,6.891,6.962,7.0094,7.006,7.1007,7.1718,7.1853,7.2462,7.2529,7.2529,7.2496,7.2732,7.3037,7.2834,7.2766,4.6892,4.6892,4.6892,4.7119,4.7508,4.7896,4.8252,4.8576,4.8997,4.8933,4.8609,4.89,4.9224,4.9613,4.9613,4.9839,5.0196,5.0196,5.0357,5.0681,5.0681,5.0843,5.1167,5.1199,5.1275,5.1499,5.1835,5.2395,5.319,5.3784,5.4364,5.5075,5.5475,5.5671,5.577,5.5736,5.5736,5.5736,5.5322,5.5115,5.5115,5.5529,5.5736,5.577,5.6115,5.6253,5.6253,5.6598,5.6805,5.6805,5.7185,5.7564,5.7978,5.8392,5.8978,5.9702,5.9702,5.9629,5.9686,5.9472,5.9065,5.8521,5.8226,5.7884,5.7356,5.6757,5.6521,5.6898,5.7243,5.74,5.74,5.7776,5.8058,5.8058,5.8058,5.815,5.8243,5.861,5.9312,6.0081,6.0848,6.1659,6.2898,6.3869,6.4454,6.5057,6.5748,6.644,6.6779,6.688,6.6846,6.688,6.7151,6.7387,6.7455,6.803,6.847,6.8571,6.918,6.962,6.9755,7.0567,7.1278,7.1447,7.2293,7.2902,7.3003,7.324,7.3443,7.3477,7.3477,7.3578,7.395,7.439,7.439,4.6892,4.6892,4.6892,4.7313,4.8091,4.8933,4.9256,4.9354,5.0034,5.0034,4.9548,4.9515,4.9807,5.0325,5.0357,5.0649,5.1135,5.1199,5.1167,5.1199,5.1199,5.1199,5.1199,5.1199,5.134,5.162,5.1991,5.2573,5.3599,5.4347,5.5108,5.5962,5.6505,5.6805,5.6805,5.6805,5.6805,5.6771,5.6357,5.6046,5.5908,5.6495,5.6805,5.6805,5.6978,5.7047,5.7047,5.7391,5.7564,5.7598,5.8288,5.8944,5.9495,6.0116,6.0771,6.1461,6.1565,6.1418,6.1075,6.047,5.9861,5.9133,5.9009,5.8882,5.8455,5.7677,5.7275,5.7777,5.7621,5.7464,5.7559,5.7559,5.759,5.759,5.7778,5.8059,5.8278,5.8588,5.9302,6.0489,6.1158,6.195,6.3285,6.4486,6.5312,6.575,6.6525,6.7049,6.7117,6.7692,6.7861,6.7658,6.7827,6.8132,6.8199,6.8808,6.9282,6.935,7.0128,7.0635,7.0939,7.1819,7.2529,7.2665,7.3206,7.368,7.3747,7.3916,7.4052,7.4119,7.4153,7.4322,7.5067,7.554,7.554,4.6892,4.6892,4.6892,4.7313,4.8188,4.9451,5.0001,5.0098,5.0746,5.107,5.0908,5.1005,5.0973,5.107,5.107,5.1102,5.1199,5.1199,5.1199,5.1199,5.1199,5.1199,5.1199,5.1199,5.1523,5.2118,5.2335,5.3105,5.4096,5.4649,5.5261,5.6133,5.6572,5.684,5.684,5.684,5.684,5.6805,5.7391,5.7357,5.6736,5.6771,5.6805,5.6805,5.746,5.7805,5.7874,5.915,5.9875,5.9944,6.0565,6.0978,6.1082,6.1151,6.1565,6.2324,6.2393,6.2341,6.2087,6.1346,6.052,5.9729,5.9177,5.8824,5.8367,5.8026,5.7777,5.7903,5.7715,5.7495,5.7495,5.7715,5.7872,5.7966,5.8215,5.8527,5.9064,5.941,6.0036,6.117,6.1601,6.2313,6.3804,6.4594,6.5325,6.6475,6.7167,6.7726,6.7861,6.847,6.8977,6.8876,6.8977,6.9011,6.9079,6.962,7.006,7.0229,7.1244,7.1887,7.2191,7.2732,7.3375,7.3477,7.4018,7.4458,7.4661,7.4965,7.5371,7.5371,7.5439,7.5709,7.6454,7.6724,7.6386,4.6892,4.6925,4.7378,4.822,4.9321,5.0325,5.0746,5.0778,5.107,5.1199,5.1199,5.1199,5.1199,5.1199,5.1199,5.1199,5.1199,5.1199,5.1199,5.1199,5.1199,5.1394,5.175,5.1782,5.2171,5.2819,5.316,5.3782,5.4744,5.5888,5.6824,5.7464,5.7844,5.798,5.8116,5.8116,5.8116,5.8116,5.8875,5.9081,5.8771,5.8357,5.8116,5.8185,5.884,5.9254,5.9357,6.0289,6.084,6.0909,6.1599,6.2013,6.2013,6.2427,6.2806,6.3117,6.2896,6.2658,6.2279,6.148,6.0685,5.9914,5.9331,5.8824,5.855,5.8622,5.8688,5.8656,5.8029,5.762,5.8057,5.8215,5.8466,5.8811,5.9096,5.9412,5.9664,5.9918,6.0455,6.147,6.1974,6.2696,6.4047,6.5017,6.6048,6.7116,6.776,6.815,6.8676,6.9335,6.9775,6.9964,7.0182,7.0161,6.9958,7.0364,7.0939,7.1447,7.1954,7.2462,7.3071,7.3646,7.4153,7.4153,7.4728,7.5168,7.5236,7.5439,7.5777,7.6149,7.686,7.7164,7.7468,7.7536,7.7333,4.7022,4.7313,4.8188,4.9159,5.0163,5.0876,5.1199,5.1199,5.1199,5.1199,5.1199,5.1199,5.1199,5.1199,5.1199,5.1199,5.1199,5.1199,5.1297,5.1426,5.1459,5.1847,5.2462,5.2495,5.2916,5.3531,5.3909,5.4579,5.5501,5.6838,5.7881,5.8419,5.8836,5.915,5.9357,5.9495,5.9633,5.9702,6.022,6.0496,6.0427,5.9944,5.9633,5.9702,6.0185,6.0496,6.053,6.122,6.1634,6.1634,6.2358,6.2772,6.2806,6.3324,6.36,6.3526,6.3152,6.2736,6.2234,6.1599,6.0981,6.0326,5.9871,5.9548,5.9278,5.9473,5.9664,5.9538,5.8814,5.8529,5.8808,5.8933,5.9183,5.9687,5.9847,6.0007,6.0292,6.0517,6.1058,6.2013,6.2523,6.3221,6.4583,6.569,6.6872,6.7892,6.8436,6.8845,6.9628,7.0255,7.0799,7.109,7.1457,7.1435,7.0939,7.121,7.1921,7.2496,7.2868,7.3308,7.3747,7.4424,7.4897,7.4965,7.5439,7.5811,7.598,7.6115,7.6318,7.7029,7.7638,7.8077,7.8247,7.828,7.8416,4.7313,4.8123,4.9418,5.0001,5.0196,5.0876,5.1199,5.1199,5.1199,5.1199,5.1199,5.1232,5.1199,5.1232,5.1297,5.1199,5.1199,5.1232,5.1588,5.2106,5.2171,5.256,5.324,5.3272,5.3661,5.4308,5.4579,5.53,5.6581,5.7289,5.7808,5.8311,5.9279,5.9906,6.022,6.0737,6.1151,6.1047,6.1185,6.1254,6.1289,6.122,6.1185,6.122,6.122,6.1254,6.1323,6.2013,6.2427,6.2461,6.3117,6.3531,6.3531,6.3565,6.3526,6.3302,6.2923,6.2537,6.2131,6.185,6.1534,6.1141,6.1148,6.111,6.0516,6.0582,6.0456,6.0265,6.0138,6.0074,5.9975,5.9781,5.9781,6.0069,6.0038,6.0449,6.1179,6.134,6.1851,6.2747,6.3132,6.4028,6.5739,6.6689,6.7502,6.8526,6.9674,7.0342,7.0599,7.1299,7.1947,7.2369,7.2586,7.2564,7.2384,7.2293,7.2631,7.324,7.3815,7.439,7.4762,7.51,7.5405,7.5642,7.5811,7.6115,7.6623,7.7029,7.7299,7.7739,7.8077,7.845,7.8957,7.9058,7.916,4.8285,4.9386,4.9872,5.0357,5.0811,5.107,5.1199,5.1199,5.1199,5.1199,5.1264,5.162,5.1847,5.1847,5.2333,5.2268,5.1847,5.1815,5.2236,5.2851,5.2916,5.3304,5.3952,5.4017,5.4373,5.4956,5.5295,5.5903,5.6867,5.7682,5.8444,5.9166,5.9959,6.0553,6.0873,6.1185,6.1323,6.1358,6.1772,6.2082,6.2117,6.253,6.2772,6.2737,6.2289,6.2048,6.2048,6.2806,6.3186,6.3186,6.3462,6.36,6.36,6.36,6.3526,6.3302,6.2923,6.2662,6.2427,6.2065,6.1862,6.1792,6.1569,6.1427,6.1087,6.1217,6.1313,6.1152,6.1435,6.1558,6.1495,6.1113,6.0921,6.12,6.1361,6.1491,6.1775,6.1968,6.226,6.2905,6.3742,6.4993,6.6396,6.7273,6.8115,6.9267,7.008,7.0716,7.1401,7.2224,7.2839,7.3201,7.3523,7.3821,7.4092,7.3434,7.3341,7.3916,7.4492,7.483,7.5202,7.5371,7.5608,7.5879,7.6048,7.6521,7.7096,7.7976,7.8247,7.8551,7.8855,7.916,7.9735,7.9634,7.9803,4.9224,5.0066,5.0357,5.0746,5.1167,5.1199,5.1199,5.1232,5.1426,5.1523,5.1653,5.2236,5.256,5.2624,5.311,5.3207,5.2883,5.2689,5.2981,5.3628,5.3661,5.4049,5.4632,5.4729,5.4956,5.5426,5.5766,5.6422,5.7353,5.816,5.895,5.9814,6.0711,6.138,6.1631,6.191,6.2048,6.2151,6.2599,6.2841,6.291,6.3324,6.36,6.3531,6.3117,6.2841,6.2841,6.3324,6.36,6.36,6.36,6.36,6.36,6.36,6.3555,6.3494,6.3144,6.2978,6.3082,6.2709,6.2464,6.2566,6.2404,6.2163,6.2009,6.2141,6.2076,6.2041,6.2098,6.2446,6.2351,6.2003,6.181,6.2022,6.2216,6.2216,6.2116,6.2536,6.3055,6.3736,6.4707,6.5964,6.7217,6.791,6.886,6.9951,7.0792,7.164,7.2414,7.3152,7.3856,7.4184,7.4576,7.4889,7.5126,7.4712,7.4416,7.4796,7.4897,7.527,7.5506,7.5676,7.5912,7.6115,7.6521,7.7029,7.7773,7.872,7.9194,7.9431,7.96,7.9803,8.0073,8.0141,8.0175,5.0066,5.026,5.0876,5.1135,5.1199,5.1199,5.1199,5.1361,5.1879,5.2139,5.23,5.3013,5.3304,5.3337,5.3499,5.3758,5.4114,5.3693,5.379,5.4373,5.4405,5.4729,5.5312,5.5312,5.5377,5.5588,5.5959,5.6909,5.8163,5.8715,5.943,6.0523,6.1645,6.2243,6.2496,6.3048,6.3462,6.3427,6.3462,6.3531,6.36,6.3565,6.36,6.36,6.3531,6.3496,6.3531,6.3565,6.36,6.36,6.36,6.36,6.3703,6.3772,6.3864,6.4102,6.3702,6.3559,6.3852,6.3715,6.3481,6.3596,6.3784,6.3671,6.3322,6.3132,6.3004,6.2712,6.258,6.2446,6.2446,6.2383,6.2351,6.2315,6.2216,6.2216,6.2504,6.3078,6.3943,6.4953,6.5705,6.6615,6.7716,6.8611,6.9469,7.0781,7.1987,7.2961,7.3411,7.4203,7.5013,7.5441,7.5626,7.5879,7.5993,7.6088,7.5832,7.5737,7.554,7.5642,7.5879,7.6048,7.642,7.669,7.7232,7.7773,7.8653,7.9498,7.9735,7.9972,8.0175,8.0209,8.0209,8.0209,8.0209,5.039,5.0843,5.107,5.1199,5.1199,5.1199,5.1426,5.1879,5.2139,5.2495,5.3045,5.3758,5.4082,5.4179,5.4535,5.4859,5.5053,5.4859,5.4891,5.5053,5.5086,5.5183,5.5377,5.5409,5.5832,5.658,5.708,5.7963,5.9175,6.0131,6.0917,6.1673,6.2507,6.2999,6.322,6.3496,6.36,6.36,6.36,6.36,6.36,6.36,6.36,6.36,6.36,6.36,6.36,6.36,6.36,6.36,6.36,6.3807,6.4324,6.4876,6.5103,6.5113,6.4721,6.4546,6.4774,6.4428,6.4299,6.4425,6.442,6.4146,6.3865,6.358,6.3293,6.2905,6.271,6.2612,6.2446,6.2446,6.241,6.2116,6.2216,6.2499,6.3003,6.3773,6.4843,6.5884,6.6345,6.7165,6.8372,6.9244,7.0203,7.1522,7.2564,7.3406,7.4219,7.5082,7.574,7.5997,7.6252,7.6506,7.6508,7.6505,7.6326,7.6137,7.6042,7.6048,7.6251,7.6555,7.6927,7.7435,7.7976,7.8619,7.9498,7.9938,8.0141,8.0209,8.0209,8.0209,8.0209,8.0276,8.0378,5.0778,5.1167,5.1199,5.1199,5.1232,5.1426,5.1782,5.2268,5.2786,5.3272,5.3823,5.447,5.4794,5.4859,5.5247,5.5377,5.5409,5.5409,5.5409,5.5409,5.5409,5.5409,5.5474,5.5897,5.6515,5.7376,5.8117,5.912,6.0367,6.1147,6.1824,6.2576,6.3136,6.3417,6.36,6.36,6.36,6.36,6.36,6.36,6.36,6.36,6.36,6.36,6.36,6.3738,6.3945,6.4014,6.4014,6.4083,6.4255,6.4669,6.5152,6.56,6.5937,6.5945,6.5699,6.5535,6.5716,6.534,6.5072,6.5237,6.4885,6.4518,6.424,6.3959,6.358,6.3196,6.329,6.3221,6.3055,6.3209,6.3173,6.3003,6.2883,6.3199,6.3854,6.4626,6.5574,6.6454,6.7052,6.791,6.9157,7.0004,7.097,7.2447,7.3402,7.4213,7.5043,7.5962,7.6238,7.6533,7.6755,7.6871,7.6793,7.6816,7.6812,7.6598,7.638,7.655,7.6657,7.7096,7.7536,7.828,7.8855,7.9261,8.004,8.0073,8.0209,8.0209,8.0242,8.0378,8.0479,8.0682,8.0851,5.1167,5.1199,5.1199,5.1232,5.1361,5.1879,5.2268,5.2592,5.3693,5.4341,5.4567,5.5053,5.5345,5.5377,5.5377,5.5409,5.5409,5.5409,5.5491,5.5523,5.5588,5.5767,5.5913,5.6824,5.7621,5.825,5.9187,6.0247,6.1452,6.1858,6.2432,6.3165,6.3457,6.36,6.36,6.36,6.36,6.36,6.36,6.36,6.36,6.36,6.36,6.36,6.3703,6.4014,6.4496,6.4807,6.4876,6.4876,6.5462,6.5842,6.5945,6.5979,6.6385,6.678,6.6576,6.6562,6.6693,6.6305,6.6029,6.5834,6.5425,6.5066,6.4793,6.4463,6.4153,6.3805,6.4159,6.4218,6.4147,6.4366,6.4647,6.457,6.4026,6.4279,6.5322,6.5678,6.6202,6.7061,6.7727,6.8493,7.0108,7.0921,7.215,7.3535,7.4639,7.5365,7.6045,7.6637,7.7085,7.7189,7.7154,7.7306,7.7228,7.7285,7.7408,7.7631,7.7448,7.743,7.7502,7.7942,7.8348,7.9092,7.9498,7.9938,8.0175,8.0209,8.0209,8.0209,8.0344,8.0615,8.0885,8.1088,8.146,5.1199,5.1199,5.1199,5.1459,5.1912,5.2139,5.2851,5.379,5.4211,5.4729,5.5086,5.5312,5.5409,5.5409,5.5409,5.5409,5.5523,5.5637,5.5685,5.5864,5.6595,5.692,5.7164,5.8157,5.9152,5.998,6.0637,6.1673,6.2734,6.2809,6.3062,6.3526,6.3526,6.36,6.36,6.36,6.36,6.36,6.36,6.36,6.36,6.3634,6.36,6.3634,6.4117,6.4496,6.4841,6.5807,6.6117,6.5669,6.629,6.6704,6.6738,6.7152,6.7497,6.7591,6.7456,6.7444,6.7407,6.7112,6.6779,6.6558,6.6129,6.5658,6.5246,6.5286,6.5049,6.4866,6.5094,6.5218,6.5052,6.5144,6.5363,6.5574,6.5274,6.5235,6.5678,6.6226,6.6815,6.742,6.8248,6.9346,7.0503,7.1679,7.2976,7.4432,7.5299,7.5935,7.6617,7.6947,7.7223,7.7223,7.7292,7.7637,7.7822,7.7881,7.8074,7.8597,7.8723,7.8748,7.8887,7.9126,7.9498,7.9972,7.987,8.0141,8.0175,8.0209,8.0209,8.0344,8.0784,8.119,8.1393,8.1596,8.2035,5.1199,5.1232,5.1491,5.1815,5.2268,5.2851,5.3628,5.4341,5.4729,5.5134,5.5458,5.5604,5.5604,5.5653,5.5653,5.5653,5.5799,5.6253,5.6577,5.6821,5.8157,5.8582,5.8661,5.9443,6.0404,6.1197,6.1953,6.2665,6.3158,6.3377,6.3526,6.36,6.36,6.36,6.36,6.36,6.36,6.36,6.36,6.36,6.36,6.391,6.4048,6.422,6.4772,6.529,6.5773,6.6842,6.7118,6.6669,6.7014,6.7463,6.7463,6.7842,6.8083,6.8083,6.7925,6.7845,6.7799,6.7523,6.7312,6.7063,6.6643,6.647,6.6301,6.6229,6.5909,6.6053,6.6419,6.6452,6.6287,6.6281,6.6433,6.6511,6.6401,6.6298,6.6194,6.6647,6.7309,6.8145,6.8909,7.0202,7.1457,7.2734,7.3973,7.5204,7.5937,7.645,7.6996,7.7099,7.7292,7.7327,7.7637,7.8051,7.8477,7.8637,7.8956,7.9445,7.97,7.9794,7.9766,7.987,8.0006,8.0141,8.0175,8.0209,8.0209,8.0344,8.0716,8.0987,8.1393,8.1832,8.2137,8.234,8.278,5.1307,5.1404,5.2021,5.2345,5.2734,5.3869,5.4453,5.4712,5.5199,5.562,5.5846,5.5846,5.6006,5.6165,5.6165,5.6198,5.6329,5.7126,5.7714,5.8449,5.961,6.0293,6.028,6.0796,6.1443,6.1919,6.2878,6.3233,6.3377,6.3526,6.36,6.36,6.36,6.36,6.36,6.36,6.36,6.36,6.36,6.3703,6.3876,6.4289,6.46,6.4945,6.56,6.6324,6.698,6.7669,6.7738,6.7118,6.7738,6.798,6.8049,6.8083,6.8083,6.8083,6.8083,6.8004,6.7879,6.7799,6.7719,6.7475,6.7248,6.7184,6.7329,6.7168,6.7181,6.74,6.7937,6.7978,6.7818,6.778,6.7802,6.776,6.7619,6.7548,6.7508,6.7373,6.7804,6.927,6.9838,7.1192,7.2843,7.4157,7.4931,7.589,7.6496,7.6781,7.7202,7.7499,7.7534,7.7568,7.8017,7.8568,7.9063,7.9521,7.9943,8.0329,8.0418,8.0535,8.0204,8.0274,8.0242,8.0209,8.0209,8.0209,8.0209,8.0513,8.1054,8.1494,8.1832,8.2543,8.3219,8.3355,8.3659,5.213,5.2729,5.286,5.3465,5.4403,5.4718,5.5175,5.5777,5.5908,5.6053,5.6244,5.6323,5.6402,5.6636,5.6702,5.6822,5.743,5.803,5.8808,6.056,6.0994,6.1877,6.2199,6.2472,6.2616,6.2912,6.3274,6.3526,6.3526,6.3526,6.36,6.36,6.36,6.36,6.36,6.36,6.36,6.36,6.36,6.3945,6.4358,6.4669,6.5117,6.5669,6.6393,6.7083,6.7704,6.8014,6.8014,6.7945,6.798,6.8083,6.8083,6.8083,6.8083,6.8083,6.8083,6.8083,6.8039,6.8039,6.7959,6.7822,6.8138,6.8315,6.7929,6.8661,6.8784,6.8851,6.9136,6.9244,6.8989,6.8765,6.896,6.9018,6.9011,6.9372,6.9932,6.9367,6.9501,7.0561,7.1654,7.2812,7.3893,7.5073,7.5909,7.6611,7.6918,7.7133,7.7375,7.7775,7.7948,7.8051,7.8741,7.9327,7.9741,8.0234,8.0588,8.0871,8.096,8.1102,8.0774,8.0476,8.041,8.0309,8.0209,8.0242,8.0479,8.0885,8.1426,8.1832,8.234,8.3189,8.3832,8.4065,8.4234,5.318,5.3612,5.4203,5.4783,5.5435,5.5798,5.6161,5.6492,5.6603,5.6757,5.6911,5.6987,5.723,5.7758,5.7825,5.8193,5.8974,5.9564,6.0579,6.1953,6.2343,6.2775,6.3274,6.3377,6.3377,6.3452,6.3526,6.36,6.36,6.36,6.36,6.36,6.36,6.36,6.36,6.3634,6.36,6.3703,6.3979,6.4324,6.4669,6.5462,6.6117,6.6773,6.7325,6.7738,6.8049,6.8083,6.8083,6.8083,6.8083,6.8083,6.8083,6.8083,6.8083,6.8083,6.8083,6.8083,6.8118,6.8428,6.867,6.851,6.9117,6.9419,6.9425,6.9931,7.0174,7.0276,7.0339,7.0296,6.9988,7.0258,7.0301,7.0305,7.0502,7.1061,7.1821,7.1092,7.0828,7.2052,7.2911,7.3897,7.4911,7.5884,7.63,7.6771,7.7078,7.7327,7.7879,7.8189,7.8568,7.8879,7.9569,8.012,8.0465,8.0879,8.1199,8.131,8.129,8.1297,8.1102,8.0906,8.061,8.051,8.051,8.0749,8.0953,8.1393,8.2037,8.2852,8.3428,8.3937,8.431,8.4547,8.4577,5.4421,5.4623,5.5722,5.6218,5.6345,5.6913,5.7181,5.7256,5.7297,5.7655,5.7904,5.7904,5.845,5.918,5.9241,5.9756,6.0544,6.1518,6.2535,6.3021,6.3274,6.3383,6.3526,6.3526,6.3526,6.36,6.36,6.36,6.36,6.36,6.36,6.36,6.36,6.36,6.36,6.3738,6.3841,6.3945,6.4565,6.5048,6.529,6.6324,6.7152,6.7773,6.7945,6.8014,6.8083,6.8083,6.8083,6.8083,6.8083,6.8083,6.8083,6.8083,6.8083,6.8083,6.8083,6.8221,6.8463,6.8877,6.9256,6.9428,6.9955,7.0526,7.0908,7.096,7.1076,7.1328,7.1334,7.1222,7.0867,7.1304,7.1526,7.1675,7.2111,7.2871,7.3532,7.2778,7.2976,7.3763,7.4354,7.4911,7.5654,7.6427,7.6679,7.6965,7.7215,7.7637,7.8223,7.8775,7.9224,7.9672,8.0327,8.0741,8.1086,8.1155,8.1603,8.1578,8.1585,8.149,8.1393,8.1297,8.1102,8.0906,8.091,8.1118,8.1494,8.2072,8.282,8.3772,8.4453,8.4794,8.4998,8.5168,8.4958,5.644,5.6987,5.7261,5.7566,5.797,5.814,5.8137,5.8174,5.8243,5.8726,5.9416,5.9413,5.9788,6.0408,6.054,6.1058,6.1924,6.2832,6.3393,6.36,6.3708,6.3747,6.3673,6.3673,6.3673,6.36,6.36,6.3673,6.36,6.36,6.36,6.36,6.36,6.36,6.3841,6.4152,6.4427,6.4634,6.529,6.5876,6.6393,6.6842,6.7394,6.8014,6.8083,6.8083,6.8083,6.8083,6.8083,6.8083,6.8083,6.8083,6.8118,6.8118,6.8187,6.8187,6.8221,6.8463,6.9015,6.9256,6.967,7.0187,7.0877,7.1125,7.1335,7.1662,7.1798,7.1883,7.1966,7.1961,7.2361,7.2576,7.3129,7.3561,7.4006,7.4438,7.5296,7.527,7.5006,7.5492,7.5688,7.585,7.6392,7.6908,7.724,7.7697,7.7995,7.8499,7.912,7.9672,8.0189,8.0638,8.1086,8.1397,8.1672,8.1638,8.1741,8.1741,8.1681,8.1681,8.1681,8.1681,8.1585,8.1297,8.1273,8.1517,8.1998,8.2614,8.35,8.4353,8.4899,8.5377,8.5377,8.5377,8.5273,5.7662,5.8043,5.8356,5.8599,5.8841,5.8875,5.9081,5.9495,5.9599,6.0082,6.0704,6.0842,6.1222,6.1845,6.1947,6.2396,6.3231,6.3757,6.3965,6.3965,6.3965,6.4072,6.3892,6.3892,6.3892,6.3892,6.3892,6.3747,6.36,6.36,6.36,6.36,6.36,6.3772,6.4152,6.4496,6.4945,6.5324,6.6048,6.66,6.7049,6.729,6.7807,6.798,6.8083,6.8083,6.8083,6.8083,6.8083,6.8083,6.8083,6.8083,6.8221,6.8497,6.8704,6.8739,6.8739,6.9049,6.9808,7.0153,7.0636,7.0946,7.1636,7.205,7.2104,7.2295,7.2416,7.2519,7.2811,7.2965,7.3044,7.3728,7.4457,7.4888,7.5272,7.5832,7.6197,7.6392,7.6587,7.6621,7.6553,7.6519,7.6862,7.7353,7.7857,7.8236,7.8741,7.9327,7.9982,8.0396,8.0845,8.119,8.15,8.1603,8.1776,8.1776,8.1776,8.1776,8.1776,8.1776,8.1776,8.1776,8.1681,8.1585,8.1668,8.2022,8.2676,8.3497,8.4181,8.4898,8.5344,8.5686,8.5686,8.5686,8.5583,5.8841,5.891,5.9373,5.9656,5.9795,5.9795,6.0247,6.0839,6.1043,6.1497,6.2194,6.223,6.2579,6.3136,6.338,6.3659,6.4251,6.4251,6.4251,6.4217,6.4251,6.4251,6.418,6.4215,6.418,6.4109,6.4143,6.4037,6.382,6.3673,6.3673,6.3777,6.3777,6.4048,6.4565,6.5117,6.5497,6.6083,6.6807,6.7187,6.7394,6.7773,6.8083,6.8083,6.8083,6.8083,6.8083,6.8083,6.8083,6.8152,6.8256,6.8359,6.8463,6.9084,6.9532,6.967,6.9601,6.9946,7.0532,7.1015,7.136,7.1739,7.2291,7.2567,7.2636,7.2636,7.2774,7.2946,7.336,7.393,7.4272,7.5097,7.566,7.5948,7.6302,7.6645,7.6793,7.6862,7.7125,7.7125,7.709,7.7353,7.765,7.8167,7.8649,7.9132,7.9638,8.0086,8.0672,8.0845,8.1224,8.15,8.1741,8.1741,8.1776,8.1776,8.1776,8.1776,8.1776,8.1776,8.1776,8.1776,8.175,8.1956,8.2549,8.3071,8.3693,8.4243,8.4826,8.5408,8.5786,8.5992,8.5992,8.589,8.589,6.0344,6.0344,6.0388,6.0874,6.1376,6.1446,6.1841,6.238,6.2415,6.2807,6.3374,6.3273,6.3554,6.4044,6.4183,6.4288,6.4393,6.4498,6.4498,6.4428,6.4428,6.4358,6.4251,6.418,6.4251,6.4251,6.4251,6.4215,6.4178,6.4069,6.3889,6.3993,6.4329,6.4703,6.5083,6.5911,6.6738,6.698,6.7566,6.7911,6.7911,6.8014,6.8083,6.8083,6.8083,6.8083,6.8083,6.8083,6.8118,6.8256,6.8808,6.9084,6.9256,6.9842,7.0567,7.0808,7.0774,7.0567,7.1256,7.1532,7.1843,7.2257,7.2602,7.2671,7.2705,7.2809,7.305,7.3636,7.3843,7.443,7.5239,7.5859,7.6376,7.6686,7.6906,7.7043,7.7133,7.7353,7.7581,7.7995,7.8098,7.8236,7.8465,7.9051,7.9603,8.0051,8.05,8.0948,8.1224,8.1362,8.1431,8.1672,8.1776,8.1776,8.1776,8.1776,8.1776,8.1776,8.1776,8.181,8.1845,8.1948,8.2259,8.2508,8.3231,8.3782,8.4132,8.4682,8.5367,8.5815,8.6024,8.6194,8.6194,8.6194,8.6128,6.0793,6.0645,6.1105,6.1459,6.1813,6.2273,6.291,6.3347,6.3388,6.3678,6.428,6.4146,6.4287,6.4533,6.4568,6.4568,6.4568,6.4637,6.4637,6.4637,6.4568,6.4498,6.4533,6.4463,6.4428,6.4463,6.4533,6.4883,6.4777,6.4459,6.4211,6.4585,6.4858,6.5331,6.5738,6.6635,6.7187,6.7566,6.7911,6.8083,6.8083,6.8083,6.8083,6.8083,6.8083,6.8083,6.8083,6.8083,6.8359,6.867,6.9187,6.9497,6.9946,7.0567,7.1187,7.1394,7.167,7.1843,7.2119,7.2119,7.236,7.2533,7.2671,7.2671,7.274,7.305,7.336,7.3705,7.4636,7.543,7.6051,7.6499,7.6844,7.712,7.7223,7.7292,7.743,7.7844,7.8154,7.8603,7.9051,7.9258,7.9465,7.9844,8.0258,8.05,8.0914,8.1328,8.1535,8.1603,8.1672,8.1741,8.1776,8.1776,8.1776,8.1776,8.1776,8.1776,8.1776,8.181,8.1948,8.2121,8.2535,8.319,8.3914,8.4363,8.4639,8.5225,8.5915,8.6156,8.6294,8.6294,8.6329,8.6363,8.6297,6.1259,6.1087,6.1654,6.2115,6.2541,6.3144,6.3818,6.4427,6.4296,6.4548,6.4905,6.4876,6.4843,6.4878,6.4843,6.4843,6.4878,6.4878,6.4775,6.4775,6.4775,6.4706,6.4637,6.4637,6.4637,6.4741,6.4988,6.5268,6.5408,6.5372,6.5262,6.5461,6.5694,6.6104,6.6781,6.7299,6.7601,6.7945,6.8049,6.8083,6.8083,6.8083,6.8083,6.8083,6.8083,6.8083,6.8118,6.8359,6.8808,6.9084,6.9773,7.0256,7.0705,7.136,7.1774,7.1981,7.2257,7.2464,7.2533,7.2567,7.2671,7.2671,7.2705,7.2774,7.3084,7.3533,7.4154,7.4464,7.5257,7.5982,7.6464,7.6913,7.7085,7.7189,7.7223,7.7327,7.7534,7.8085,7.8775,7.9431,7.9948,8.0396,8.0603,8.0776,8.0948,8.1017,8.1328,8.1707,8.1776,8.1776,8.1776,8.1776,8.1776,8.1776,8.1776,8.1776,8.1776,8.1845,8.1845,8.2052,8.2259,8.2604,8.3018,8.3742,8.4535,8.4984,8.5363,8.5846,8.6294,8.6294,8.6294,8.6294,8.6329,8.6398,8.6605,6.2199,6.2235,6.2307,6.3066,6.4314,6.4456,6.4856,6.5332,6.5303,6.5273,6.5247,6.5282,6.5216,6.5216,6.5216,6.5216,6.5216,6.5282,6.5149,6.4979,6.4979,6.4946,6.4843,6.4775,6.4845,6.4986,6.5372,6.5759,6.6075,6.6672,6.6563,6.6698,6.6786,6.7087,6.7419,6.7679,6.7842,6.8083,6.8083,6.8083,6.8083,6.8083,6.8083,6.8083,6.8083,6.8083,6.8152,6.8739,6.9325,6.9532,7.0463,7.1153,7.1498,7.205,7.236,7.2464,7.2533,7.2671,7.2671,7.2671,7.2671,7.2671,7.2809,7.305,7.3464,7.3705,7.443,7.5533,7.6051,7.6464,7.6878,7.7189,7.7223,7.7292,7.7396,7.7741,7.8017,7.8499,7.9224,8.0155,8.0707,8.1086,8.1259,8.1328,8.1362,8.1397,8.1431,8.1776,8.1776,8.1776,8.1776,8.1776,8.1776,8.1776,8.1776,8.181,8.1879,8.2017,8.2121,8.2466,8.2811,8.319,8.3742,8.4328,8.5121,8.557,8.5949,8.6156,8.6294,8.6294,8.6329,8.6398,8.6605,8.6846,8.7087,6.2842,6.3698,6.3698,6.4055,6.4662,6.5126,6.5454,6.564,6.551,6.5415,6.5282,6.5282,6.5282,6.5282,6.5282,6.5282,6.5282,6.5282,6.5216,6.5216,6.5149,6.5149,6.5082,6.5188,6.5293,6.5717,6.6176,6.6812,6.7588,6.7763,6.8149,6.8211,6.788,6.7863,6.7946,6.8033,6.8093,6.8083,6.8083,6.8083,6.8083,6.8083,6.8083,6.8083,6.8083,6.8394,6.8773,6.9084,6.9773,7.0498,7.1187,7.167,7.2084,7.2498,7.2636,7.2671,7.2671,7.2671,7.2671,7.2671,7.2671,7.2809,7.3084,7.3533,7.3981,7.4568,7.5292,7.6051,7.6533,7.6913,7.7085,7.7223,7.7258,7.7361,7.7603,7.8017,7.8534,7.9017,7.9707,8.0603,8.1121,8.15,8.1638,8.1741,8.1741,8.1741,8.1776,8.1776,8.1776,8.1776,8.1776,8.1776,8.1776,8.1914,8.1914,8.1948,8.1983,8.2259,8.25,8.2949,8.35,8.4225,8.4742,8.5259,8.557,8.5915,8.6156,8.626,8.6294,8.6294,8.6398,8.6536,8.6846,8.7225,8.7639,6.3627,6.459,6.4876,6.4983,6.5054,6.5554,6.5804,6.5804,6.5675,6.5545,6.548,6.548,6.548,6.548,6.548,6.548,6.548,6.548,6.5415,6.5415,6.5349,6.549,6.5566,6.5778,6.5994,6.6628,6.7123,6.7798,6.8364,6.8681,6.8962,6.8992,6.8772,6.8618,6.8454,6.8431,6.8241,6.8241,6.8241,6.8197,6.8162,6.8083,6.8083,6.8152,6.8325,6.8704,6.9291,6.9739,7.0498,7.1153,7.1739,7.2119,7.2464,7.2671,7.2671,7.2671,7.2671,7.2671,7.2671,7.2671,7.2774,7.3119,7.3429,7.3947,7.4636,7.5499,7.6016,7.6499,7.6947,7.7223,7.7223,7.7223,7.7223,7.7327,7.7913,7.8361,7.9051,7.9603,8.0293,8.1052,8.1431,8.1707,8.1741,8.1776,8.1776,8.1776,8.1776,8.1776,8.1776,8.1776,8.1776,8.1776,8.1776,8.1948,8.2121,8.2293,8.2569,8.3052,8.3328,8.3707,8.4259,8.4949,8.5432,8.5742,8.5984,8.6225,8.6294,8.6294,8.6294,8.6294,8.6398,8.6501,8.7156,8.7605,8.8226,6.4555,6.4697,6.5447,6.5732,6.5697,6.5768,6.5804,6.5804,6.5804,6.574,6.574,6.574,6.574,6.574,6.5675,6.5675,6.574,6.574,6.5675,6.5545,6.5723,6.5876,6.6164,6.6483,6.694,6.7652,6.8113,6.8503,6.8893,6.9247,6.9564,6.949,6.9273,6.9087,6.9078,6.8816,6.8705,6.8628,6.8474,6.8397,6.8319,6.8241,6.8162,6.8221,6.8739,6.9153,6.9601,7.0498,7.1187,7.167,7.2222,7.2498,7.2636,7.2671,7.2671,7.2671,7.2671,7.2671,7.2671,7.2671,7.305,7.3533,7.3843,7.4464,7.5568,7.6223,7.6464,7.6913,7.7189,7.7223,7.7223,7.7223,7.7223,7.7465,7.8051,7.8741,7.9396,8.0258,8.0983,8.1328,8.1569,8.1776,8.1776,8.1776,8.1776,8.1776,8.1776,8.1776,8.1776,8.181,8.181,8.1914,8.1948,8.2259,8.25,8.2776,8.3121,8.3673,8.4121,8.4466,8.4811,8.5294,8.5742,8.6122,8.6225,8.6294,8.6294,8.6294,8.6294,8.6294,8.6294,8.6536,8.726,8.7984,8.8639,6.4912,6.5411,6.5697,6.5804,6.5804,6.5804,6.5804,6.5804,6.5804,6.5804,6.5804,6.5804,6.5804,6.5804,6.5875,6.5911,6.5875,6.5804,6.574,6.5847,6.6138,6.6494,6.6856,6.739,6.7959,6.8564,6.9097,6.942,6.9812,6.9885,6.9885,6.9777,6.9633,6.934,6.9118,6.8892,6.8705,6.8705,6.8628,6.8551,6.8397,6.8319,6.8275,6.8152,6.8911,6.9532,7.0015,7.1118,7.1705,7.2119,7.2636,7.2671,7.2671,7.2671,7.2671,7.2671,7.2671,7.2671,7.2843,7.305,7.3498,7.3878,7.4361,7.505,7.5947,7.6602,7.6947,7.712,7.7223,7.7223,7.7223,7.7223,7.7292,7.7534,7.812,7.8948,7.9741,8.081,8.1603,8.1638,8.1776,8.1776,8.1776,8.1776,8.1776,8.1776,8.1776,8.1776,8.1776,8.181,8.181,8.2017,8.219,8.2535,8.288,8.3397,8.3949,8.457,8.4915,8.5156,8.5501,8.5742,8.5949,8.6225,8.6294,8.6294,8.6294,8.6294,8.6294,8.6294,8.6294,8.6846,8.7846,8.8467,8.8984,6.5304,6.5768,6.5804,6.5804,6.5804,6.5804,6.5804,6.5875,6.6053,6.6232,6.6268,6.6482,6.6624,6.6624,6.6589,6.6589,6.6553,6.6303,6.6517,6.6553,6.6767,6.7338,6.7838,6.8266,6.8912,6.9515,6.9765,6.9982,7.02,7.0202,7.0062,6.9885,6.9742,6.9598,6.934,6.9192,6.8932,6.8967,6.8892,6.8816,6.8663,6.8544,6.8492,6.8828,6.9371,7.0015,7.0739,7.1463,7.2119,7.2533,7.2671,7.2671,7.2671,7.2671,7.2671,7.2671,7.2671,7.2809,7.3188,7.3395,7.3947,7.4705,7.5085,7.5671,7.6326,7.6913,7.7085,7.7223,7.7223,7.7223,7.7223,7.7223,7.7327,7.7568,7.812,7.8948,7.9672,8.0707,8.1466,8.1535,8.1776,8.1776,8.1776,8.1776,8.1776,8.1776,8.1776,8.181,8.1879,8.1983,8.2155,8.2397,8.2811,8.3362,8.3776,8.419,8.4811,8.5466,8.5639,8.5742,8.5915,8.6087,8.6225,8.6294,8.6294,8.6294,8.6294,8.6294,8.6294,8.6294,8.6294,8.7122,8.8329,8.8812,8.9122,6.5804,6.5804,6.5804,6.5804,6.5804,6.5875,6.5911,6.5946,6.6696,6.7017,6.7053,6.7659,6.7802,6.7945,6.798,6.7838,6.7588,6.7088,6.7267,6.7481,6.7302,6.8052,6.8766,6.9265,6.9693,7.0193,7.0407,7.03,7.0445,7.0445,7.0202,7.0026,7.0026,6.9956,6.9813,6.9633,6.9414,6.934,6.9192,6.9043,6.8892,6.8663,6.8856,6.9253,6.9935,7.0614,7.1291,7.205,7.2464,7.2671,7.2671,7.2671,7.2671,7.2671,7.2671,7.2671,7.2671,7.3188,7.3567,7.3809,7.4636,7.5499,7.6016,7.6568,7.6913,7.7154,7.7189,7.7223,7.7223,7.7223,7.7223,7.7223,7.7258,7.7603,7.8017,7.8672,7.9327,8.012,8.0879,8.1293,8.1638,8.1776,8.1776,8.1776,8.181,8.1879,8.1948,8.2121,8.2224,8.25,8.2707,8.3052,8.3569,8.4259,8.4673,8.4949,8.5328,8.588,8.6018,8.6122,8.6294,8.6294,8.6294,8.6294,8.6294,8.6294,8.6294,8.6294,8.6294,8.6294,8.6294,8.7122,8.826,8.857,8.895,6.5804,6.5804,6.5804,6.5804,6.5875,6.641,6.666,6.6767,6.7445,6.7766,6.7802,6.798,6.8266,6.8088,6.8088,6.7802,6.7445,6.7124,6.7124,6.7338,6.7766,6.848,6.9194,6.9836,7.0229,7.0407,7.0514,7.0514,7.0514,7.0514,7.0582,7.0582,7.0478,7.0443,7.0374,7.0132,6.992,6.9633,6.956,6.934,6.9262,6.9037,6.9296,6.9802,7.0406,7.1006,7.165,7.2257,7.2602,7.2671,7.2671,7.2671,7.2671,7.2671,7.2671,7.274,7.3084,7.3602,7.3912,7.4809,7.5637,7.6154,7.6568,7.6913,7.7189,7.7223,7.7223,7.7223,7.7223,7.7223,7.7223,7.7223,7.7223,7.7465,7.7844,7.8361,7.8948,7.9431,8.0224,8.1017,8.1362,8.1776,8.1776,8.1776,8.181,8.1948,8.2155,8.2431,8.2776,8.3087,8.3328,8.3707,8.4294,8.4984,8.5259,8.5501,8.588,8.6225,8.6294,8.6294,8.6294,8.6294,8.6294,8.6294,8.6294,8.6294,8.6294,8.6294,8.6294,8.6294,8.6398,8.726,8.8019,8.8364,8.9019,6.5804,6.5804,6.5804,6.5982,6.6446,6.7445,6.7909,6.798,6.8373,6.8587,6.8623,6.8944,6.9015,6.9051,6.8801,6.8409,6.8052,6.7695,6.7695,6.823,6.8302,6.9154,6.9868,7.0297,7.0475,7.0582,7.0582,7.0514,7.0547,7.075,7.0919,7.0985,7.1015,7.1045,7.0913,7.0817,7.0511,7.0166,6.9885,6.9633,6.9593,6.9582,6.9875,7.0384,7.0992,7.1399,7.2009,7.2582,7.2636,7.2671,7.2671,7.2671,7.2671,7.2671,7.2671,7.2809,7.3326,7.3878,7.4395,7.5361,7.6051,7.6568,7.6947,7.712,7.7223,7.7223,7.7223,7.7223,7.7223,7.7223,7.7223,7.7223,7.7223,7.7258,7.7637,7.8051,7.843,7.881,7.9638,8.0534,8.1121,8.1603,8.1776,8.1776,8.1983,8.2293,8.2742,8.319,8.3638,8.4121,8.4259,8.4466,8.5052,8.5708,8.5846,8.5915,8.6122,8.6294,8.6294,8.6294,8.6294,8.6294,8.6294,8.6294,8.6294,8.6294,8.6294,8.6294,8.6294,8.6294,8.6398,8.6984,8.7708,8.8295,8.9122,6.5867,6.5867,6.5939,6.6439,6.7296,6.8654,6.9265,6.9408,6.9408,6.9408,6.9551,7.0122,7.03,7.0015,6.9479,6.9051,6.8587,6.8159,6.8225,6.9194,6.9154,6.9685,7.0427,7.0718,7.0785,7.0785,7.0718,7.0682,7.0682,7.0949,7.1276,7.134,7.1531,7.1557,7.1494,7.1368,7.1175,7.0949,7.069,7.0451,7.0274,7.0444,7.0885,7.1616,7.1926,7.2221,7.2728,7.2838,7.2671,7.2671,7.2671,7.2671,7.2671,7.2671,7.2671,7.3084,7.3671,7.4361,7.5016,7.5913,7.6499,7.6947,7.7223,7.7223,7.7223,7.7223,7.7223,7.7223,7.7223,7.7223,7.7223,7.7223,7.7223,7.7223,7.7465,7.7706,7.7982,7.8534,7.9431,8.0327,8.1155,8.1603,8.1776,8.181,8.2086,8.2604,8.319,8.3742,8.4397,8.4915,8.5121,8.519,8.5604,8.6018,8.6087,8.6156,8.6225,8.6294,8.6294,8.6294,8.6294,8.6294,8.6294,8.6294,8.6294,8.6294,8.6294,8.6294,8.6294,8.6294,8.6432,8.6708,8.7294,8.7984,8.8915,6.6146,6.6217,6.6828,6.7545,6.8335,6.9173,6.9859,7.0432,7.0297,7.0193,7.0264,7.0407,7.0478,7.03,6.9586,6.9082,6.8511,6.8368,6.8398,6.8929,6.9287,7.0267,7.1038,7.1081,7.1146,7.1146,7.1146,7.1081,7.1146,7.1368,7.162,7.1866,7.2048,7.2167,7.2048,7.1964,7.1889,7.1837,7.1954,7.1745,7.1583,7.141,7.1619,7.2348,7.2809,7.2718,7.3009,7.3005,7.2838,7.2755,7.2671,7.2671,7.2671,7.2671,7.2981,7.3533,7.4188,7.4981,7.5671,7.6361,7.6913,7.7085,7.7223,7.7223,7.7223,7.7223,7.7223,7.7223,7.7223,7.7223,7.7223,7.7223,7.7223,7.7223,7.7258,7.7396,7.7603,7.843,7.9327,8.0189,8.1121,8.15,8.1707,8.1948,8.2259,8.2776,8.3466,8.4156,8.4915,8.5501,8.5742,8.5846,8.5949,8.626,8.6294,8.6294,8.6294,8.6294,8.6294,8.6294,8.6294,8.6294,8.6294,8.6294,8.6294,8.6294,8.6294,8.6294,8.6294,8.6294,8.6363,8.657,8.6949,8.7605,8.8536,6.6512,6.6584,6.7378,6.8172,6.8904,6.9569,7.0296,7.0878,7.0817,7.075,7.0682,7.0615,7.0472,7.0078,6.9358,6.8958,6.8421,6.8385,6.8837,6.9261,6.9929,7.0834,7.1323,7.1557,7.1557,7.1557,7.1467,7.1404,7.162,7.1769,7.2011,7.2285,7.2553,7.2704,7.259,7.2658,7.2797,7.2752,7.33,7.3525,7.3224,7.3213,7.2941,7.3505,7.3517,7.344,7.3332,7.3252,7.3088,7.2922,7.2922,7.2838,7.2942,7.3135,7.336,7.3947,7.4705,7.5637,7.6189,7.674,7.7223,7.7223,7.7223,7.7223,7.7223,7.7223,7.7223,7.7223,7.7223,7.7223,7.7223,7.7223,7.7223,7.7223,7.7327,7.743,7.7982,7.8775,7.9569,8.0327,8.1121,8.1638,8.1776,8.181,8.2259,8.3259,8.3949,8.4604,8.5363,8.5846,8.6156,8.6294,8.6294,8.6294,8.6294,8.6294,8.6294,8.6294,8.6294,8.6294,8.6294,8.6294,8.6294,8.6294,8.6294,8.6294,8.6294,8.6294,8.6294,8.6294,8.6363,8.6432,8.6811,8.7225,8.8053,6.6831,6.6939,6.7701,6.85,6.9298,6.9948,7.0681,7.1268,7.1175,7.0973,7.0829,7.08,7.0309,6.9699,6.9074,6.8886,6.8814,6.8994,6.9516,7.0112,7.0934,7.15,7.1854,7.1988,7.2048,7.1988,7.1866,7.1927,7.2108,7.2248,7.2422,7.2779,7.3001,7.3185,7.3351,7.3739,7.4049,7.4212,7.4647,7.5382,7.5359,7.5241,7.4745,7.4476,7.4396,7.4258,7.4018,7.3737,7.3496,7.3252,7.3205,7.3144,7.3268,7.3564,7.4032,7.4499,7.5326,7.5982,7.643,7.6878,7.712,7.7223,7.7223,7.7223,7.7223,7.7223,7.7223,7.7223,7.7223,7.7223,7.7223,7.7223,7.7223,7.7327,7.743,7.7637,7.8361,7.9155,7.9879,8.0603,8.1121,8.1707,8.1776,8.1776,8.2466,8.3535,8.4363,8.5121,8.5708,8.5949,8.6225,8.6294,8.6294,8.6294,8.6294,8.6294,8.6294,8.6294,8.6294,8.6294,8.6294,8.6294,8.6294,8.6294,8.6294,8.6294,8.6294,8.6294,8.6294,8.6294,8.6329,8.6363,8.6467,8.6915,8.7501,6.7415,6.7524,6.8293,6.9136,6.9884,7.0456,7.1138,7.1732,7.1521,7.1042,7.0698,7.0676,7.047,6.9921,6.9281,6.9151,6.9394,6.972,7.0132,7.0714,7.1539,7.2094,7.2401,7.2459,7.2516,7.2459,7.2343,7.2401,7.259,7.2723,7.289,7.3165,7.403,7.4216,7.4255,7.4719,7.5217,7.5383,7.5769,7.6412,7.6295,7.6031,7.5843,7.5634,7.5512,7.5082,7.4598,7.4132,7.3782,7.3542,7.3485,7.36,7.3851,7.4183,7.4636,7.5241,7.5982,7.6395,7.6809,7.7051,7.7223,7.7223,7.7223,7.7223,7.7223,7.7223,7.7223,7.7223,7.7223,7.7223,7.7223,7.7223,7.7258,7.7534,7.7706,7.812,7.8706,7.9569,8.0431,8.0879,8.1293,8.1638,8.1776,8.2017,8.2466,8.3362,8.3983,8.4811,8.5949,8.6191,8.6294,8.6294,8.6294,8.6294,8.6294,8.6294,8.6294,8.6294,8.6294,8.6294,8.6294,8.6294,8.6294,8.6294,8.6294,8.6294,8.6294,8.6294,8.6294,8.6294,8.6294,8.6329,8.6363,8.657,8.7122]},{"header":{"parameterUnit":"m.s-1","parameterCategory":1,"la1":31.0,"la2":29.5877,"lo1":-88.7671,"lo2":-86.6584,"dx":0.0162,"dy":0.0185,"nx":115,"ny":88,"refTime":"2023-01-10T06:00:00:Z","depth":0,"parameterNumber":3,"parameterNumberName":"V-component_of_WINDS"},"data":[0.0,0.0,0.0,0.0,0.0,0.0,0.0,0.0,0.0,0.0,0.0,0.0,0.0,0.0,0.0,0.0,0.0,0.0,0.0,0.0,0.0,0.0,0.0,0.0,0.0,0.0,0.0,0.0,0.0,0.0,0.0,0.0,0.0,0.0,0.0,0.0,0.0,0.0,0.0,0.0,0.0,0.0,0.0,0.0,0.0,0.0,0.0,0.0,0.0,0.0,0.0,0.0,0.0,0.0,0.0,0.0,0.0,0.0,0.0,0.0,0.0,0.0,0.0,0.0,0.0,0.0,0.0,0.0,0.0,0.0,0.0,0.0,0.0,0.0,0.0,0.0,0.0,0.0,0.0,0.0,0.0,0.0,0.0,0.0,0.0,0.0,0.0,0.0,0.0,0.0,0.0,0.0,0.0,0.0,0.0,0.0,0.0,0.0,0.0,0.0,0.0,0.0,0.0,0.0,0.0,0.0,0.0,0.0,0.0,0.0,0.0,0.0,0.0,0.0,0.0,0.0,0.0,0.0,0.0,0.0,0.0,0.0,0.0,0.0,0.0,0.0,0.0,0.0,0.0,0.0,0.0,0.0,0.0,0.0,0.0,0.0,0.0,0.0,0.0,0.0,0.0,0.0,0.0,0.0,0.0,0.0,0.0,0.0,0.0,0.0,0.0,0.0,0.0,0.0,0.0,0.0,0.0,0.0,0.0,0.0,0.0,0.0,0.0,0.0,0.0,0.0,0.0,0.0,0.0,0.0,0.0,0.0,0.0,0.0,0.0,0.0,0.0,0.0,0.0,0.0,0.0,0.0,0.0,0.0,0.0,0.0,0.0,0.0,0.0,0.0,0.0,0.0,0.0,0.0,0.0,0.0,0.0,0.0,0.0,0.0,0.0,0.0,0.0,0.0,0.0,0.0,0.0,0.0,0.0,0.0,0.0,0.0,0.0,0.0,0.0,0.0,0.0,0.0,0.0,0.0,0.0,0.0,0.0,0.0,0.0,0.0,0.0,0.0,0.0,0.0,0.0,0.0,0.0,0.0,0.0,0.0,0.0,0.0,0.0,0.0,0.0,0.0,0.0,0.0,0.0,0.0,0.0,0.0,0.0,0.0,0.0,0.0,0.0,0.0,0.0,0.0,0.0,0.0,0.0,0.0,0.0,0.0,0.0,0.0,0.0,0.0,0.0,0.0,0.0,0.0,0.0,0.0,0.0,0.0,0.0,0.0,0.0,0.0,0.0,0.0,0.0,0.0,0.0,0.0,0.0,0.0,0.0,0.0,0.0,0.0,0.0,0.0,0.0,0.0,0.0,0.0,0.0,0.0,0.0,0.0,0.0,0.0,0.0,0.0,0.0,0.0,0.0,0.0,0.0,0.0,0.0,0.0,0.0,0.0,0.0,0.0,0.0,0.0,0.0,0.0,0.0,0.0,0.0,0.0,0.0,0.0,0.0,0.0,0.0,0.0,0.0,0.0,0.0,0.0,0.0,0.0,0.0,0.0,0.0,0.0,0.0,0.0,0.0,0.0,0.0,0.0,0.0,0.0,0.0,0.0,0.0,0.0,0.0,0.0,0.0,0.0,0.0,0.0,0.0,0.0,0.0,0.0,0.0,0.0,0.0,0.0,0.0,0.0,0.0,0.0,0.0,0.0,0.0,0.0,0.0,0.0,0.0,0.0,0.0,0.0,0.0,0.0,0.0,0.0,0.0,0.0,0.0,0.0,0.0,0.0,0.0,0.0,0.0,0.0,0.0,0.0,0.0,0.0,0.0,0.0,0.0,0.0,0.0,0.0,0.0,0.0,0.0,0.0,0.0,0.0,0.0,0.0,0.0,0.0,0.0,0.0,0.0,0.0,0.0,0.0,0.0,0.0,0.0,0.0,0.0,0.0,0.0,0.0,0.0,0.0,0.0,0.0,0.0,0.0,0.0,0.0,0.0,0.0,0.0,0.0,0.0,0.0,0.0,0.0,0.0,0.0,0.0,0.0,0.0,0.0,0.0,0.0,0.0,0.0,0.0,0.0,0.0,0.0,0.0,0.0,0.0,0.0,0.0,0.0,0.0,0.0,0.0,0.0,0.0,0.0,0.0,0.0,0.0,0.0,0.0,0.0,0.0,0.0,0.0,0.0,0.0,0.0,0.0,0.0,0.0,0.0,0.0,0.0,0.0,0.0,0.0,0.0,0.0,0.0,0.0,0.0,0.0,0.0,0.0,0.0,0.0,0.0,0.0,0.0,0.0,0.0,0.0,0.0,0.0,0.0,0.0,0.0,0.0,0.0,0.0,0.0,0.0,0.0,0.0,0.0,0.0,0.0,0.0,0.0,0.0,0.0,0.0,0.0,0.0,0.0,0.0,0.0,0.0,0.0,0.0,0.0,0.0,0.0,0.0,0.0,0.0,0.0,0.0,0.0,0.0,0.0,0.0,0.0,0.0,0.0,0.0,0.0,0.0,0.0,0.0,0.0,0.0,0.0,0.0,0.0,0.0,0.0,0.0,0.0,0.0,0.0,0.0,0.0,0.0,0.0,0.0,0.0,0.0,0.0,0.0,0.0,0.0,0.0,0.0,0.0,0.0,0.0,0.0,0.0,0.0,0.0,0.0,0.0,0.0,0.0,0.0,0.0,0.0,0.0,0.0,0.0,0.0,0.0,0.0,0.0,0.0,0.0,0.0,0.0,0.0,0.0,0.0,0.0,0.0,0.0,0.0,0.0,0.0,0.0,0.0,0.0,0.0,0.0,0.0,0.0,0.0,0.0,0.0,0.0,0.0,0.0,0.0,0.0,0.0,0.0,0.0,0.0,0.0,0.0,0.0,0.0,0.0,0.0,0.0,0.0,0.0,0.0,0.0,0.0,0.0,0.0,0.0,0.0,0.0,0.0,0.0,0.0,0.0,0.0,0.0,0.0,0.0,0.0,0.0,0.0,0.0,0.0,0.0,0.0,0.0,0.0,0.0,0.0,0.0,0.0,0.0,0.0,0.0,0.0,0.0,0.0,0.0,0.0,0.0,0.0,0.0,0.0,0.0,0.0,0.0,0.0,0.0,0.0,0.0,0.0,0.0,0.0,0.0,0.0,0.0,0.0,0.0,0.0,0.0,0.0,0.0,0.0,0.0,0.0,0.0,0.0,0.0,0.0,0.0,0.0,0.0,0.0,0.0,0.0,0.0,0.0,0.0,0.0,0.0,0.0,0.0,0.0,0.0,0.0,0.0,0.0,0.0,0.0,0.0,0.0,0.0,0.0,0.0,0.0,0.0,0.0,0.0,0.0,0.0,0.0,0.0,0.0,0.0,0.0,0.0,0.0,0.0,0.0,0.0,0.0,0.0,0.0,0.0,0.0,0.0,0.0,0.0,0.0,0.0,0.0,0.0,0.0,0.0,0.0,0.0,0.0,0.0,0.0,0.0,0.0,0.0,0.0,0.0,0.0,0.0,0.0,0.0,0.0,0.0,0.0,0.0,0.0,0.0,0.0,0.0,0.0,0.0,0.0,0.0,0.0,0.0,0.0,0.0,0.0,0.0,0.0,0.0,0.0,0.0,0.0,0.0,0.0,0.0,0.0,0.0,0.0,0.0,0.0,0.0,0.0,0.0,0.0,0.0,0.0,0.0,0.0,0.0,0.0,0.0,0.0,0.0,0.0,0.0,0.0,0.0,0.0,0.0,0.0,0.0,0.0,0.0,0.0,0.0,0.0,0.0,0.0,0.0,0.0,0.0,0.0,0.0,0.0,0.0,0.0,0.0,0.0,0.0,0.0,0.0,0.0,0.0,0.0,0.0,0.0,0.0,0.0,0.0,0.0,0.0,0.0,0.0,0.0,0.0,0.0,0.0,0.0,0.0,0.0,0.0,0.0,0.0,0.0,0.0,0.0,0.0,0.0,0.0,0.0,0.0,0.0,0.0,0.0,0.0,0.0,0.0,0.0,0.0,0.0,0.0,0.0,0.0,0.0,0.0,0.0,0.0,0.0,0.0,0.0,0.0,0.0,0.0,0.0,0.0,0.0,0.0,0.0,0.0,0.0,0.0,0.0,0.0,0.0,0.0,0.0,0.0,0.0,0.0,0.0,0.0,0.0,0.0,0.0,0.0,0.0,0.0,0.0,0.0,0.0,0.0,0.0,0.0,0.0,0.0,0.0,0.0,0.0,0.0,0.0,0.0,0.0,0.0,0.0,0.0,0.0,0.0,0.0,0.0,0.0,0.0,0.0,0.0,0.0,0.0,0.0,0.0,0.0,0.0,0.0,0.0,0.0,0.0,0.0,-1.7177,0.0,0.0,0.0,-1.5808,0.0,0.0,0.0,0.0,0.0,0.0,0.0,0.0,0.0,0.0,0.0,0.0,0.0,0.0,0.0,0.0,0.0,0.0,0.0,0.0,0.0,0.0,0.0,0.0,0.0,0.0,0.0,0.0,0.0,0.0,0.0,0.0,0.0,0.0,0.0,0.0,0.0,0.0,0.0,0.0,0.0,0.0,0.0,0.0,0.0,0.0,0.0,0.0,0.0,0.0,0.0,0.0,0.0,0.0,0.0,0.0,0.0,0.0,0.0,0.0,0.0,0.0,0.0,0.0,0.0,0.0,0.0,0.0,0.0,0.0,0.0,0.0,0.0,0.0,0.0,0.0,0.0,0.0,0.0,0.0,0.0,0.0,0.0,0.0,0.0,0.0,0.0,0.0,0.0,0.0,0.0,0.0,0.0,0.0,0.0,0.0,0.0,0.0,0.0,0.0,0.0,0.0,0.0,0.0,0.0,0.0,0.0,0.0,0.0,0.0,-1.7161,-1.6838,-1.6749,-1.6486,-1.6027,0.0,0.0,0.0,0.0,0.0,0.0,0.0,0.0,0.0,0.0,0.0,0.0,0.0,0.0,0.0,0.0,0.0,0.0,0.0,0.0,0.0,0.0,0.0,0.0,0.0,0.0,0.0,0.0,0.0,0.0,0.0,0.0,0.0,0.0,0.0,0.0,0.0,0.0,0.0,0.0,0.0,0.0,0.0,0.0,0.0,0.0,0.0,0.0,0.0,0.0,0.0,0.0,0.0,0.0,0.0,0.0,0.0,0.0,0.0,0.0,0.0,0.0,0.0,0.0,0.0,0.0,0.0,0.0,0.0,0.0,0.0,0.0,0.0,0.0,0.0,0.0,0.0,0.0,0.0,0.0,0.0,0.0,0.0,0.0,0.0,0.0,0.0,0.0,0.0,0.0,0.0,0.0,0.0,0.0,0.0,0.0,0.0,0.0,0.0,0.0,0.0,0.0,0.0,0.0,0.0,0.0,0.0,0.0,0.0,0.0,0.0,0.0,-1.68,-1.6609,-1.623,0.0,0.0,0.0,0.0,0.0,0.0,0.0,0.0,0.0,0.0,0.0,0.0,0.0,0.0,0.0,0.0,0.0,0.0,0.0,0.0,0.0,0.0,0.0,0.0,0.0,0.0,0.0,0.0,0.0,0.0,0.0,0.0,0.0,0.0,0.0,0.0,0.0,0.0,0.0,0.0,0.0,0.0,0.0,0.0,0.0,0.0,0.0,0.0,0.0,0.0,0.0,0.0,0.0,0.0,0.0,0.0,0.0,0.0,0.0,0.0,0.0,0.0,0.0,0.0,0.0,0.0,0.0,0.0,0.0,0.0,0.0,0.0,0.0,0.0,0.0,0.0,0.0,0.0,0.0,0.0,0.0,0.0,0.0,0.0,0.0,0.0,0.0,0.0,0.0,0.0,0.0,0.0,0.0,0.0,0.0,0.0,0.0,0.0,0.0,0.0,0.0,0.0,0.0,0.0,0.0,0.0,0.0,0.0,0.0,0.0,-1.6908,-1.6908,-1.706,0.0,-1.6402,0.0,0.0,0.0,0.0,0.0,0.0,0.0,0.0,0.0,0.0,0.0,0.0,0.0,0.0,0.0,0.0,0.0,0.0,0.0,0.0,0.0,0.0,0.0,0.0,0.0,0.0,0.0,0.0,0.0,0.0,0.0,0.0,0.0,0.0,0.0,0.0,0.0,0.0,0.0,0.0,0.0,0.0,0.0,0.0,0.0,0.0,0.0,0.0,0.0,0.0,0.0,0.0,0.0,0.0,0.0,0.0,0.0,0.0,0.0,0.0,0.0,0.0,0.0,0.0,0.0,0.0,0.0,0.0,0.0,0.0,0.0,0.0,0.0,0.0,0.0,0.0,0.0,0.0,0.0,0.0,0.0,0.0,0.0,0.0,0.0,0.0,0.0,0.0,0.0,0.0,0.0,0.0,0.0,0.0,0.0,0.0,0.0,0.0,0.0,0.0,0.0,0.0,0.0,0.0,0.0,0.0,0.0,0.0,0.0,0.0,-1.6908,-1.6908,-1.6719,-1.6552,0.0,0.0,0.0,0.0,0.0,0.0,0.0,0.0,0.0,0.0,0.0,0.0,0.0,0.0,0.0,0.0,0.0,0.0,0.0,0.0,0.0,0.0,0.0,0.0,0.0,0.0,0.0,0.0,0.0,0.0,0.0,0.0,0.0,0.0,0.0,0.0,0.0,0.0,0.0,0.0,0.0,0.0,0.0,0.0,0.0,0.0,0.0,0.0,0.0,0.0,0.0,0.0,0.0,0.0,0.0,0.0,0.0,0.0,0.0,0.0,0.0,0.0,0.0,0.0,0.0,0.0,0.0,0.0,0.0,0.0,0.0,0.0,0.0,0.0,0.0,0.0,0.0,0.0,0.0,0.0,0.0,0.0,0.0,0.0,0.0,0.0,0.0,0.0,0.0,0.0,0.0,0.0,0.0,0.0,0.0,0.0,0.0,0.0,0.0,0.0,0.0,0.0,0.0,0.0,0.0,0.0,0.0,0.0,0.0,0.0,-1.6486,-1.6908,-1.6941,-1.658,-1.6408,-1.6383,0.0,0.0,0.0,0.0,0.0,0.0,0.0,0.0,0.0,0.0,0.0,0.0,0.0,0.0,0.0,0.0,0.0,0.0,0.0,0.0,0.0,0.0,0.0,0.0,0.0,0.0,0.0,0.0,0.0,0.0,0.0,0.0,0.0,0.0,0.0,0.0,0.0,0.0,0.0,0.0,0.0,0.0,0.0,0.0,0.0,0.0,0.0,0.0,0.0,0.0,0.0,0.0,0.0,0.0,0.0,0.0,0.0,0.0,0.0,0.0,0.0,0.0,0.0,0.0,0.0,0.0,0.0,0.0,0.0,0.0,0.0,0.0,0.0,0.0,0.0,0.0,0.0,0.0,0.0,0.0,0.0,0.0,0.0,0.0,0.0,0.0,0.0,0.0,0.0,0.0,0.0,0.0,0.0,0.0,0.0,0.0,0.0,0.0,0.0,0.0,0.0,0.0,0.0,0.0,0.0,0.0,0.0,0.0,-1.5716,-1.6486,-1.6978,-1.7166,-1.6891,-1.6693,0.0,0.0,0.0,0.0,0.0,0.0,0.0,0.0,0.0,0.0,0.0,0.0,0.0,0.0,0.0,0.0,0.0,0.0,0.0,0.0,0.0,0.0,0.0,0.0,0.0,0.0,0.0,0.0,0.0,0.0,0.0,0.0,0.0,0.0,0.0,0.0,0.0,0.0,0.0,0.0,0.0,0.0,0.0,0.0,0.0,0.0,0.0,0.0,0.0,0.0,0.0,0.0,0.0,0.0,0.0,0.0,0.0,0.0,0.0,0.0,0.0,0.0,0.0,0.0,0.0,0.0,0.0,0.0,0.0,0.0,0.0,0.0,0.0,0.0,0.0,0.0,0.0,0.0,0.0,0.0,0.0,0.0,0.0,0.0,0.0,0.0,0.0,0.0,0.0,0.0,0.0,0.0,0.0,0.0,0.0,0.0,0.0,0.0,0.0,0.0,0.0,0.0,0.0,0.0,0.0,0.0,0.0,0.0,0.0,-1.5716,-1.6486,-1.6978,-1.7028,-1.6775,-1.6628,0.0,0.0,0.0,0.0,0.0,0.0,0.0,0.0,0.0,0.0,0.0,0.0,0.0,0.0,0.0,0.0,0.0,0.0,0.0,0.0,0.0,0.0,0.0,0.0,0.0,0.0,0.0,0.0,0.0,0.0,0.0,0.0,0.0,0.0,0.0,0.0,0.0,0.0,0.0,0.0,0.0,0.0,0.0,0.0,0.0,0.0,0.0,0.0,0.0,0.0,0.0,0.0,0.0,0.0,0.0,0.0,0.0,0.0,0.0,0.0,0.0,0.0,0.0,0.0,0.0,0.0,0.0,0.0,0.0,0.0,0.0,0.0,0.0,0.0,0.0,0.0,0.0,0.0,0.0,0.0,0.0,0.0,0.0,0.0,0.0,0.0,0.0,0.0,0.0,0.0,0.0,0.0,0.0,0.0,0.0,0.0,0.0,0.0,0.0,0.0,0.0,0.0,0.0,0.0,0.0,0.0,0.0,0.0,0.0,-1.6266,-1.6945,-1.7293,-1.7293,-1.7028,-1.6955,0.0,0.0,0.0,0.0,0.0,0.0,0.0,0.0,0.0,0.0,0.0,0.0,0.0,0.0,0.0,0.0,0.0,0.0,0.0,0.0,0.0,0.0,0.0,0.0,0.0,0.0,0.0,0.0,0.0,0.0,0.0,0.0,0.0,0.0,0.0,0.0,0.0,0.0,0.0,0.0,0.0,0.0,0.0,0.0,0.0,0.0,0.0,0.0,0.0,0.0,0.0,0.0,0.0,0.0,0.0,0.0,0.0,0.0,0.0,0.0,0.0,0.0,0.0,0.0,0.0,0.0,0.0,0.0,0.0,0.0,0.0,0.0,0.0,0.0,0.0,0.0,0.0,0.0,0.0,0.0,0.0,0.0,0.0,0.0,0.0,0.0,0.0,0.0,0.0,0.0,0.0,0.0,0.0,0.0,0.0,0.0,0.0,0.0,0.0,0.0,0.0,0.0,0.0,0.0,0.0,0.0,0.0,0.0,-1.6321,-1.744,-1.788,-1.81,-1.8119,-1.7879,-1.7685,0.0,0.0,0.0,0.0,0.0,0.0,0.0,0.0,0.0,0.0,0.0,0.0,0.0,0.0,0.0,0.0,0.0,0.0,0.0,0.0,0.0,0.0,0.0,0.0,0.0,0.0,0.0,0.0,0.0,0.0,0.0,0.0,0.0,0.0,0.0,0.0,0.0,0.0,0.0,0.0,0.0,0.0,0.0,0.0,0.0,0.0,0.0,0.0,0.0,0.0,0.0,0.0,0.0,0.0,0.0,0.0,0.0,0.0,0.0,0.0,0.0,0.0,0.0,0.0,0.0,0.0,0.0,0.0,0.0,0.0,0.0,0.0,0.0,0.0,0.0,0.0,0.0,0.0,0.0,0.0,0.0,0.0,0.0,0.0,0.0,0.0,0.0,0.0,0.0,0.0,0.0,0.0,0.0,0.0,0.0,0.0,0.0,0.0,0.0,0.0,0.0,0.0,0.0,0.0,0.0,0.0,0.0,0.0,0.0,-1.7935,-1.832,-1.854,-1.8522,-1.8488,-1.8156,0.0,0.0,0.0,0.0,0.0,0.0,0.0,0.0,0.0,0.0,0.0,0.0,0.0,0.0,0.0,0.0,0.0,0.0,0.0,0.0,0.0,0.0,0.0,0.0,0.0,0.0,0.0,0.0,0.0,0.0,0.0,0.0,0.0,0.0,0.0,0.0,0.0,0.0,0.0,0.0,0.0,0.0,0.0,0.0,0.0,0.0,0.0,0.0,0.0,0.0,0.0,0.0,0.0,0.0,0.0,0.0,0.0,0.0,0.0,0.0,0.0,0.0,0.0,0.0,0.0,0.0,0.0,0.0,0.0,0.0,0.0,0.0,0.0,0.0,0.0,0.0,0.0,0.0,0.0,0.0,0.0,0.0,0.0,0.0,0.0,0.0,0.0,0.0,0.0,0.0,0.0,0.0,0.0,0.0,0.0,0.0,0.0,0.0,0.0,0.0,0.0,0.0,0.0,0.0,0.0,0.0,0.0,0.0,0.0,-1.9017,-1.9256,-1.9384,-1.9384,-1.9091,-1.8709,-1.8285,0.0,0.0,0.0,0.0,0.0,0.0,0.0,0.0,0.0,0.0,0.0,0.0,0.0,0.0,0.0,0.0,0.0,0.0,0.0,0.0,0.0,0.0,0.0,0.0,0.0,0.0,0.0,0.0,0.0,0.0,0.0,0.0,0.0,0.0,0.0,0.0,0.0,0.0,0.0,0.0,0.0,0.0,0.0,0.0,0.0,0.0,0.0,0.0,0.0,0.0,0.0,0.0,0.0,0.0,0.0,0.0,0.0,0.0,0.0,0.0,0.0,0.0,0.0,0.0,0.0,0.0,0.0,0.0,0.0,0.0,0.0,0.0,0.0,0.0,0.0,0.0,0.0,0.0,0.0,0.0,0.0,0.0,0.0,0.0,0.0,0.0,0.0,0.0,0.0,0.0,0.0,0.0,0.0,0.0,0.0,0.0,0.0,0.0,0.0,0.0,0.0,0.0,0.0,0.0,0.0,0.0,0.0,0.0,-2.0576,-2.0613,-2.0613,-2.0576,-1.9824,-1.9261,0.0,0.0,0.0,0.0,0.0,0.0,0.0,0.0,0.0,0.0,0.0,0.0,0.0,0.0,0.0,0.0,0.0,0.0,0.0,0.0,0.0,0.0,0.0,0.0,0.0,0.0,0.0,0.0,0.0,0.0,0.0,0.0,0.0,0.0,0.0,0.0,0.0,0.0,0.0,0.0,0.0,0.0,0.0,0.0,0.0,0.0,0.0,0.0,0.0,0.0,0.0,0.0,0.0,0.0,0.0,0.0,0.0,0.0,0.0,0.0,0.0,0.0,0.0,0.0,0.0,0.0,0.0,0.0,0.0,0.0,0.0,0.0,0.0,0.0,0.0,0.0,0.0,0.0,0.0,0.0,0.0,0.0,0.0,0.0,0.0,0.0,0.0,0.0,0.0,0.0,0.0,0.0,0.0,0.0,0.0,0.0,0.0,0.0,0.0,0.0,0.0,0.0,0.0,0.0,0.0,0.0,0.0,0.0,0.0,-2.1365,-2.1695,-2.1713,-2.142,-2.0906,-2.0026,0.0,0.0,0.0,0.0,0.0,0.0,0.0,0.0,0.0,0.0,0.0,0.0,0.0,0.0,0.0,0.0,0.0,0.0,0.0,0.0,0.0,0.0,0.0,0.0,0.0,0.0,0.0,0.0,0.0,0.0,0.0,0.0,0.0,0.0,0.0,0.0,0.0,0.0,0.0,0.0,0.0,0.0,0.0,0.0,0.0,0.0,0.0,0.0,0.0,0.0,0.0,0.0,0.0,0.0,0.0,0.0,0.0,0.0,0.0,0.0,0.0,0.0,0.0,0.0,0.0,0.0,0.0,0.0,0.0,0.0,0.0,0.0,0.0,0.0,0.0,0.0,0.0,0.0,0.0,0.0,0.0,0.0,0.0,0.0,0.0,0.0,0.0,0.0,0.0,0.0,0.0,0.0,0.0,0.0,0.0,0.0,0.0,0.0,0.0,0.0,0.0,0.0,0.0,0.0,0.0,0.0,0.0,0.0,-2.0759,-2.197,-2.2538,-2.2648,-2.2172,-2.1511,-2.0521,0.0,0.0,0.0,0.0,0.0,0.0,0.0,0.0,0.0,0.0,0.0,0.0,0.0,0.0,0.0,0.0,0.0,0.0,0.0,0.0,0.0,0.0,0.0,0.0,0.0,0.0,0.0,0.0,0.0,0.0,0.0,0.0,0.0,0.0,0.0,0.0,0.0,0.0,0.0,0.0,0.0,0.0,0.0,0.0,0.0,0.0,0.0,0.0,0.0,0.0,0.0,0.0,0.0,0.0,0.0,0.0,0.0,0.0,0.0,0.0,0.0,0.0,0.0,0.0,0.0,0.0,0.0,0.0,0.0,0.0,0.0,0.0,0.0,0.0,0.0,0.0,0.0,0.0,0.0,0.0,0.0,0.0,0.0,0.0,0.0,0.0,0.0,0.0,0.0,0.0,0.0,0.0,0.0,0.0,0.0,0.0,0.0,0.0,0.0,0.0,0.0,0.0,0.0,0.0,0.0,0.0,0.0,0.0,-2.1163,-2.2373,-2.3143,-2.3249,-2.2848,-2.1841,-2.0814,0.0,0.0,0.0,0.0,0.0,0.0,0.0,0.0,0.0,0.0,0.0,0.0,0.0,0.0,0.0,0.0,0.0,0.0,0.0,0.0,0.0,0.0,0.0,0.0,0.0,0.0,0.0,0.0,0.0,0.0,0.0,0.0,0.0,0.0,0.0,0.0,0.0,0.0,0.0,0.0,0.0,0.0,0.0,0.0,0.0,0.0,0.0,0.0,0.0,0.0,0.0,0.0,0.0,0.0,0.0,0.0,0.0,0.0,0.0,0.0,0.0,0.0,0.0,0.0,0.0,0.0,0.0,0.0,0.0,0.0,0.0,0.0,0.0,0.0,0.0,0.0,0.0,0.0,0.0,0.0,0.0,0.0,0.0,0.0,0.0,0.0,0.0,0.0,0.0,0.0,0.0,0.0,0.0,0.0,0.0,0.0,0.0,0.0,0.0,0.0,0.0,0.0,0.0,0.0,0.0,0.0,0.0,0.0,-2.1585,-2.2683,-2.329,-2.3249,-2.2866,-2.2373,-2.1401,0.0,0.0,0.0,0.0,0.0,0.0,0.0,0.0,0.0,0.0,0.0,0.0,0.0,0.0,0.0,0.0,0.0,0.0,0.0,0.0,0.0,0.0,0.0,0.0,0.0,0.0,0.0,0.0,0.0,0.0,0.0,0.0,0.0,0.0,0.0,0.0,0.0,0.0,0.0,0.0,0.0,0.0,0.0,0.0,0.0,0.0,0.0,0.0,-2.3008,0.0,0.0,0.0,0.0,0.0,0.0,0.0,0.0,0.0,0.0,0.0,0.0,0.0,0.0,0.0,0.0,0.0,0.0,0.0,0.0,0.0,0.0,0.0,0.0,0.0,0.0,0.0,0.0,0.0,0.0,0.0,0.0,0.0,0.0,0.0,0.0,0.0,0.0,0.0,0.0,0.0,0.0,0.0,0.0,0.0,0.0,0.0,0.0,0.0,0.0,0.0,0.0,0.0,0.0,0.0,0.0,0.0,0.0,0.0,-2.1915,-2.2829,-2.3529,-2.3639,-2.3235,-2.2832,-2.186,0.0,0.0,0.0,0.0,0.0,0.0,0.0,0.0,0.0,0.0,0.0,0.0,0.0,0.0,0.0,0.0,0.0,0.0,0.0,0.0,0.0,0.0,0.0,0.0,0.0,0.0,0.0,0.0,0.0,0.0,0.0,0.0,0.0,0.0,0.0,0.0,0.0,0.0,0.0,0.0,0.0,0.0,0.0,0.0,0.0,0.0,0.0,0.0,0.0,0.0,0.0,0.0,0.0,0.0,0.0,0.0,0.0,0.0,0.0,0.0,0.0,0.0,0.0,0.0,0.0,0.0,0.0,0.0,0.0,0.0,0.0,0.0,0.0,0.0,0.0,0.0,0.0,0.0,0.0,0.0,0.0,0.0,0.0,0.0,0.0,0.0,0.0,0.0,0.0,0.0,0.0,0.0,0.0,0.0,0.0,0.0,0.0,0.0,0.0,0.0,0.0,0.0,0.0,0.0,0.0,0.0,0.0,-2.1034,-2.2226,-2.2939,-2.3767,-2.395,-2.3547,-2.3067,-2.2117,-2.0668,0.0,0.0,0.0,0.0,0.0,0.0,0.0,0.0,0.0,0.0,0.0,0.0,0.0,0.0,0.0,0.0,0.0,0.0,0.0,0.0,0.0,0.0,0.0,0.0,0.0,0.0,0.0,0.0,0.0,0.0,0.0,0.0,0.0,0.0,0.0,0.0,0.0,0.0,-2.2539,-2.291,0.0,0.0,0.0,0.0,0.0,0.0,0.0,0.0,-2.334,0.0,0.0,0.0,0.0,0.0,0.0,0.0,0.0,0.0,0.0,0.0,0.0,0.0,0.0,0.0,0.0,0.0,0.0,0.0,0.0,0.0,0.0,0.0,0.0,0.0,0.0,0.0,0.0,0.0,0.0,0.0,0.0,0.0,0.0,0.0,0.0,0.0,0.0,0.0,0.0,0.0,0.0,0.0,0.0,0.0,0.0,0.0,0.0,0.0,0.0,0.0,0.0,0.0,0.0,0.0,0.0,-2.0301,-2.1585,-2.263,-2.3437,-2.3914,-2.395,-2.3565,-2.3162,-2.2245,-2.1053,0.0,0.0,0.0,0.0,0.0,0.0,0.0,0.0,0.0,0.0,0.0,0.0,0.0,0.0,0.0,0.0,0.0,0.0,0.0,0.0,0.0,0.0,0.0,0.0,0.0,0.0,0.0,0.0,0.0,0.0,0.0,0.0,0.0,0.0,0.0,0.0,0.0,0.0,0.0,-2.3086,-2.3144,0.0,0.0,0.0,0.0,0.0,0.0,0.0,0.0,-2.4082,0.0,0.0,0.0,0.0,0.0,0.0,0.0,0.0,0.0,0.0,0.0,0.0,0.0,0.0,0.0,0.0,0.0,0.0,0.0,0.0,0.0,0.0,0.0,0.0,0.0,0.0,0.0,0.0,0.0,0.0,0.0,0.0,0.0,0.0,0.0,0.0,0.0,0.0,0.0,0.0,0.0,0.0,0.0,0.0,0.0,0.0,0.0,0.0,0.0,0.0,0.0,0.0,0.0,0.0,0.0,-2.0503,-2.1713,-2.2722,-2.3529,-2.3932,-2.406,-2.3859,-2.3272,-2.2483,0.0,0.0,0.0,0.0,0.0,0.0,0.0,0.0,0.0,0.0,0.0,0.0,0.0,0.0,0.0,0.0,0.0,0.0,0.0,0.0,0.0,0.0,0.0,0.0,0.0,0.0,0.0,0.0,0.0,0.0,0.0,0.0,0.0,0.0,0.0,0.0,0.0,0.0,0.0,0.0,-2.332,-2.3477,-2.3477,0.0,0.0,0.0,0.0,0.0,0.0,-2.4414,-2.4355,0.0,0.0,0.0,0.0,0.0,0.0,0.0,0.0,0.0,0.0,0.0,0.0,0.0,0.0,0.0,0.0,0.0,0.0,0.0,0.0,0.0,0.0,0.0,0.0,0.0,0.0,0.0,0.0,0.0,0.0,0.0,0.0,0.0,0.0,0.0,0.0,0.0,0.0,0.0,0.0,0.0,0.0,0.0,0.0,0.0,0.0,0.0,0.0,0.0,0.0,0.0,0.0,0.0,0.0,0.0,-2.0741,-2.1878,-2.285,-2.3639,-2.3987,-2.4152,-2.4134,-2.3363,-2.2575,0.0,0.0,0.0,0.0,0.0,0.0,0.0,0.0,0.0,0.0,0.0,0.0,0.0,0.0,0.0,0.0,0.0,0.0,0.0,0.0,0.0,0.0,0.0,0.0,0.0,0.0,0.0,0.0,0.0,0.0,0.0,0.0,0.0,0.0,0.0,0.0,0.0,0.0,0.0,0.0,0.0,-2.3738,-2.3816,-2.4108,0.0,0.0,0.0,0.0,-2.4902,-2.4941,0.0,0.0,0.0,0.0,0.0,0.0,0.0,0.0,0.0,0.0,0.0,0.0,0.0,0.0,0.0,0.0,0.0,0.0,0.0,0.0,0.0,0.0,0.0,0.0,0.0,0.0,0.0,0.0,0.0,0.0,0.0,0.0,0.0,0.0,0.0,0.0,0.0,0.0,0.0,0.0,0.0,0.0,0.0,0.0,0.0,0.0,0.0,0.0,0.0,0.0,0.0,0.0,0.0,0.0,0.0,0.0,-2.1566,-2.2447,-2.3272,-2.4042,-2.4134,-2.4152,-2.4152,-2.3382,-2.2482,0.0,0.0,0.0,0.0,0.0,0.0,0.0,0.0,0.0,0.0,0.0,0.0,0.0,0.0,0.0,0.0,0.0,0.0,0.0,0.0,0.0,0.0,0.0,0.0,0.0,0.0,0.0,0.0,0.0,0.0,0.0,0.0,0.0,0.0,0.0,0.0,0.0,0.0,0.0,0.0,0.0,-2.3544,-2.3909,-2.4006,-2.4294,0.0,0.0,-2.584,-2.6602,-2.6719,0.0,0.0,0.0,0.0,0.0,0.0,0.0,0.0,0.0,0.0,0.0,0.0,0.0,0.0,0.0,0.0,0.0,0.0,0.0,0.0,0.0,0.0,0.0,0.0,0.0,0.0,0.0,0.0,0.0,0.0,0.0,0.0,0.0,0.0,0.0,0.0,0.0,0.0,0.0,0.0,0.0,0.0,0.0,0.0,0.0,0.0,0.0,0.0,0.0,0.0,0.0,0.0,0.0,0.0,0.0,-2.0099,-2.1695,-2.2538,-2.3345,-2.4115,-2.4152,-2.4152,-2.4152,-2.3363,-2.2574,0.0,0.0,0.0,0.0,0.0,0.0,0.0,0.0,0.0,0.0,0.0,0.0,0.0,0.0,0.0,0.0,0.0,0.0,0.0,0.0,0.0,0.0,0.0,0.0,0.0,0.0,0.0,0.0,0.0,0.0,0.0,0.0,0.0,0.0,0.0,0.0,0.0,0.0,0.0,0.0,0.0,0.0,-2.4488,-2.4871,0.0,0.0,0.0,-2.6602,-2.6953,0.0,0.0,0.0,0.0,0.0,0.0,0.0,0.0,0.0,0.0,0.0,0.0,0.0,0.0,0.0,0.0,0.0,0.0,0.0,0.0,0.0,0.0,0.0,0.0,0.0,0.0,0.0,0.0,0.0,0.0,0.0,0.0,0.0,0.0,0.0,0.0,0.0,0.0,0.0,0.0,0.0,0.0,0.0,0.0,0.0,0.0,0.0,0.0,0.0,0.0,0.0,0.0,0.0,0.0,0.0,0.0,0.0,-2.1713,-2.2446,-2.3345,-2.4115,-2.4152,-2.4152,-2.4152,-2.3474,0.0,0.0,0.0,0.0,0.0,0.0,0.0,0.0,0.0,0.0,0.0,0.0,0.0,0.0,0.0,0.0,0.0,0.0,0.0,0.0,0.0,0.0,0.0,0.0,0.0,0.0,0.0,-1.9219,0.0,0.0,0.0,0.0,0.0,0.0,0.0,0.0,0.0,0.0,0.0,0.0,0.0,0.0,-2.445,-2.4881,-2.5553,-2.6174,0.0,0.0,-2.7324,-2.7344,-2.7422,-2.7324,0.0,0.0,0.0,0.0,0.0,0.0,0.0,0.0,0.0,0.0,0.0,0.0,0.0,0.0,0.0,0.0,0.0,0.0,0.0,0.0,0.0,0.0,0.0,0.0,0.0,0.0,0.0,0.0,0.0,0.0,0.0,0.0,0.0,0.0,0.0,0.0,0.0,0.0,0.0,0.0,0.0,0.0,0.0,0.0,0.0,0.0,0.0,0.0,0.0,0.0,0.0,0.0,0.0,0.0,0.0,-2.1695,-2.2446,-2.3345,-2.4115,-2.4152,-2.4152,-2.4152,-2.373,-2.3143,0.0,0.0,0.0,0.0,0.0,0.0,0.0,0.0,0.0,0.0,0.0,0.0,0.0,0.0,0.0,0.0,0.0,0.0,0.0,0.0,0.0,0.0,0.0,0.0,0.0,0.0,0.0,0.0,0.0,0.0,0.0,0.0,0.0,0.0,0.0,0.0,0.0,0.0,0.0,0.0,0.0,-2.4899,-2.5032,-2.5748,-2.6286,0.0,0.0,-2.8203,-2.8203,-2.8535,-2.8516,-2.7715,0.0,0.0,0.0,0.0,0.0,0.0,0.0,0.0,0.0,0.0,0.0,0.0,0.0,0.0,0.0,0.0,0.0,0.0,0.0,0.0,0.0,0.0,0.0,0.0,0.0,0.0,0.0,0.0,0.0,0.0,0.0,0.0,0.0,0.0,0.0,0.0,0.0,0.0,0.0,0.0,0.0,0.0,0.0,0.0,0.0,0.0,0.0,0.0,0.0,0.0,0.0,0.0,0.0,-2.0374,-2.1624,-2.2446,-2.3474,-2.4482,-2.4537,-2.4537,-2.4537,-2.4134,-2.3657,0.0,0.0,0.0,0.0,0.0,0.0,0.0,0.0,0.0,0.0,0.0,0.0,0.0,0.0,0.0,0.0,0.0,0.0,0.0,0.0,0.0,0.0,0.0,0.0,0.0,0.0,0.0,0.0,-2.1269,-2.1641,-2.1641,0.0,0.0,0.0,0.0,0.0,0.0,0.0,0.0,0.0,0.0,-2.4889,-2.5442,-2.6097,0.0,0.0,-2.8269,-2.8769,-2.9043,-2.8984,-2.8711,-2.8144,-2.7695,0.0,0.0,0.0,0.0,0.0,0.0,0.0,0.0,0.0,0.0,0.0,0.0,0.0,0.0,0.0,0.0,0.0,0.0,0.0,0.0,0.0,0.0,0.0,0.0,0.0,0.0,0.0,0.0,0.0,0.0,0.0,0.0,0.0,0.0,0.0,0.0,0.0,0.0,0.0,0.0,0.0,0.0,0.0,0.0,0.0,0.0,0.0,0.0,0.0,0.0,0.0,0.0,-2.0704,-2.1896,-2.2832,-2.3785,-2.4757,-2.4904,-2.4959,-2.4941,-2.4556,-2.4152,0.0,0.0,0.0,0.0,0.0,0.0,0.0,0.0,0.0,0.0,0.0,0.0,0.0,0.0,0.0,0.0,0.0,0.0,0.0,0.0,0.0,0.0,0.0,0.0,0.0,0.0,0.0,0.0,-2.1816,-2.2129,-2.2246,0.0,0.0,0.0,0.0,0.0,0.0,0.0,0.0,0.0,0.0,-2.5264,-2.5871,-2.6748,-2.7618,-2.843,-2.8939,-2.9375,-2.9551,-2.9414,-2.916,-2.873,0.0,0.0,0.0,0.0,0.0,0.0,0.0,0.0,0.0,0.0,0.0,0.0,0.0,0.0,0.0,0.0,0.0,0.0,0.0,0.0,0.0,0.0,0.0,0.0,0.0,0.0,0.0,0.0,0.0,0.0,-1.6762,0.0,0.0,0.0,0.0,0.0,0.0,0.0,0.0,0.0,0.0,0.0,0.0,0.0,0.0,0.0,0.0,0.0,0.0,0.0,0.0,0.0,0.0,-2.1108,-2.23,-2.3492,-2.4335,-2.4794,-2.5161,-2.5362,-2.5344,-2.4977,-2.4574,-2.4134,0.0,0.0,0.0,0.0,0.0,0.0,0.0,0.0,0.0,0.0,0.0,0.0,0.0,0.0,0.0,0.0,0.0,0.0,0.0,0.0,0.0,0.0,0.0,0.0,0.0,0.0,-2.1894,-2.2246,-2.2656,0.0,0.0,0.0,0.0,0.0,0.0,0.0,0.0,0.0,0.0,-2.5421,-2.6201,-2.6424,-2.7625,-2.8468,-2.8526,-2.9405,-3.0019,-2.9648,-2.9902,-3.0039,0.0,0.0,0.0,0.0,0.0,0.0,0.0,0.0,0.0,0.0,0.0,0.0,0.0,0.0,0.0,0.0,0.0,0.0,0.0,0.0,0.0,0.0,0.0,0.0,0.0,0.0,0.0,-1.7644,-1.7757,0.0,0.0,0.0,0.0,0.0,0.0,0.0,0.0,0.0,0.0,0.0,-1.8705,-1.8852,0.0,0.0,0.0,0.0,0.0,0.0,0.0,0.0,0.0,0.0,0.0,0.0,-2.1658,-2.2337,-2.3529,-2.4482,-2.5161,-2.5564,-2.5766,-2.5748,-2.5637,-2.5124,-2.4288,0.0,0.0,0.0,0.0,0.0,0.0,0.0,0.0,0.0,0.0,0.0,0.0,0.0,0.0,0.0,0.0,0.0,0.0,0.0,0.0,0.0,0.0,0.0,0.0,0.0,-2.2506,0.0,0.0,0.0,0.0,0.0,0.0,0.0,0.0,0.0,0.0,0.0,-2.4884,-2.5201,-2.5872,-2.6654,-2.7264,-2.8033,-2.881,0.0,0.0,0.0,0.0,0.0,0.0,0.0,0.0,0.0,0.0,0.0,0.0,0.0,0.0,-2.9219,-2.8086,-2.7871,-2.7949,-2.8223,0.0,0.0,0.0,0.0,0.0,0.0,0.0,0.0,0.0,0.0,0.0,0.0,0.0,0.0,-1.9596,0.0,-1.9877,0.0,0.0,0.0,0.0,0.0,0.0,0.0,0.0,-1.9993,-2.009,-2.0136,-2.0154,-2.0154,0.0,-2.0154,-1.9604,0.0,0.0,0.0,0.0,0.0,0.0,0.0,0.0,-2.2282,-2.2978,-2.4024,-2.4904,-2.5564,-2.5968,-2.6188,-2.6188,-2.6041,-2.5527,-2.4611,-2.4042,-2.34,0.0,0.0,0.0,0.0,0.0,0.0,0.0,0.0,0.0,0.0,0.0,0.0,0.0,0.0,0.0,0.0,0.0,0.0,0.0,0.0,0.0,0.0,0.0,-2.3564,0.0,0.0,0.0,0.0,0.0,0.0,0.0,0.0,0.0,-2.4929,-2.5099,-2.5515,-2.6134,-2.6683,-2.7233,-2.8218,0.0,0.0,0.0,0.0,0.0,0.0,0.0,-3.0879,-3.0879,-3.0879,-3.0937,-3.1074,-3.1348,-3.1601,-3.1738,0.0,0.0,-2.9512,-2.9199,-2.9316,-2.9746,-2.9824,-3.0078,-3.0937,-3.1094,-3.123,0.0,0.0,0.0,0.0,0.0,0.0,0.0,0.0,-2.2109,-2.2109,0.0,-2.2315,0.0,0.0,0.0,0.0,0.0,-2.1728,0.0,0.0,-2.1494,-2.1646,-2.175,-2.175,-2.1768,-2.1786,-2.1786,-2.1786,-2.1695,-2.0228,0.0,0.0,0.0,0.0,0.0,0.0,-2.296,-2.4097,-2.4941,-2.5582,-2.5949,-2.6371,-2.6591,-2.6573,-2.6206,-2.5803,-2.5381,-2.4629,-2.4189,-2.4115,-2.2667,0.0,0.0,0.0,0.0,0.0,0.0,0.0,0.0,0.0,0.0,0.0,0.0,0.0,0.0,0.0,0.0,0.0,0.0,0.0,0.0,-2.4196,0.0,0.0,0.0,0.0,0.0,0.0,0.0,0.0,0.0,0.0,-2.5506,-2.5814,-2.6385,-2.7416,0.0,0.0,0.0,0.0,-3.0254,-3.0273,-3.0976,-3.1543,-3.1543,-3.1894,-3.2168,-3.2168,0.0,0.0,-3.2773,-3.2851,-3.2969,-3.3379,-3.3418,-3.2949,-3.1328,-3.0996,-3.1094,-3.1504,-3.1601,-3.1894,-3.2637,-3.2793,-3.293,-2.483,0.0,0.0,0.0,0.0,-2.4751,-2.4648,-2.4587,-2.4424,-2.4341,-2.4402,-2.4566,0.0,0.0,0.0,0.0,0.0,0.0,-2.3714,-2.331,-2.3313,-2.3218,-2.2871,-2.2852,-2.2926,-2.3015,-2.3033,-2.318,-2.3437,-2.2997,-2.219,-2.1071,0.0,0.0,0.0,0.0,-2.3804,-2.4288,-2.5234,-2.5839,-2.5949,-2.6371,-2.6591,-2.6591,-2.6481,-2.6224,-2.5803,-2.5564,-2.5051,-2.4288,-2.3712,0.0,0.0,0.0,0.0,0.0,0.0,0.0,0.0,0.0,0.0,0.0,0.0,0.0,0.0,0.0,0.0,0.0,0.0,0.0,-2.4836,-2.5279,-2.5603,0.0,0.0,0.0,0.0,0.0,0.0,0.0,0.0,0.0,-2.7824,-2.7535,-2.7564,0.0,0.0,-2.9524,-3.0334,-3.0859,-3.125,-3.1562,-3.1816,0.0,-3.1992,-3.2344,-3.2617,-3.2617,-3.3125,-3.3672,-3.4082,-3.416,-3.418,-3.4316,-3.4336,-3.416,-3.373,-3.3105,-3.2891,-3.3223,-3.334,-3.3516,-3.4004,-3.416,-3.4199,-2.7543,-2.6986,-2.6714,-2.6585,-2.6758,-2.6868,-2.6845,-2.6845,-2.6476,-2.6389,-2.6389,-2.6282,-2.6129,-2.5869,-2.6236,0.0,0.0,0.0,-2.5468,-2.5269,-2.5179,-2.4908,-2.4657,-2.456,-2.4515,-2.4461,-2.4461,-2.449,-2.4647,-2.4629,-2.4152,-2.3198,0.0,0.0,-2.3308,-2.4042,-2.4556,-2.4886,-2.5582,-2.6041,-2.6206,-2.6463,-2.6591,-2.6591,-2.6591,-2.6481,-2.6224,-2.6041,-2.5619,-2.4904,-2.4574,-2.4085,0.0,0.0,0.0,0.0,0.0,0.0,0.0,0.0,0.0,0.0,0.0,-2.3578,0.0,0.0,0.0,0.0,-2.5715,-2.6177,-2.6742,-2.7066,0.0,0.0,0.0,0.0,0.0,0.0,0.0,-2.7695,-2.8144,-2.875,-2.959,-2.9517,-2.9366,-2.9463,-3.0083,-3.0665,-3.1348,0.0,-3.2109,-3.2383,-3.2715,-3.291,-3.293,-3.3281,-3.3555,-3.3555,-3.3965,-3.4531,-3.5117,-3.5234,-3.5351,-3.5644,-3.5742,-3.5723,-3.5742,-3.5293,-3.4902,-3.4863,-3.5,-3.5234,-3.5644,-3.5723,-3.5723,-2.9796,-2.9786,-2.8718,-2.8265,-2.8244,-2.868,-2.8948,-2.8833,-2.8396,-2.8222,-2.8178,-2.7741,-2.7545,-2.7545,-2.7501,0.0,-2.7277,-2.6986,-2.6907,-2.7058,-2.6866,-2.6705,-2.6666,-2.6686,-2.6416,-2.5937,-2.5834,-2.5748,-2.5558,-2.5472,-2.5472,-2.5454,-2.4721,-2.4519,-2.4812,-2.4867,-2.5234,-2.5949,-2.5986,-2.6206,-2.6573,-2.6628,-2.6628,-2.6646,-2.6664,-2.6664,-2.6628,-2.6261,-2.6023,-2.5949,-2.5271,-2.4785,-2.4542,0.0,0.0,0.0,0.0,0.0,0.0,0.0,0.0,0.0,0.0,0.0,0.0,0.0,0.0,0.0,-2.7777,0.0,-2.889,-2.9132,0.0,0.0,0.0,-2.9517,-2.8836,-2.9031,-2.9259,-2.9192,0.0,0.0,-3.0937,-3.1406,-3.1523,-3.1191,-3.1445,-3.1836,-3.2266,-3.2695,-3.2949,-3.2988,-3.3613,-3.4101,-3.4062,-3.4453,-3.4785,-3.4844,-3.4883,-3.5273,-3.5957,-3.6113,-3.6445,-3.7051,-3.7285,-3.7246,-3.7285,-3.7168,-3.7109,-3.6309,-3.6426,-3.6797,-3.709,-3.7148,-3.7129,-3.0112,-3.0112,-3.0209,-3.0013,-2.9707,-2.9816,-2.986,-2.986,-2.9751,-2.9685,-2.9685,-2.9576,-2.9532,-2.951,-2.9139,-2.9161,-2.9437,-2.9128,-2.8946,-2.8789,-2.8593,-2.8202,-2.7602,-2.7602,-2.7373,-2.696,-2.6646,-2.6605,-2.6584,-2.6406,-2.6298,-2.6279,-2.6114,-2.5748,-2.5271,-2.5527,-2.5766,-2.5968,-2.6279,-2.6481,-2.6591,-2.6885,-2.705,-2.7031,-2.7325,-2.7343,-2.705,-2.694,-2.6591,-2.5986,-2.5766,-2.5595,-2.519,-2.4597,0.0,0.0,0.0,0.0,0.0,0.0,0.0,0.0,0.0,-2.6018,-2.7613,0.0,-2.8191,0.0,-2.9428,-2.9976,-3.0649,-3.0713,0.0,0.0,-3.0995,-3.0979,-3.0694,-3.0709,-3.083,-3.1169,-3.1113,-3.1387,-3.2226,-3.2715,-3.3066,-3.3281,-3.3105,-3.3125,-3.3555,-3.3984,-3.4258,-3.4258,-3.4414,-3.4551,-3.4648,-3.5215,-3.582,-3.6152,-3.6445,-3.6758,-3.6953,-3.6992,-3.707,-3.7266,-3.7305,-3.7305,-3.7324,-3.7539,-3.7695,-3.75,-3.7305,-3.7187,-3.7285,-3.7305,-3.7305,-3.0843,-3.0865,-3.1105,-3.1061,-3.0843,-3.0843,-3.0843,-3.0821,-3.0603,-3.0515,-3.0493,-3.0297,-3.0209,-3.0209,-2.9925,-2.9969,-3.0209,-2.9992,-2.9925,-2.992,-2.9821,-2.9425,-2.9003,-2.8901,-2.8629,-2.8203,-2.7776,-2.7573,-2.753,-2.7216,-2.7105,-2.7105,-2.7105,-2.6885,-2.6463,-2.6481,-2.6591,-2.6774,-2.6995,-2.7123,-2.7123,-2.7325,-2.7435,-2.7435,-2.7655,-2.7655,-2.7453,-2.7435,-2.7233,-2.6793,-2.6591,-2.6316,-2.5931,-2.5393,-2.5181,0.0,0.0,0.0,0.0,0.0,0.0,0.0,0.0,0.0,0.0,0.0,-2.9956,-3.0974,-3.1658,-3.2184,-3.2448,-3.2833,-3.2833,-3.2598,-3.2922,-3.3044,-3.2612,-3.2724,-3.2808,-3.2893,-3.2907,-3.2956,-3.332,-3.373,-3.416,-3.459,-3.4453,-3.4316,-3.4375,-3.4726,-3.5,-3.5,-3.5332,-3.5664,-3.582,-3.6269,-3.666,-3.6914,-3.7148,-3.7363,-3.7539,-3.7578,-3.7637,-3.7812,-3.7871,-3.7871,-3.7871,-3.8047,-3.8203,-3.8184,-3.8027,-3.7891,-3.7871,-3.7871,-3.7871,-3.1629,-3.1629,-3.1629,-3.1629,-3.1629,-3.1629,-3.1629,-3.1586,-3.1171,-3.0996,-3.0974,-3.0559,-3.0384,-3.0384,-3.0384,-3.0384,-3.0406,-3.0406,-3.0547,-3.068,-3.0803,-3.0734,-3.0663,-3.0475,-3.0048,-2.951,-2.9004,-2.8665,-2.8333,-2.7992,-2.7879,-2.7765,-2.7765,-2.7783,-2.782,-2.7508,-2.7471,-2.7746,-2.7765,-2.7765,-2.7765,-2.782,-2.7838,-2.7856,-2.7893,-2.7893,-2.7838,-2.7838,-2.782,-2.7765,-2.7435,-2.7086,-2.6756,-2.6334,-2.6014,0.0,-2.5914,0.0,0.0,0.0,0.0,0.0,0.0,0.0,0.0,-3.1184,-3.1882,-3.3416,-3.4097,-3.4472,-3.4506,-3.5043,-3.52,-3.4658,-3.5321,-3.541,-3.4756,-3.4977,-3.4923,-3.4458,-3.4565,-3.4547,-3.4367,-3.457,-3.4961,-3.5371,-3.5488,-3.541,-3.5098,-3.5332,-3.5586,-3.5566,-3.623,-3.6738,-3.707,-3.7266,-3.7363,-3.7363,-3.748,-3.7578,-3.7949,-3.8066,-3.8223,-3.8555,-3.8691,-3.875,-3.875,-3.875,-3.875,-3.8769,-3.8769,-3.873,-3.8633,-3.8613,-3.8672,-3.1629,-3.1629,-3.1629,-3.1629,-3.1629,-3.1629,-3.1629,-3.1607,-3.152,-3.1498,-3.1476,-3.1389,-3.1345,-3.1367,-3.1345,-3.1367,-3.1367,-3.1345,-3.1629,-3.2006,-3.2006,-3.2141,-3.2255,-3.2169,-3.1782,-3.0977,-3.0429,-2.9695,-2.8897,-2.8333,-2.7992,-2.7765,-2.7765,-2.793,-2.826,0.0,0.0,0.0,-2.7765,-2.7765,-2.7765,-2.8095,-2.8278,-2.8278,-2.859,0.0,-2.8297,-2.8278,-2.8113,-2.7783,-2.7691,0.0,0.0,0.0,0.0,0.0,0.0,0.0,0.0,0.0,0.0,0.0,-3.1998,-3.2634,-3.3302,-3.4313,-3.521,-3.5869,-3.5936,-3.6197,-3.6567,-3.7082,-3.7325,-3.7229,-3.7746,-3.7835,-3.7458,-3.6979,-3.6686,-3.628,-3.559,-3.525,-3.5435,-3.5481,-3.543,-3.584,-3.6211,-3.6387,-3.6289,-3.6328,-3.6426,-3.6465,-3.6875,-3.7207,-3.7285,-3.7598,-3.7812,-3.7832,-3.8125,-3.834,-3.8457,-3.875,-3.8945,-3.9082,-3.9394,-3.9629,-3.9629,-3.9648,-3.959,-3.9648,-3.9629,-3.9531,-3.916,-3.9082,-3.918,-3.1629,0.0,-3.1629,-3.1629,0.0,-3.1629,-3.1629,-3.1629,-3.1629,-3.1629,-3.1629,-3.1629,-3.176,-3.2001,-3.2001,-3.211,-3.2328,-3.2328,-3.2459,-3.2721,-3.2721,-3.2746,-3.2857,-3.2749,-3.2446,-3.1892,-3.1096,-3.0545,-2.9967,-2.9181,-2.87,-2.8602,-2.8486,-2.848,-2.8682,-2.8682,-2.8572,-2.837,-2.837,-2.837,-2.837,-2.8572,-2.8682,-2.87,-2.8865,0.0,0.0,0.0,0.0,0.0,0.0,0.0,0.0,0.0,0.0,-2.8403,-2.8445,-2.8653,-2.9439,-3.0326,-3.1401,-3.3119,-3.5021,-3.5953,-3.5445,-3.6521,-3.7497,-3.7995,-3.8078,-3.8179,-3.8551,-3.8819,-3.9075,-3.8975,-3.9299,-3.94,-3.9045,-3.8633,-3.8231,-3.7686,-3.6942,-3.6363,-3.6162,-3.6169,-3.6094,-3.6328,-3.6719,-3.6973,-3.6973,-3.6973,-3.7031,-3.7246,-3.7441,-3.7676,-3.7891,-3.8066,-3.8242,-3.8301,-3.8594,-3.8848,-3.8887,-3.9238,-3.9531,-3.957,-3.9746,-3.9883,-3.9883,-3.9883,-3.9883,-3.9883,-3.9883,-4.0019,-4.0059,-3.9844,-3.9609,-3.1629,-3.1629,-3.1629,-3.1629,-3.1629,-3.1629,-3.1673,-3.176,0.0,0.0,0.0,-3.1848,-3.211,-3.2503,-3.2503,-3.27,-3.3071,-3.3071,-3.3115,-3.3202,-3.318,-3.3246,-3.3333,-3.3117,-3.2876,-3.2685,-3.1902,-3.1311,-3.1073,-3.0138,-2.9667,-2.945,-2.9213,-2.9112,-2.8993,-2.8975,-2.8975,-2.8975,-2.8975,-2.8975,-2.8975,-2.8975,-2.8975,-2.8975,-2.9048,-2.9085,-2.9085,-2.9159,-2.9195,-2.9195,-2.8902,-2.8865,-2.9159,-2.8883,-2.9002,-2.9628,-2.9665,-3.0181,-3.1072,-3.1624,-3.2832,-3.5086,-3.767,-3.8649,-3.735,-3.8433,-3.9308,-3.9893,-3.9909,-4.0014,-4.0197,-4.0412,-4.0457,-4.023,-4.0457,-4.0615,-4.0367,-4.0052,-3.9541,-3.8993,-3.8109,-3.7522,-3.6773,-3.6818,-3.6857,-3.6816,-3.7148,-3.7461,-3.748,-3.7461,-3.7559,-3.791,-3.8027,-3.8164,-3.8457,-3.8652,-3.8672,-3.8691,-3.9043,-3.9316,-3.9375,-3.9707,-3.998,-4.0,-4.0098,-4.0273,-4.0273,-4.041,-4.0332,-4.0332,-4.0351,-4.0547,-4.1133,-4.0859,-4.043,-3.1629,-3.1629,-3.1629,-3.1629,-3.1629,-3.1629,-3.187,-3.2263,-3.2285,-3.2285,-3.2306,-3.2678,-3.2896,-3.2962,-3.2962,-3.3005,-3.3071,-3.3071,-3.3289,-3.3704,-3.3683,-3.3923,-3.4316,-3.4205,-3.4137,-3.3866,-3.317,-3.2509,-3.1672,-3.0976,-3.0255,-2.9568,-2.945,-2.935,-2.8993,-2.8975,-2.8975,-2.8975,-2.8975,-2.8975,-2.8975,-2.8975,-2.8975,-2.8993,-2.9324,-2.9489,-2.9489,-2.9837,-3.0039,-3.002,-2.9984,-2.9965,-3.002,-2.9984,-3.013,-3.0622,-3.0928,-3.1327,-3.2169,-3.3418,-3.5224,-3.7609,-3.8993,-3.9456,-3.8851,-4.0083,-4.0912,-4.1074,-4.1222,-4.1374,-4.1365,-4.1433,-4.1534,-4.1556,-4.1856,-4.1902,-4.1542,-4.103,-4.0408,-3.9735,-3.8681,-3.8068,-3.7718,-3.7331,-3.7153,-3.7328,-3.7578,-3.7949,-3.8184,-3.8086,-3.8047,-3.8359,-3.8476,-3.8516,-3.8633,-3.8906,-3.9082,-3.9121,-3.9492,-3.9785,-3.9785,-4.0195,-4.0469,-4.0449,-4.0996,-4.1406,-4.1484,-4.1836,-4.1875,-4.1875,-4.1855,-4.1992,-4.2168,-4.2051,-4.2012,-3.1629,-3.1629,-3.1629,-3.1782,-3.2044,-3.2306,-3.2547,-3.2765,-3.3049,-3.3005,-3.2787,-3.2984,-3.3202,-3.3464,-3.3464,-3.3617,-3.3857,-3.3857,-3.3967,-3.4185,-3.4185,-3.4294,-3.4513,-3.4534,-3.4423,-3.4086,-3.3501,-3.3059,-3.2595,-3.1681,-3.1072,-3.0686,-3.0121,-2.9757,-2.9654,-2.9635,-2.9635,-2.9635,-2.9415,-2.9305,-2.9305,-2.9525,-2.9635,-2.9654,-2.9837,-2.991,-2.991,-3.0094,-3.0204,-3.0204,-3.0406,-3.0607,-3.0827,-3.1047,-3.1359,-3.1744,-3.1911,-3.2376,-3.3084,-3.5032,-3.6908,-3.8551,-3.9831,-4.0531,-4.0535,-4.1237,-4.1823,-4.2102,-4.2358,-4.2474,-4.2474,-4.2557,-4.257,-4.257,-4.257,-4.2443,-4.2316,-4.1806,-4.1147,-4.0716,-3.9704,-3.9093,-3.8733,-3.8187,-3.7966,-3.794,-3.8151,-3.8359,-3.8555,-3.8613,-3.8594,-3.8613,-3.8769,-3.8906,-3.8945,-3.9277,-3.9531,-3.959,-3.9941,-4.0195,-4.0273,-4.0742,-4.1152,-4.125,-4.1738,-4.209,-4.2148,-4.2285,-4.2402,-4.2422,-4.2422,-4.248,-4.2695,-4.2949,-4.2949,-3.1629,-3.1629,-3.1629,-3.1913,-3.2437,-3.3005,-3.3224,-3.3289,-3.3748,-3.3748,-3.342,-3.3399,-3.3595,-3.3945,-3.3967,-3.4163,-3.4491,-3.4534,-3.4513,-3.4534,-3.4534,-3.4534,-3.4534,-3.4534,-3.4466,-3.4328,-3.3763,-3.3654,-3.3492,-3.2494,-3.1816,-3.1501,-3.068,-3.0204,-3.0204,-3.0204,-3.0204,-3.0185,-2.9965,-2.98,-2.9727,-3.0039,-3.0204,-3.0204,-3.0296,-3.0332,-3.0332,-3.0516,-3.0607,-3.0626,-3.0992,-3.1341,-3.1634,-3.1964,-3.2313,-3.268,-3.2735,-3.3174,-3.4203,-3.6334,-3.8136,-3.9325,-4.0555,-4.1421,-4.1888,-4.2097,-4.2381,-4.2753,-4.3028,-4.3302,-4.3177,-4.3177,-4.32,-4.32,-4.2949,-4.2766,-4.2731,-4.2372,-4.1911,-4.1573,-4.0865,-4.0231,-3.9737,-3.9131,-3.8664,-3.8537,-3.8602,-3.8711,-3.875,-3.9082,-3.918,-3.9062,-3.916,-3.9336,-3.9375,-3.9726,-4.0,-4.0039,-4.0488,-4.0781,-4.0957,-4.1465,-4.1875,-4.1953,-4.2266,-4.2539,-4.2578,-4.2676,-4.2754,-4.2793,-4.2812,-4.291,-4.334,-4.3613,-4.3613,-3.1629,-3.1629,-3.1629,-3.1913,-3.2503,-3.3355,-3.3726,-3.3792,-3.4229,-3.4447,-3.4338,-3.4403,-3.4382,-3.4447,-3.4447,-3.4469,-3.4534,-3.4534,-3.4534,-3.4534,-3.4534,-3.4534,-3.4534,-3.4534,-3.4753,-3.4989,-3.4804,-3.4487,-3.4463,-3.3653,-3.2714,-3.1275,-3.0556,-3.0222,-3.0222,-3.0222,-3.0222,-3.0204,-3.0516,-3.0497,-3.0167,-3.0185,-3.0204,-3.0204,-3.0552,-3.0736,-3.0772,-3.1451,-3.1836,-3.1873,-3.2203,-3.2423,-3.2478,-3.2514,-3.2735,-3.3138,-3.3175,-3.3848,-3.5665,-3.7226,-3.8555,-3.991,-4.0862,-4.1572,-4.2212,-4.2546,-4.2753,-4.2846,-4.3098,-4.3326,-4.3326,-4.3098,-4.3019,-4.3088,-4.2685,-4.2522,-4.2913,-4.2769,-4.2429,-4.2238,-4.1746,-4.1244,-4.0452,-3.9777,-3.9251,-3.8767,-3.8975,-3.9101,-3.918,-3.9531,-3.9824,-3.9766,-3.9824,-3.9844,-3.9883,-4.0195,-4.0449,-4.0547,-4.1133,-4.1504,-4.168,-4.1992,-4.2363,-4.2422,-4.2734,-4.2988,-4.3105,-4.3281,-4.3516,-4.3516,-4.3555,-4.3711,-4.4141,-4.4297,-4.4101,-3.1629,-3.1651,-3.1957,-3.2525,-3.3268,-3.3945,-3.4229,-3.425,-3.4447,-3.4534,-3.4534,-3.4534,-3.4534,-3.4534,-3.4534,-3.4534,-3.4534,-3.4534,-3.4534,-3.4534,-3.4534,-3.4666,-3.4906,-3.4928,-3.519,-3.5627,-3.5186,-3.5093,-3.5044,-3.4248,-3.3139,-3.2017,-3.1407,-3.1154,-3.0901,-3.0901,-3.0901,-3.0901,-3.1304,-3.1414,-3.1249,-3.1029,-3.0901,-3.0937,-3.1286,-3.1506,-3.1561,-3.2056,-3.2349,-3.2386,-3.2753,-3.2973,-3.2973,-3.3193,-3.3395,-3.356,-3.3972,-3.4732,-3.5957,-3.7307,-3.866,-3.9844,-4.0777,-4.1572,-4.1956,-4.2591,-4.3032,-4.3008,-4.3135,-4.342,-4.3749,-4.3669,-4.3659,-4.3916,-4.3729,-4.3563,-4.3748,-4.3533,-4.3322,-4.3242,-4.2793,-4.2289,-4.1592,-4.043,-3.949,-3.9141,-3.9121,-3.9148,-3.9251,-3.9829,-4.0082,-3.9988,-4.0316,-4.0508,-4.0391,-4.0625,-4.0957,-4.125,-4.1543,-4.1836,-4.2187,-4.2519,-4.2812,-4.2812,-4.3144,-4.3398,-4.3437,-4.3555,-4.375,-4.3965,-4.4375,-4.4551,-4.4726,-4.4766,-4.4648,-3.1717,-3.1913,-3.2503,-3.3158,-3.3835,-3.4316,-3.4534,-3.4534,-3.4534,-3.4534,-3.4534,-3.4534,-3.4534,-3.4534,-3.4534,-3.4534,-3.4534,-3.4534,-3.46,-3.4687,-3.4709,-3.4971,-3.5386,-3.5408,-3.5692,-3.6107,-3.5682,-3.5444,-3.5528,-3.449,-3.3418,-3.2549,-3.2279,-3.1949,-3.1561,-3.1634,-3.1708,-3.1744,-3.2019,-3.2166,-3.2129,-3.1873,-3.1708,-3.1744,-3.2001,-3.2166,-3.2184,-3.2551,-3.2771,-3.2771,-3.3156,-3.3376,-3.3395,-3.367,-3.3817,-3.3955,-3.4646,-3.5314,-3.6112,-3.7563,-3.8849,-3.9929,-4.0956,-4.1696,-4.2282,-4.2814,-4.315,-4.3257,-4.3322,-4.3706,-4.4115,-4.4208,-4.4396,-4.457,-4.4487,-4.4402,-4.441,-4.417,-4.3956,-4.403,-4.3576,-4.3046,-4.2343,-4.1048,-3.9785,-3.9593,-3.9512,-3.9348,-3.9394,-3.9951,-4.026,-4.0221,-4.0841,-4.1036,-4.0957,-4.1113,-4.1523,-4.1855,-4.207,-4.2324,-4.2578,-4.2969,-4.3242,-4.3281,-4.3555,-4.3769,-4.3867,-4.3945,-4.4062,-4.4473,-4.4824,-4.5078,-4.5176,-4.5195,-4.5273,-3.1913,-3.2459,-3.3333,-3.3726,-3.3857,-3.4316,-3.4534,-3.4534,-3.4534,-3.4534,-3.4534,-3.4556,-3.4534,-3.4556,-3.46,-3.4534,-3.4534,-3.4556,-3.4797,-3.5146,-3.519,-3.5452,-3.5911,-3.5932,-3.6195,-3.6631,-3.6297,-3.5912,-3.5355,-3.4423,-3.3544,-3.2823,-3.269,-3.2357,-3.2019,-3.2294,-3.2514,-3.2459,-3.2533,-3.257,-3.2588,-3.2551,-3.2533,-3.2551,-3.2551,-3.257,-3.2606,-3.2973,-3.3193,-3.3211,-3.356,-3.378,-3.378,-3.3798,-3.3955,-3.437,-3.5059,-3.5743,-3.6598,-3.8274,-3.958,-4.0468,-4.1439,-4.2393,-4.2967,-4.3212,-4.3522,-4.3785,-4.3894,-4.4048,-4.4379,-4.4641,-4.4641,-4.4449,-4.4426,-4.4526,-4.4654,-4.4566,-4.4526,-4.4345,-4.4206,-4.3595,-4.2285,-4.1068,-4.0559,-4.0365,-4.0024,-3.9798,-3.974,-3.9929,-4.0292,-4.0736,-4.1067,-4.1264,-4.158,-4.1738,-4.1933,-4.2285,-4.2617,-4.2949,-4.3164,-4.3359,-4.3535,-4.3672,-4.3769,-4.3945,-4.4238,-4.4473,-4.4629,-4.4883,-4.5078,-4.5293,-4.5586,-4.5644,-4.5703,-3.2569,-3.3311,-3.3639,-3.3967,-3.4272,-3.4447,-3.4534,-3.4534,-3.4534,-3.4534,-3.4578,-3.4818,-3.4971,-3.4971,-3.5299,-3.5255,-3.4971,-3.4949,-3.5233,-3.5648,-3.5692,-3.5954,-3.6391,-3.6435,-3.6675,-3.7068,-3.6773,-3.6131,-3.519,-3.4831,-3.4083,-3.3135,-3.3236,-3.3049,-3.2537,-3.2533,-3.2606,-3.2625,-3.2845,-3.301,-3.3028,-3.3248,-3.3376,-3.3358,-3.312,-3.2991,-3.2991,-3.3395,-3.3596,-3.3596,-3.3743,-3.3817,-3.3817,-3.3817,-3.3955,-3.437,-3.5059,-3.5996,-3.7325,-3.8594,-3.9791,-4.0899,-4.1724,-4.2415,-4.2972,-4.3465,-4.3936,-4.4226,-4.4635,-4.493,-4.4884,-4.481,-4.4874,-4.5285,-4.5198,-4.5087,-4.5295,-4.5229,-4.5027,-4.4663,-4.4219,-4.3633,-4.2707,-4.1833,-4.113,-4.0801,-4.0257,-4.0009,-3.9987,-4.0035,-4.0375,-4.0367,-4.0754,-4.1342,-4.2133,-4.2184,-4.2344,-4.2676,-4.3008,-4.3203,-4.3418,-4.3516,-4.3652,-4.3808,-4.3906,-4.418,-4.4512,-4.5019,-4.5176,-4.5351,-4.5527,-4.5703,-4.6035,-4.5976,-4.6074,-3.3202,-3.377,-3.3967,-3.4229,-3.4513,-3.4534,-3.4534,-3.4556,-3.4687,-3.4753,-3.484,-3.5233,-3.5452,-3.5496,-3.5823,-3.5889,-3.567,-3.5539,-3.5736,-3.6173,-3.6195,-3.6457,-3.685,-3.6915,-3.7068,-3.721,-3.6911,-3.6118,-3.5146,-3.4946,-3.4379,-3.3497,-3.3653,-3.3326,-3.2942,-3.2918,-3.2991,-3.3046,-3.3285,-3.3413,-3.345,-3.367,-3.3817,-3.378,-3.356,-3.3413,-3.3413,-3.367,-3.3817,-3.3817,-3.3817,-3.3817,-3.3817,-3.3817,-3.4149,-3.4834,-3.5544,-3.6544,-3.7903,-3.9185,-4.0371,-4.1216,-4.2092,-4.2724,-4.3017,-4.3714,-4.4278,-4.4663,-4.5117,-4.537,-4.5301,-4.5048,-4.5114,-4.5685,-4.5619,-4.5619,-4.5754,-4.5644,-4.5393,-4.5044,-4.4472,-4.3868,-4.3236,-4.2435,-4.1785,-4.141,-4.0666,-4.012,-3.9934,-4.0132,-4.031,-4.0279,-4.0703,-4.1512,-4.2288,-4.2702,-4.2748,-4.3183,-4.3242,-4.3457,-4.3594,-4.3691,-4.3828,-4.3945,-4.418,-4.4473,-4.4902,-4.5449,-4.5723,-4.5859,-4.5957,-4.6074,-4.623,-4.6269,-4.6289,-3.377,-3.3901,-3.4316,-3.4491,-3.4534,-3.4534,-3.4534,-3.4644,-3.4993,-3.5168,-3.5277,-3.5758,-3.5954,-3.5976,-3.6085,-3.626,-3.65,-3.6216,-3.6282,-3.6675,-3.6697,-3.6915,-3.7309,-3.7309,-3.7352,-3.7318,-3.6688,-3.6081,-3.5468,-3.4932,-3.4485,-3.4068,-3.3819,-3.3619,-3.323,-3.3523,-3.3743,-3.3725,-3.3743,-3.378,-3.3817,-3.3798,-3.3817,-3.3817,-3.378,-3.3762,-3.378,-3.3798,-3.3817,-3.3817,-3.3817,-3.3817,-3.3872,-3.3908,-3.4316,-3.535,-3.6224,-3.7253,-3.8366,-4.0007,-4.1029,-4.1497,-4.2418,-4.3149,-4.352,-4.4001,-4.4321,-4.4732,-4.5051,-4.537,-4.537,-4.5324,-4.5301,-4.5483,-4.5619,-4.5619,-4.5621,-4.5829,-4.6032,-4.5692,-4.5158,-4.4511,-4.3975,-4.3081,-4.2363,-4.1693,-4.0936,-4.0235,-4.0066,-4.008,-4.0306,-4.0748,-4.1062,-4.1414,-4.234,-4.3048,-4.3341,-4.3507,-4.3613,-4.3672,-4.3808,-4.3906,-4.4121,-4.4277,-4.459,-4.4902,-4.541,-4.5898,-4.6035,-4.6172,-4.6289,-4.6308,-4.6308,-4.6308,-4.6308,-3.3988,-3.4294,-3.4447,-3.4534,-3.4534,-3.4534,-3.4687,-3.4993,-3.5168,-3.5408,-3.578,-3.626,-3.6479,-3.6544,-3.6784,-3.7003,-3.7134,-3.7003,-3.7025,-3.7134,-3.7156,-3.7221,-3.7352,-3.7374,-3.7306,-3.7095,-3.6539,-3.5869,-3.538,-3.5067,-3.4641,-3.401,-3.4115,-3.4028,-3.3615,-3.3762,-3.3817,-3.3817,-3.3817,-3.3817,-3.3817,-3.3817,-3.3817,-3.3817,-3.3817,-3.3817,-3.3817,-3.3817,-3.3817,-3.3817,-3.3817,-3.3927,-3.4202,-3.4495,-3.4981,-3.5538,-3.6246,-3.7266,-3.8345,-3.9675,-4.0766,-4.1439,-4.2236,-4.2861,-4.328,-4.3697,-4.4112,-4.4663,-4.4937,-4.5074,-4.537,-4.537,-4.5552,-4.5754,-4.5619,-4.5826,-4.6196,-4.6334,-4.6252,-4.6132,-4.5811,-4.5303,-4.4614,-4.369,-4.281,-4.213,-4.1264,-4.0481,-4.0297,-4.0343,-4.0272,-4.0621,-4.0972,-4.1324,-4.1974,-4.2626,-4.3183,-4.3516,-4.3682,-4.3906,-4.4023,-4.4199,-4.4414,-4.4707,-4.5019,-4.5391,-4.5898,-4.6152,-4.6269,-4.6308,-4.6308,-4.6308,-4.6308,-4.6348,-4.6406,-3.425,-3.4513,-3.4534,-3.4534,-3.4556,-3.4687,-3.4928,-3.5255,-3.5605,-3.5932,-3.6304,-3.6741,-3.6959,-3.7003,-3.7265,-3.7352,-3.7374,-3.7374,-3.7374,-3.7374,-3.7374,-3.7374,-3.7418,-3.7349,-3.7053,-3.6729,-3.614,-3.5699,-3.5205,-3.4948,-3.4623,-3.4153,-3.4102,-3.4075,-3.3817,-3.3817,-3.3817,-3.3817,-3.3817,-3.3817,-3.3817,-3.3817,-3.3817,-3.3817,-3.3817,-3.389,-3.4,-3.4037,-3.4037,-3.4073,-3.4165,-3.4385,-3.4642,-3.488,-3.5244,-3.5805,-3.6417,-3.7267,-3.8517,-3.9454,-4.0268,-4.0963,-4.1735,-4.23,-4.2721,-4.3141,-4.3697,-4.425,-4.4729,-4.5095,-4.5393,-4.5714,-4.5898,-4.6196,-4.5897,-4.6127,-4.682,-4.6954,-4.6774,-4.6748,-4.63,-4.5806,-4.4911,-4.4169,-4.3278,-4.225,-4.1529,-4.0715,-4.0745,-4.0603,-4.075,-4.0694,-4.1026,-4.1304,-4.1695,-4.2143,-4.2797,-4.3337,-4.3876,-4.3974,-4.4258,-4.4512,-4.4766,-4.5195,-4.5527,-4.5762,-4.6211,-4.623,-4.6308,-4.6308,-4.6328,-4.6406,-4.6465,-4.6582,-4.668,-3.4513,-3.4534,-3.4534,-3.4556,-3.4644,-3.4993,-3.5255,-3.5474,-3.6216,-3.6653,-3.6806,-3.7134,-3.733,-3.7352,-3.7352,-3.7374,-3.7374,-3.7374,-3.7253,-3.7275,-3.7318,-3.7262,-3.7184,-3.7079,-3.6708,-3.6222,-3.5739,-3.5488,-3.5123,-3.4642,-3.4252,-3.4296,-3.3918,-3.3817,-3.3817,-3.3817,-3.3817,-3.3817,-3.3817,-3.3817,-3.3817,-3.3817,-3.3817,-3.3817,-3.3872,-3.4037,-3.4293,-3.4458,-3.4495,-3.4495,-3.4807,-3.5009,-3.5064,-3.5082,-3.5484,-3.607,-3.6525,-3.7276,-3.8312,-3.9057,-3.9674,-4.0146,-4.0882,-4.1452,-4.1877,-4.2667,-4.3272,-4.3852,-4.4509,-4.5175,-4.5545,-4.5912,-4.6325,-4.6698,-4.6518,-4.6701,-4.7459,-4.7499,-4.744,-4.7175,-4.6766,-4.6199,-4.5095,-4.4102,-4.3138,-4.2242,-4.18,-4.1133,-4.0861,-4.0749,-4.0987,-4.1042,-4.1024,-4.1321,-4.1713,-4.2181,-4.2688,-4.3253,-4.3818,-4.448,-4.4746,-4.5,-4.5234,-4.5664,-4.5898,-4.6152,-4.6289,-4.6308,-4.6308,-4.6308,-4.6387,-4.6543,-4.6699,-4.6816,-4.7031,-3.4534,-3.4534,-3.4534,-3.4709,-3.5015,-3.5168,-3.5648,-3.6282,-3.6566,-3.6915,-3.7156,-3.7309,-3.7374,-3.7374,-3.7374,-3.7374,-3.7275,-3.7175,-3.7032,-3.6975,-3.6929,-3.6788,-3.6769,-3.6517,-3.6248,-3.5861,-3.5362,-3.4893,-3.4595,-3.4458,-3.424,-3.3955,-3.3955,-3.3817,-3.3817,-3.3817,-3.3817,-3.3817,-3.3817,-3.3817,-3.3817,-3.3835,-3.3817,-3.3835,-3.4092,-3.4293,-3.4477,-3.499,-3.5155,-3.4917,-3.5247,-3.5467,-3.5485,-3.5705,-3.5889,-3.6128,-3.6626,-3.681,-3.7364,-3.797,-3.8555,-3.9011,-3.9734,-4.0433,-4.1167,-4.2195,-4.3055,-4.3752,-4.4529,-4.5243,-4.555,-4.5827,-4.6194,-4.6774,-4.6991,-4.7179,-4.7499,-4.7676,-4.7658,-4.7208,-4.6905,-4.6117,-4.5132,-4.414,-4.3201,-4.2326,-4.1739,-4.1229,-4.0952,-4.0914,-4.106,-4.106,-4.1097,-4.128,-4.1597,-4.2066,-4.2611,-4.312,-4.3861,-4.5008,-4.5316,-4.5683,-4.5898,-4.6172,-4.6113,-4.6269,-4.6289,-4.6308,-4.6308,-4.6387,-4.6641,-4.6875,-4.6992,-4.7109,-4.7363,-3.4534,-3.4556,-3.4731,-3.4949,-3.5255,-3.5648,-3.6173,-3.6653,-3.6915,-3.7014,-3.7231,-3.7154,-3.7154,-3.7011,-3.7011,-3.7011,-3.6932,-3.6881,-3.6742,-3.6724,-3.6517,-3.6428,-3.63,-3.6071,-3.5759,-3.5332,-3.4873,-3.4557,-3.4471,-3.4232,-3.3955,-3.3817,-3.3817,-3.3817,-3.3817,-3.3817,-3.3817,-3.3817,-3.3817,-3.3817,-3.3817,-3.3982,-3.4055,-3.4147,-3.444,-3.4715,-3.4972,-3.554,-3.5687,-3.5449,-3.5632,-3.587,-3.587,-3.6072,-3.6201,-3.6201,-3.6497,-3.6645,-3.6812,-3.7236,-3.7696,-3.8136,-3.8865,-3.9545,-4.0431,-4.1586,-4.2598,-4.3306,-4.4171,-4.4823,-4.5345,-4.5767,-4.6301,-4.7006,-4.7363,-4.7508,-4.7653,-4.7759,-4.7569,-4.7054,-4.6699,-4.6027,-4.5086,-4.4136,-4.3356,-4.2548,-4.1876,-4.1509,-4.1155,-4.121,-4.1097,-4.1115,-4.128,-4.15,-4.1947,-4.2475,-4.287,-4.336,-4.3951,-4.5145,-4.559,-4.6113,-4.6191,-4.6269,-4.6289,-4.6308,-4.6308,-4.6387,-4.6601,-4.6758,-4.6992,-4.7246,-4.7422,-4.7539,-4.7793,-3.4444,-3.451,-3.4923,-3.5141,-3.5402,-3.6164,-3.6556,-3.6731,-3.7057,-3.6989,-3.6789,-3.6789,-3.6545,-3.63,-3.63,-3.6321,-3.6406,-3.6394,-3.6415,-3.6346,-3.6172,-3.587,-3.5508,-3.5633,-3.5296,-3.4854,-3.4496,-3.4333,-3.4232,-3.3955,-3.3817,-3.3817,-3.3817,-3.3817,-3.3817,-3.3817,-3.3817,-3.3817,-3.3817,-3.3872,-3.3963,-3.4183,-3.4348,-3.4532,-3.488,-3.5265,-3.5614,-3.5981,-3.6017,-3.5687,-3.6017,-3.6146,-3.6182,-3.6201,-3.6201,-3.6201,-3.6201,-3.6349,-3.6664,-3.6812,-3.696,-3.7402,-3.8047,-3.8789,-3.9858,-4.0959,-4.1979,-4.2732,-4.3489,-4.4145,-4.4675,-4.5718,-4.6381,-4.6788,-4.7128,-4.7298,-4.749,-4.7614,-4.7477,-4.6723,-4.6225,-4.5793,-4.4857,-4.4119,-4.3262,-4.2283,-4.1751,-4.1472,-4.1266,-4.1207,-4.1225,-4.1244,-4.1482,-4.1776,-4.226,-4.2728,-4.318,-4.3615,-4.4348,-4.5102,-4.5609,-4.5881,-4.6094,-4.6308,-4.6308,-4.6308,-4.6308,-4.6484,-4.6797,-4.7051,-4.7246,-4.7656,-4.8047,-4.8125,-4.8301,-3.3692,-3.3916,-3.4001,-3.4721,-3.5499,-3.5875,-3.6174,-3.6396,-3.6481,-3.6401,-3.6178,-3.6055,-3.5932,-3.5562,-3.5603,-3.5852,-3.606,-3.591,-3.5686,-3.5495,-3.5215,-3.5008,-3.4833,-3.4986,-3.4888,-3.4515,-3.4176,-3.3955,-3.3955,-3.3955,-3.3817,-3.3817,-3.3817,-3.3817,-3.3817,-3.3817,-3.3817,-3.3817,-3.3817,-3.4,-3.422,-3.4385,-3.4623,-3.4917,-3.5302,-3.5669,-3.5999,-3.6164,-3.6164,-3.6127,-3.6146,-3.6201,-3.6201,-3.6201,-3.6201,-3.6201,-3.6201,-3.6201,-3.6367,-3.6367,-3.6516,-3.7016,-3.7576,-3.8063,-3.9219,-4.0444,-4.1534,-4.2399,-4.3201,-4.369,-4.4163,-4.487,-4.5427,-4.6117,-4.6548,-4.6572,-4.6507,-4.6789,-4.6659,-4.6262,-4.5869,-4.5278,-4.418,-4.3562,-4.2729,-4.203,-4.1546,-4.1229,-4.1358,-4.1354,-4.1445,-4.15,-4.1867,-4.2179,-4.2399,-4.2886,-4.3301,-4.3681,-4.4416,-4.4725,-4.5236,-4.5763,-4.5958,-4.6133,-4.6308,-4.6328,-4.6231,-4.6699,-4.7012,-4.7246,-4.7539,-4.7787,-4.8157,-4.8535,-4.8633,-3.2909,-3.3176,-3.3706,-3.4399,-3.4977,-3.5206,-3.5435,-3.5644,-3.5541,-3.5294,-3.5046,-3.4922,-3.4899,-3.4705,-3.4745,-3.4966,-3.526,-3.5261,-3.5152,-3.4873,-3.4736,-3.4439,-3.4176,-3.4232,-3.4232,-3.4094,-3.3955,-3.3817,-3.3817,-3.3817,-3.3817,-3.3817,-3.3817,-3.3817,-3.3817,-3.3835,-3.3817,-3.3872,-3.4018,-3.4202,-3.4385,-3.4807,-3.5155,-3.5504,-3.5797,-3.6017,-3.6182,-3.6201,-3.6201,-3.6201,-3.6201,-3.6201,-3.6201,-3.6201,-3.6201,-3.6201,-3.6201,-3.6201,-3.6219,-3.6384,-3.6512,-3.6812,-3.7332,-3.8084,-3.888,-3.9969,-4.072,-4.1396,-4.2056,-4.2657,-4.331,-4.3689,-4.4357,-4.5005,-4.5566,-4.5708,-4.5535,-4.5948,-4.5996,-4.5461,-4.5119,-4.4402,-4.3687,-4.2933,-4.2512,-4.19,-4.1415,-4.1115,-4.1409,-4.1574,-4.1776,-4.1941,-4.2307,-4.2601,-4.2784,-4.3004,-4.3402,-4.369,-4.4137,-4.437,-4.4725,-4.5078,-4.5607,-4.5783,-4.5783,-4.6152,-4.6268,-4.6756,-4.7126,-4.7354,-4.7683,-4.7974,-4.8187,-4.8323,-4.8585,-3.2217,-3.2336,-3.3316,-3.3779,-3.4023,-3.4366,-3.4528,-3.4403,-3.4258,-3.3961,-3.3769,-3.3769,-3.3917,-3.3824,-3.4031,-3.4154,-3.4429,-3.4452,-3.4308,-3.4396,-3.4176,-3.4057,-3.3955,-3.3955,-3.3955,-3.3817,-3.3817,-3.3817,-3.3817,-3.3817,-3.3817,-3.3817,-3.3817,-3.3817,-3.3817,-3.389,-3.3945,-3.4,-3.433,-3.4587,-3.4715,-3.5265,-3.5705,-3.6036,-3.6127,-3.6164,-3.6201,-3.6201,-3.6201,-3.6201,-3.6201,-3.6201,-3.6201,-3.6201,-3.6201,-3.6201,-3.6201,-3.6274,-3.6402,-3.6622,-3.6824,-3.6916,-3.7588,-3.8093,-3.87,-3.9334,-4.0008,-4.0356,-4.0977,-4.1327,-4.2162,-4.2421,-4.319,-4.3922,-4.4406,-4.4437,-4.4401,-4.5036,-4.4939,-4.4321,-4.4017,-4.3687,-4.3021,-4.2364,-4.2068,-4.1789,-4.1489,-4.128,-4.1592,-4.1886,-4.2124,-4.2362,-4.2711,-4.2931,-4.3114,-4.3151,-4.3389,-4.3604,-4.3837,-4.4015,-4.4193,-4.437,-4.4725,-4.5078,-4.5312,-4.5661,-4.6107,-4.6434,-4.6857,-4.7396,-4.7539,-4.773,-4.7845,-4.7941,-4.8312,-3.1124,-3.1426,-3.1577,-3.2074,-3.2631,-3.2727,-3.2892,-3.2746,-3.2785,-3.272,-3.2765,-3.2933,-3.3141,-3.3313,-3.3558,-3.3671,-3.3797,-3.3761,-3.3707,-3.3817,-3.3696,-3.3539,-3.3678,-3.3678,-3.3678,-3.3817,-3.3817,-3.3678,-3.3817,-3.3817,-3.3817,-3.3817,-3.3817,-3.3817,-3.3945,-3.411,-3.4257,-3.4367,-3.4715,-3.5027,-3.5302,-3.554,-3.5834,-3.6164,-3.6201,-3.6201,-3.6201,-3.6201,-3.6201,-3.6201,-3.6201,-3.6201,-3.6219,-3.6219,-3.6256,-3.6256,-3.6274,-3.6402,-3.6696,-3.6824,-3.7044,-3.7319,-3.7686,-3.8217,-3.8732,-3.9112,-3.9594,-3.9845,-4.0097,-4.0506,-4.1148,-4.1481,-4.2008,-4.2899,-4.3376,-4.3411,-4.3254,-4.3457,-4.3523,-4.3147,-4.3041,-4.2914,-4.2345,-4.1975,-4.1938,-4.1748,-4.1689,-4.1739,-4.2069,-4.2362,-4.2637,-4.2876,-4.3114,-4.3279,-4.3426,-4.3408,-4.3463,-4.3463,-4.3659,-4.3659,-4.3659,-4.3659,-4.3837,-4.437,-4.4819,-4.5186,-4.5687,-4.6266,-4.6523,-4.6998,-4.7303,-4.7569,-4.7569,-4.7569,-4.7755,-3.0338,-3.0538,-3.0865,-3.1322,-3.1616,-3.1635,-3.1746,-3.1801,-3.1689,-3.1778,-3.1938,-3.218,-3.2381,-3.2538,-3.2765,-3.3002,-3.3092,-3.3013,-3.3121,-3.3121,-3.3121,-3.2999,-3.326,-3.326,-3.326,-3.326,-3.326,-3.3539,-3.3817,-3.3817,-3.3817,-3.3817,-3.3817,-3.3908,-3.411,-3.4293,-3.4532,-3.4733,-3.5119,-3.5412,-3.565,-3.5779,-3.6054,-3.6146,-3.6201,-3.6201,-3.6201,-3.6201,-3.6201,-3.6201,-3.6201,-3.6201,-3.6274,-3.6421,-3.6531,-3.6549,-3.6549,-3.6714,-3.7118,-3.7301,-3.7558,-3.7723,-3.8089,-3.831,-3.854,-3.8845,-3.9114,-3.917,-3.9533,-3.9823,-4.0489,-4.0868,-4.1485,-4.2154,-4.2587,-4.2468,-4.2455,-4.2345,-4.2235,-4.2254,-4.2216,-4.2197,-4.1733,-4.1563,-4.1615,-4.1818,-4.1867,-4.2179,-4.2527,-4.2747,-4.2986,-4.3169,-4.3334,-4.3389,-4.3481,-4.3481,-4.3481,-4.3481,-4.3481,-4.3481,-4.3481,-4.3481,-4.3659,-4.3837,-4.4342,-4.4999,-4.5592,-4.6045,-4.6422,-4.6577,-4.6821,-4.7009,-4.7009,-4.7009,-4.7196,-2.9497,-2.9532,-3.0089,-3.0396,-3.0467,-3.0467,-3.0697,-3.0999,-3.0768,-3.0997,-3.1349,-3.1537,-3.1714,-3.1996,-3.212,-3.2261,-3.2561,-3.2561,-3.2561,-3.2544,-3.2561,-3.2561,-3.2701,-3.2719,-3.2701,-3.2841,-3.2859,-3.2981,-3.34,-3.3678,-3.3678,-3.3733,-3.3733,-3.4055,-3.433,-3.4623,-3.4825,-3.5137,-3.5522,-3.5724,-3.5834,-3.6036,-3.6201,-3.6201,-3.6201,-3.6201,-3.6201,-3.6201,-3.6201,-3.6237,-3.6292,-3.6347,-3.6402,-3.6732,-3.6971,-3.7044,-3.7007,-3.7191,-3.7503,-3.7759,-3.7943,-3.8144,-3.8438,-3.8585,-3.8621,-3.8621,-3.8695,-3.8786,-3.9006,-3.9516,-4.0117,-4.0562,-4.108,-4.1451,-4.1861,-4.2049,-4.1695,-4.1733,-4.1658,-4.1658,-4.1639,-4.1563,-4.1505,-4.1781,-4.2039,-4.2297,-4.2344,-4.2582,-4.2894,-4.2986,-4.3188,-4.3334,-4.3463,-4.3463,-4.3481,-4.3481,-4.3481,-4.3481,-4.3481,-4.3481,-4.3481,-4.3481,-4.3696,-4.3807,-4.4355,-4.4869,-4.5442,-4.574,-4.6057,-4.6132,-4.6336,-4.6447,-4.6447,-4.6635,-4.6635,-2.846,-2.846,-2.8642,-2.871,-2.9111,-2.9144,-2.9497,-3.0089,-3.0106,-3.0463,-3.1081,-3.1375,-3.1687,-3.1931,-3.2001,-3.2053,-3.2105,-3.1982,-3.1982,-3.2123,-3.2123,-3.2263,-3.2561,-3.2701,-3.2561,-3.2561,-3.2561,-3.2719,-3.2877,-3.3175,-3.3436,-3.349,-3.4025,-3.4403,-3.4605,-3.5045,-3.5485,-3.5614,-3.5925,-3.6109,-3.6109,-3.6164,-3.6201,-3.6201,-3.6201,-3.6201,-3.6201,-3.6201,-3.6219,-3.6292,-3.6586,-3.6732,-3.6824,-3.7136,-3.7521,-3.7649,-3.7631,-3.7521,-3.7888,-3.8034,-3.8199,-3.842,-3.8603,-3.864,-3.8658,-3.8713,-3.8841,-3.9153,-3.9263,-3.9575,-4.0216,-4.0547,-4.0824,-4.0989,-4.1323,-4.1397,-4.1229,-4.1563,-4.1468,-4.1689,-4.1744,-4.1818,-4.1721,-4.2032,-4.2326,-4.2564,-4.2803,-4.3041,-4.3188,-4.3261,-4.3298,-4.3426,-4.3481,-4.3481,-4.3481,-4.3481,-4.3481,-4.3481,-4.3481,-4.3499,-4.3518,-4.3573,-4.3738,-4.4101,-4.4488,-4.4783,-4.5206,-4.5501,-4.563,-4.5869,-4.6223,-4.6072,-4.6072,-4.6072,-4.6278,-2.7865,-2.8279,-2.8494,-2.8659,-2.8824,-2.9038,-2.9336,-2.9876,-3.0065,-3.0544,-3.1005,-3.146,-3.1703,-3.1824,-3.1841,-3.1841,-3.1841,-3.17,-3.17,-3.17,-3.1841,-3.1982,-3.1999,-3.214,-3.2123,-3.214,-3.2175,-3.2173,-3.2473,-3.2843,-3.3071,-3.3621,-3.3943,-3.4554,-3.4954,-3.543,-3.5724,-3.5925,-3.6109,-3.6201,-3.6201,-3.6201,-3.6201,-3.6201,-3.6201,-3.6201,-3.6201,-3.6201,-3.6347,-3.6512,-3.6787,-3.6952,-3.7191,-3.7521,-3.7851,-3.7961,-3.8108,-3.8199,-3.8346,-3.8346,-3.8475,-3.8566,-3.864,-3.864,-3.8676,-3.8841,-3.9006,-3.919,-3.9685,-4.0107,-4.0437,-4.0675,-4.0859,-4.1005,-4.106,-4.1097,-4.117,-4.139,-4.1555,-4.1794,-4.2032,-4.2142,-4.2252,-4.2454,-4.2674,-4.2803,-4.3023,-4.3243,-4.3353,-4.3389,-4.3426,-4.3463,-4.3481,-4.3481,-4.3481,-4.3481,-4.3481,-4.3481,-4.3481,-4.3499,-4.3573,-4.3664,-4.3884,-4.4233,-4.4618,-4.4856,-4.5003,-4.5315,-4.5682,-4.581,-4.5883,-4.5883,-4.5902,-4.592,-4.6127,-2.7595,-2.8161,-2.8423,-2.8636,-2.8832,-2.911,-2.9421,-2.9872,-3.0153,-3.0443,-3.0785,-3.1118,-3.1277,-3.1294,-3.1277,-3.1277,-3.1294,-3.1294,-3.1418,-3.1418,-3.1418,-3.1559,-3.17,-3.17,-3.17,-3.1576,-3.1872,-3.201,-3.2256,-3.2593,-3.3073,-3.3714,-3.4198,-3.4595,-3.5321,-3.5595,-3.5944,-3.6127,-3.6182,-3.6201,-3.6201,-3.6201,-3.6201,-3.6201,-3.6201,-3.6201,-3.6219,-3.6347,-3.6586,-3.6732,-3.7099,-3.7356,-3.7594,-3.7943,-3.8163,-3.8273,-3.842,-3.853,-3.8566,-3.8585,-3.864,-3.864,-3.8658,-3.8695,-3.886,-3.9098,-3.9428,-3.9593,-4.0015,-4.04,-4.0657,-4.0895,-4.0987,-4.1042,-4.106,-4.1115,-4.1225,-4.1519,-4.1886,-4.2234,-4.2509,-4.2747,-4.2858,-4.2949,-4.3041,-4.3078,-4.3243,-4.3444,-4.3481,-4.3481,-4.3481,-4.3481,-4.3481,-4.3481,-4.3481,-4.3481,-4.3481,-4.3518,-4.3518,-4.3628,-4.3738,-4.3921,-4.4141,-4.4526,-4.4948,-4.5187,-4.5388,-4.5645,-4.5883,-4.5883,-4.5883,-4.5883,-4.5902,-4.5938,-4.6048,-2.7693,-2.7709,-2.7741,-2.8244,-2.8803,-2.8866,-2.9216,-2.9774,-2.9932,-3.0091,-3.0425,-3.0442,-3.0584,-3.0584,-3.0584,-3.0584,-3.0584,-3.0442,-3.0726,-3.0993,-3.0993,-3.1152,-3.1277,-3.1418,-3.1452,-3.152,-3.1708,-3.1895,-3.2227,-3.2518,-3.3006,-3.3436,-3.4213,-3.4737,-3.5283,-3.5796,-3.6072,-3.6201,-3.6201,-3.6201,-3.6201,-3.6201,-3.6201,-3.6201,-3.6201,-3.6201,-3.6237,-3.6549,-3.6861,-3.6971,-3.7466,-3.7833,-3.8016,-3.831,-3.8475,-3.853,-3.8566,-3.864,-3.864,-3.864,-3.864,-3.864,-3.8713,-3.8841,-3.9061,-3.919,-3.9575,-4.0162,-4.0437,-4.0657,-4.0877,-4.1042,-4.106,-4.1097,-4.1152,-4.1335,-4.1482,-4.1739,-4.2124,-4.2619,-4.2913,-4.3114,-4.3206,-4.3243,-4.3261,-4.3279,-4.3298,-4.3481,-4.3481,-4.3481,-4.3481,-4.3481,-4.3481,-4.3481,-4.3481,-4.3499,-4.3536,-4.3609,-4.3664,-4.3848,-4.4031,-4.4233,-4.4526,-4.4838,-4.526,-4.5498,-4.57,-4.581,-4.5883,-4.5883,-4.5902,-4.5938,-4.6048,-4.6177,-4.6305,-2.7979,-2.836,-2.836,-2.8519,-2.8789,-2.8996,-2.9313,-2.9568,-2.9855,-3.0157,-3.0442,-3.0442,-3.0442,-3.0442,-3.0442,-3.0442,-3.0442,-3.0442,-3.0584,-3.0584,-3.0726,-3.0726,-3.0868,-3.0918,-3.0969,-3.117,-3.1387,-3.1868,-3.2419,-3.2685,-3.3055,-3.3638,-3.4214,-3.4765,-3.5371,-3.5794,-3.6015,-3.6201,-3.6201,-3.6201,-3.6201,-3.6201,-3.6201,-3.6201,-3.6201,-3.6366,-3.6567,-3.6732,-3.7099,-3.7484,-3.7851,-3.8108,-3.8328,-3.8548,-3.8621,-3.864,-3.864,-3.864,-3.864,-3.864,-3.864,-3.8713,-3.886,-3.9098,-3.9336,-3.9648,-4.0033,-4.0437,-4.0694,-4.0895,-4.0987,-4.106,-4.1079,-4.1134,-4.1262,-4.1482,-4.1757,-4.2014,-4.2381,-4.2858,-4.3133,-4.3334,-4.3408,-4.3463,-4.3463,-4.3463,-4.3481,-4.3481,-4.3481,-4.3481,-4.3481,-4.3481,-4.3481,-4.3554,-4.3554,-4.3573,-4.3591,-4.3738,-4.3866,-4.4105,-4.4398,-4.4783,-4.5058,-4.5333,-4.5498,-4.5682,-4.581,-4.5865,-4.5883,-4.5883,-4.5938,-4.6012,-4.6177,-4.6379,-4.6599,-2.8329,-2.8757,-2.8885,-2.8932,-2.8964,-2.9186,-2.9298,-2.9298,-2.9585,-2.9871,-3.0014,-3.0014,-3.0014,-3.0014,-3.0014,-3.0014,-3.0014,-3.0014,-3.0157,-3.0157,-3.0299,-3.0365,-3.0574,-3.0673,-3.0949,-3.1069,-3.13,-3.1795,-3.2425,-3.2759,-3.3078,-3.3464,-3.3914,-3.4399,-3.5068,-3.5623,-3.5903,-3.5903,-3.5903,-3.607,-3.6052,-3.6201,-3.6201,-3.6237,-3.6329,-3.6531,-3.6842,-3.7081,-3.7484,-3.7833,-3.8144,-3.8346,-3.853,-3.864,-3.864,-3.864,-3.864,-3.864,-3.864,-3.864,-3.8695,-3.8878,-3.9043,-3.9318,-3.9685,-4.0143,-4.0418,-4.0675,-4.0914,-4.106,-4.106,-4.106,-4.106,-4.1115,-4.1427,-4.1666,-4.2032,-4.2326,-4.2692,-4.3096,-4.3298,-4.3444,-4.3463,-4.3481,-4.3481,-4.3481,-4.3481,-4.3481,-4.3481,-4.3481,-4.3481,-4.3481,-4.3481,-4.3573,-4.3664,-4.3756,-4.3903,-4.416,-4.4306,-4.4508,-4.4801,-4.5168,-4.5425,-4.559,-4.5718,-4.5847,-4.5883,-4.5883,-4.5883,-4.5883,-4.5938,-4.5993,-4.6342,-4.658,-4.691,-2.8742,-2.8805,-2.9139,-2.9266,-2.925,-2.9282,-2.9298,-2.9298,-2.9298,-2.9441,-2.9441,-2.9441,-2.9441,-2.9441,-2.9585,-2.9585,-2.9441,-2.9441,-2.9585,-2.9871,-2.9952,-3.0369,-3.0677,-3.0825,-3.086,-3.1367,-3.1581,-3.1762,-3.2126,-3.2659,-3.2994,-3.3331,-3.36,-3.407,-3.4441,-3.4875,-3.5007,-3.5157,-3.5456,-3.5605,-3.5754,-3.5903,-3.6052,-3.6274,-3.6549,-3.6769,-3.7007,-3.7484,-3.7851,-3.8108,-3.8401,-3.8548,-3.8621,-3.864,-3.864,-3.864,-3.864,-3.864,-3.864,-3.864,-3.8841,-3.9098,-3.9263,-3.9593,-4.018,-4.0529,-4.0657,-4.0895,-4.1042,-4.106,-4.106,-4.106,-4.106,-4.1189,-4.15,-4.1867,-4.2216,-4.2674,-4.3059,-4.3243,-4.3371,-4.3481,-4.3481,-4.3481,-4.3481,-4.3481,-4.3481,-4.3481,-4.3481,-4.3499,-4.3499,-4.3554,-4.3573,-4.3738,-4.3866,-4.4013,-4.4196,-4.449,-4.4728,-4.4911,-4.5095,-4.5352,-4.559,-4.5792,-4.5847,-4.5883,-4.5883,-4.5883,-4.5883,-4.5883,-4.5883,-4.6012,-4.6397,-4.6782,-4.713,-2.89,-2.9123,-2.925,-2.9298,-2.9298,-2.9298,-2.9298,-2.9298,-2.9298,-2.9298,-2.9298,-2.9298,-2.9298,-2.9298,-2.9329,-2.9345,-2.9329,-2.9298,-2.9441,-2.9489,-2.9793,-2.9954,-3.0292,-3.0534,-3.0792,-3.1066,-3.1308,-3.1636,-3.1999,-3.2402,-3.2588,-3.2909,-3.3213,-3.382,-3.4273,-3.4724,-3.5007,-3.5007,-3.5157,-3.5306,-3.5605,-3.5754,-3.5921,-3.6237,-3.6641,-3.6971,-3.7228,-3.7814,-3.8126,-3.8346,-3.8621,-3.864,-3.864,-3.864,-3.864,-3.864,-3.864,-3.864,-3.8731,-3.8841,-3.908,-3.9281,-3.9538,-3.9905,-4.0382,-4.073,-4.0914,-4.1005,-4.106,-4.106,-4.106,-4.106,-4.1097,-4.1225,-4.1537,-4.1977,-4.2399,-4.2968,-4.3389,-4.3408,-4.3481,-4.3481,-4.3481,-4.3481,-4.3481,-4.3481,-4.3481,-4.3481,-4.3481,-4.3499,-4.3499,-4.3609,-4.3701,-4.3884,-4.4068,-4.4343,-4.4636,-4.4966,-4.515,-4.5278,-4.5462,-4.559,-4.57,-4.5847,-4.5883,-4.5883,-4.5883,-4.5883,-4.5883,-4.5883,-4.5883,-4.6177,-4.6709,-4.7039,-4.7314,-2.9075,-2.9282,-2.9298,-2.9298,-2.9298,-2.9298,-2.9298,-2.9329,-2.9409,-2.9488,-2.9504,-2.96,-2.9663,-2.9663,-2.9647,-2.9647,-2.9631,-2.952,-2.9615,-2.9631,-2.9727,-2.9981,-3.0203,-3.0394,-3.0862,-3.095,-3.1061,-3.1341,-3.1807,-3.1993,-3.2299,-3.2588,-3.2892,-3.3196,-3.382,-3.4122,-3.4556,-3.4574,-3.4724,-3.4875,-3.5174,-3.5492,-3.5845,-3.6212,-3.6691,-3.7228,-3.7613,-3.7998,-3.8346,-3.8566,-3.864,-3.864,-3.864,-3.864,-3.864,-3.864,-3.864,-3.8713,-3.8915,-3.9025,-3.9318,-3.9722,-3.9923,-4.0235,-4.0584,-4.0895,-4.0987,-4.106,-4.106,-4.106,-4.106,-4.106,-4.1115,-4.1244,-4.1537,-4.1977,-4.2362,-4.2913,-4.3316,-4.3353,-4.3481,-4.3481,-4.3481,-4.3481,-4.3481,-4.3481,-4.3481,-4.3499,-4.3536,-4.3591,-4.3683,-4.3811,-4.4031,-4.4325,-4.4545,-4.4765,-4.5095,-4.5443,-4.5535,-4.559,-4.5682,-4.5773,-4.5847,-4.5883,-4.5883,-4.5883,-4.5883,-4.5883,-4.5883,-4.5883,-4.5883,-4.6324,-4.6965,-4.7222,-4.7387,-2.9298,-2.9298,-2.9298,-2.9298,-2.9298,-2.9329,-2.9345,-2.9361,-2.9695,-2.9838,-2.9854,-3.0124,-3.0187,-3.0251,-3.0267,-3.0203,-3.0092,-2.987,-2.9949,-3.0044,-2.9965,-3.0299,-3.0616,-3.0839,-3.1029,-3.1252,-3.1347,-3.13,-3.1549,-3.1549,-3.1993,-3.2283,-3.2283,-3.2435,-3.274,-3.3213,-3.3668,-3.382,-3.4122,-3.4423,-3.4724,-3.5174,-3.5653,-3.6243,-3.6794,-3.7349,-3.7906,-3.831,-3.853,-3.864,-3.864,-3.864,-3.864,-3.864,-3.864,-3.864,-3.864,-3.8915,-3.9116,-3.9245,-3.9685,-4.0143,-4.0418,-4.0712,-4.0895,-4.1024,-4.1042,-4.106,-4.106,-4.106,-4.106,-4.106,-4.1079,-4.1262,-4.1482,-4.1831,-4.2179,-4.2601,-4.3004,-4.3224,-4.3408,-4.3481,-4.3481,-4.3481,-4.3499,-4.3536,-4.3573,-4.3664,-4.3719,-4.3866,-4.3976,-4.416,-4.4435,-4.4801,-4.5021,-4.5168,-4.537,-4.5663,-4.5737,-4.5792,-4.5883,-4.5883,-4.5883,-4.5883,-4.5883,-4.5883,-4.5883,-4.5883,-4.5883,-4.5883,-4.5883,-4.6324,-4.6929,-4.7094,-4.7295,-2.9298,-2.9298,-2.9298,-2.9298,-2.9329,-2.9568,-2.9679,-2.9727,-3.0029,-3.0172,-3.0187,-3.0267,-3.0394,-3.0315,-3.0315,-3.0187,-3.0029,-2.9886,-2.9886,-2.9981,-3.0172,-3.0489,-3.0807,-3.1093,-3.1268,-3.1347,-3.1395,-3.1395,-3.1395,-3.1395,-3.1241,-3.1241,-3.1379,-3.1363,-3.1517,-3.2146,-3.2604,-3.3213,-3.3365,-3.382,-3.4156,-3.4609,-3.5308,-3.595,-3.6651,-3.7358,-3.7897,-3.842,-3.8603,-3.864,-3.864,-3.864,-3.864,-3.864,-3.864,-3.8676,-3.886,-3.9135,-3.93,-3.9777,-4.0217,-4.0492,-4.0712,-4.0895,-4.1042,-4.106,-4.106,-4.106,-4.106,-4.106,-4.106,-4.106,-4.106,-4.1189,-4.139,-4.1666,-4.1977,-4.2234,-4.2656,-4.3078,-4.3261,-4.3481,-4.3481,-4.3481,-4.3499,-4.3573,-4.3683,-4.3829,-4.4013,-4.4178,-4.4306,-4.4508,-4.482,-4.5187,-4.5333,-4.5462,-4.5663,-4.5847,-4.5883,-4.5883,-4.5883,-4.5883,-4.5883,-4.5883,-4.5883,-4.5883,-4.5883,-4.5883,-4.5883,-4.5883,-4.5938,-4.6397,-4.68,-4.6984,-4.7332,-2.9298,-2.9298,-2.9298,-2.9377,-2.9584,-3.0029,-3.0235,-3.0267,-3.0442,-3.0537,-3.0553,-3.0696,-3.0728,-3.0743,-3.0632,-3.0458,-3.0299,-3.014,-3.014,-3.0378,-3.041,-3.0609,-3.0925,-3.1115,-3.1194,-3.1241,-3.1241,-3.1395,-3.1225,-3.0763,-3.0469,-3.0314,-3.0144,-2.9974,-3.0284,-3.0608,-3.1209,-3.1977,-3.2588,-3.3213,-3.3568,-3.4126,-3.5029,-3.5669,-3.6368,-3.7366,-3.7886,-3.839,-3.8621,-3.864,-3.864,-3.864,-3.864,-3.864,-3.864,-3.8713,-3.8988,-3.9281,-3.9557,-4.007,-4.0437,-4.0712,-4.0914,-4.1005,-4.106,-4.106,-4.106,-4.106,-4.106,-4.106,-4.106,-4.106,-4.106,-4.1079,-4.128,-4.15,-4.1702,-4.1904,-4.2344,-4.2821,-4.3133,-4.3389,-4.3481,-4.3481,-4.3591,-4.3756,-4.3995,-4.4233,-4.4471,-4.4728,-4.4801,-4.4911,-4.5223,-4.5572,-4.5645,-4.5682,-4.5792,-4.5883,-4.5883,-4.5883,-4.5883,-4.5883,-4.5883,-4.5883,-4.5883,-4.5883,-4.5883,-4.5883,-4.5883,-4.5883,-4.5938,-4.625,-4.6635,-4.6947,-4.7387,-2.9154,-2.9154,-2.9186,-2.9407,-2.9786,-3.0387,-3.0839,-3.0902,-3.0902,-3.0902,-3.0966,-3.122,-3.13,-3.1172,-3.0934,-3.0743,-3.0537,-3.0346,-3.0198,-3.0807,-3.0609,-3.0662,-3.0623,-3.0933,-3.0778,-3.0778,-3.0933,-3.0917,-3.0917,-3.0299,-2.9523,-2.9368,-2.89,-2.873,-2.8886,-2.9197,-2.9664,-3.0299,-3.1288,-3.2106,-3.2769,-3.36,-3.4573,-3.5123,-3.6254,-3.7396,-3.786,-3.8322,-3.864,-3.864,-3.864,-3.864,-3.864,-3.864,-3.864,-3.886,-3.9171,-3.9538,-3.9887,-4.0363,-4.0675,-4.0914,-4.106,-4.106,-4.106,-4.106,-4.106,-4.106,-4.106,-4.106,-4.106,-4.106,-4.106,-4.106,-4.1189,-4.1317,-4.1464,-4.1757,-4.2234,-4.2711,-4.3151,-4.3389,-4.3481,-4.3499,-4.3646,-4.3921,-4.4233,-4.4526,-4.4875,-4.515,-4.526,-4.5297,-4.5517,-4.5737,-4.5773,-4.581,-4.5847,-4.5883,-4.5883,-4.5883,-4.5883,-4.5883,-4.5883,-4.5883,-4.5883,-4.5883,-4.5883,-4.5883,-4.5883,-4.5883,-4.5957,-4.6103,-4.6415,-4.6782,-4.7277,-2.8418,-2.8449,-2.8711,-2.902,-2.9359,-3.0077,-3.0557,-3.0807,-3.1115,-3.1252,-3.1284,-3.1347,-3.1379,-3.13,-3.0982,-3.0577,-3.0324,-3.0261,-3.0096,-3.015,-3.0307,-3.0008,-2.9789,-2.9989,-2.9834,-2.9834,-2.9834,-2.9989,-2.9834,-2.9197,-2.8573,-2.7947,-2.7476,-2.7162,-2.7476,-2.7805,-2.8318,-2.866,-2.9621,-3.0824,-3.1684,-3.2544,-3.3397,-3.4508,-3.5708,-3.6852,-3.7401,-3.8004,-3.8322,-3.8481,-3.864,-3.864,-3.864,-3.864,-3.8805,-3.9098,-3.9447,-3.9868,-4.0235,-4.0602,-4.0895,-4.0987,-4.106,-4.106,-4.106,-4.106,-4.106,-4.106,-4.106,-4.106,-4.106,-4.106,-4.106,-4.106,-4.1079,-4.1152,-4.1262,-4.1702,-4.2179,-4.2637,-4.3133,-4.3334,-4.3444,-4.3573,-4.3738,-4.4013,-4.438,-4.4746,-4.515,-4.5462,-4.559,-4.5645,-4.57,-4.5865,-4.5883,-4.5883,-4.5883,-4.5883,-4.5883,-4.5883,-4.5883,-4.5883,-4.5883,-4.5883,-4.5883,-4.5883,-4.5883,-4.5883,-4.5883,-4.5883,-4.592,-4.603,-4.6232,-4.658,-4.7075,-2.755,-2.758,-2.7909,-2.8238,-2.8717,-2.9351,-2.9839,-3.0268,-3.0608,-3.0763,-3.0917,-3.1071,-3.1008,-3.0835,-3.0338,-2.9984,-2.975,-2.9735,-2.9575,-2.9578,-2.9503,-2.916,-2.8997,-2.873,-2.873,-2.873,-2.9056,-2.9212,-2.8573,-2.809,-2.7462,-2.6847,-2.6228,-2.5924,-2.6241,-2.6625,-2.7037,-2.7382,-2.8137,-2.8962,-3.0331,-3.1266,-3.2475,-3.3692,-3.4869,-3.6018,-3.6762,-3.7525,-3.7845,-3.8163,-3.8163,-3.8322,-3.8377,-3.8682,-3.9006,-3.9318,-3.9722,-4.0217,-4.051,-4.0804,-4.106,-4.106,-4.106,-4.106,-4.106,-4.106,-4.106,-4.106,-4.106,-4.106,-4.106,-4.106,-4.106,-4.106,-4.1115,-4.117,-4.1464,-4.1886,-4.2307,-4.2711,-4.3133,-4.3408,-4.3481,-4.3499,-4.3738,-4.427,-4.4636,-4.4985,-4.5388,-4.5645,-4.581,-4.5883,-4.5883,-4.5883,-4.5883,-4.5883,-4.5883,-4.5883,-4.5883,-4.5883,-4.5883,-4.5883,-4.5883,-4.5883,-4.5883,-4.5883,-4.5883,-4.5883,-4.5883,-4.5883,-4.592,-4.5957,-4.6158,-4.6379,-4.6819,-2.6663,-2.6706,-2.701,-2.7329,-2.7647,-2.8438,-2.8916,-2.9338,-2.9664,-2.9944,-2.9883,-3.0053,-3.0207,-2.9945,-2.932,-2.9063,-2.9033,-2.9109,-2.8973,-2.8862,-2.902,-2.8345,-2.7762,-2.7633,-2.7476,-2.7633,-2.7947,-2.779,-2.7319,-2.6833,-2.636,-2.5594,-2.5314,-2.5021,-2.5257,-2.557,-2.6222,-2.6462,-2.6985,-2.7251,-2.8551,-2.9828,-3.1151,-3.2576,-3.3904,-3.5221,-3.5901,-3.6563,-3.7045,-3.7525,-3.7703,-3.8076,-3.8344,-3.8704,-3.9157,-3.9612,-4.0052,-4.04,-4.0639,-4.0877,-4.1005,-4.106,-4.106,-4.106,-4.106,-4.106,-4.106,-4.106,-4.106,-4.106,-4.106,-4.106,-4.106,-4.1115,-4.117,-4.128,-4.1666,-4.2087,-4.2472,-4.2858,-4.3133,-4.3444,-4.3481,-4.3481,-4.3848,-4.4416,-4.4856,-4.526,-4.5572,-4.57,-4.5847,-4.5883,-4.5883,-4.5883,-4.5883,-4.5883,-4.5883,-4.5883,-4.5883,-4.5883,-4.5883,-4.5883,-4.5883,-4.5883,-4.5883,-4.5883,-4.5883,-4.5883,-4.5883,-4.5883,-4.5902,-4.592,-4.5975,-4.6213,-4.6525,-2.5038,-2.5079,-2.5364,-2.5677,-2.6129,-2.7046,-2.7664,-2.8076,-2.8715,-2.9064,-2.8564,-2.8197,-2.8293,-2.932,-2.852,-2.8115,-2.8037,-2.8169,-2.798,-2.7677,-2.782,-2.7134,-2.6531,-2.6373,-2.6215,-2.6373,-2.6689,-2.6531,-2.6241,-2.5753,-2.5276,-2.4836,-2.4591,-2.4652,-2.5026,-2.5364,-2.5716,-2.5956,-2.6274,-2.6684,-2.7017,-2.8427,-2.9684,-3.0943,-3.2247,-3.3429,-3.4588,-3.5757,-3.6385,-3.6867,-3.7241,-3.7703,-3.824,-3.8617,-3.9268,-3.9796,-4.04,-4.062,-4.084,-4.0969,-4.106,-4.106,-4.106,-4.106,-4.106,-4.106,-4.106,-4.106,-4.106,-4.106,-4.106,-4.106,-4.1079,-4.1225,-4.1317,-4.1537,-4.1849,-4.2307,-4.2766,-4.3004,-4.3224,-4.3408,-4.3481,-4.3609,-4.3848,-4.4325,-4.4655,-4.5095,-4.57,-4.5828,-4.5883,-4.5883,-4.5883,-4.5883,-4.5883,-4.5883,-4.5883,-4.5883,-4.5883,-4.5883,-4.5883,-4.5883,-4.5883,-4.5883,-4.5883,-4.5883,-4.5883,-4.5883,-4.5883,-4.5883,-4.5883,-4.5902,-4.592,-4.603,-4.6324]}]]